<?xml version="1.0" encoding="UTF-8" standalone="no" ?>
<gpx xmlns="http://www.topografix.com/GPX/1/1" xmlns:xsi="http://www.w3.org/2001/XMLSchema-instance" xsi:schemaLocation="http://www.topografix.com/GPX/1/1 http://www.topografix.com/GPX/1/1/gpx.xsd" version="1.1" creator="VisuGPX - https://www.visugpx.com">
  <metadata>
    <name>Ut4M 160 Challenge - Taillefer</name>
  </metadata>
  <trk>
    <name><![CDATA[Ultra Tour des 4 Massifs 2021 - Ut4M 160 Challenge - Etape 2 sur TraceDeTrail.fr]]></name>
    <trkseg>
      <trkpt lat="45.05842" lon="5.68028">
        <ele>301</ele>
        <time>2000-01-01T02:33:57.000Z</time>
      </trkpt>
      <trkpt lat="45.05846" lon="5.68017">
        <ele>302</ele>
        <time>2000-01-01T02:34:07.000Z</time>
      </trkpt>
      <trkpt lat="45.05848" lon="5.68007">
        <ele>302</ele>
        <time>2000-01-01T02:34:17.000Z</time>
      </trkpt>
      <trkpt lat="45.05848" lon="5.67997">
        <ele>302</ele>
        <time>2000-01-01T02:34:27.000Z</time>
      </trkpt>
      <trkpt lat="45.05843" lon="5.67988">
        <ele>302</ele>
        <time>2000-01-01T02:34:37.000Z</time>
      </trkpt>
      <trkpt lat="45.05837" lon="5.67982">
        <ele>302</ele>
        <time>2000-01-01T02:34:47.000Z</time>
      </trkpt>
      <trkpt lat="45.05831" lon="5.67975">
        <ele>302</ele>
        <time>2000-01-01T02:34:57.000Z</time>
      </trkpt>
      <trkpt lat="45.05831" lon="5.67964">
        <ele>302</ele>
        <time>2000-01-01T02:35:07.000Z</time>
      </trkpt>
      <trkpt lat="45.05825" lon="5.67956">
        <ele>302</ele>
        <time>2000-01-01T02:35:17.000Z</time>
      </trkpt>
      <trkpt lat="45.05806" lon="5.67939">
        <ele>302</ele>
        <time>2000-01-01T02:35:27.000Z</time>
      </trkpt>
      <trkpt lat="45.058" lon="5.67933">
        <ele>302.4</ele>
        <time>2000-01-01T02:35:37.000Z</time>
      </trkpt>
      <trkpt lat="45.05793" lon="5.67927">
        <ele>302.6</ele>
        <time>2000-01-01T02:35:47.000Z</time>
      </trkpt>
      <trkpt lat="45.05786" lon="5.6792">
        <ele>302</ele>
        <time>2000-01-01T02:35:57.000Z</time>
      </trkpt>
      <trkpt lat="45.0578" lon="5.67916">
        <ele>303</ele>
        <time>2000-01-01T02:36:07.000Z</time>
      </trkpt>
      <trkpt lat="45.05773" lon="5.6791">
        <ele>303</ele>
        <time>2000-01-01T02:36:17.000Z</time>
      </trkpt>
      <trkpt lat="45.05766" lon="5.67904">
        <ele>302</ele>
        <time>2000-01-01T02:36:27.000Z</time>
      </trkpt>
      <trkpt lat="45.0576" lon="5.67895">
        <ele>303</ele>
        <time>2000-01-01T02:36:37.000Z</time>
      </trkpt>
      <trkpt lat="45.05747" lon="5.67882">
        <ele>303</ele>
        <time>2000-01-01T02:36:47.000Z</time>
      </trkpt>
      <trkpt lat="45.05736" lon="5.67869">
        <ele>303.5</ele>
        <time>2000-01-01T02:36:57.000Z</time>
      </trkpt>
      <trkpt lat="45.0573" lon="5.67863">
        <ele>304</ele>
        <time>2000-01-01T02:37:07.000Z</time>
      </trkpt>
      <trkpt lat="45.05725" lon="5.67855">
        <ele>303.9</ele>
        <time>2000-01-01T02:37:17.000Z</time>
      </trkpt>
      <trkpt lat="45.05719" lon="5.67847">
        <ele>304.1</ele>
        <time>2000-01-01T02:37:27.000Z</time>
      </trkpt>
      <trkpt lat="45.05708" lon="5.67832">
        <ele>304</ele>
        <time>2000-01-01T02:37:37.000Z</time>
      </trkpt>
      <trkpt lat="45.05702" lon="5.67824">
        <ele>304</ele>
        <time>2000-01-01T02:37:47.000Z</time>
      </trkpt>
      <trkpt lat="45.05697" lon="5.67816">
        <ele>304</ele>
        <time>2000-01-01T02:37:57.000Z</time>
      </trkpt>
      <trkpt lat="45.0569" lon="5.67809">
        <ele>304</ele>
        <time>2000-01-01T02:38:07.000Z</time>
      </trkpt>
      <trkpt lat="45.05679" lon="5.67793">
        <ele>304.6</ele>
        <time>2000-01-01T02:38:17.000Z</time>
      </trkpt>
      <trkpt lat="45.05674" lon="5.67785">
        <ele>304</ele>
        <time>2000-01-01T02:38:27.000Z</time>
      </trkpt>
      <trkpt lat="45.05668" lon="5.67777">
        <ele>305</ele>
        <time>2000-01-01T02:38:37.000Z</time>
      </trkpt>
      <trkpt lat="45.05664" lon="5.67768">
        <ele>305</ele>
        <time>2000-01-01T02:38:47.000Z</time>
      </trkpt>
      <trkpt lat="45.05659" lon="5.67759">
        <ele>305</ele>
        <time>2000-01-01T02:38:57.000Z</time>
      </trkpt>
      <trkpt lat="45.05646" lon="5.67732">
        <ele>305</ele>
        <time>2000-01-01T02:39:07.000Z</time>
      </trkpt>
      <trkpt lat="45.05638" lon="5.67713">
        <ele>305</ele>
        <time>2000-01-01T02:39:17.000Z</time>
      </trkpt>
      <trkpt lat="45.05633" lon="5.67703">
        <ele>305</ele>
        <time>2000-01-01T02:39:27.000Z</time>
      </trkpt>
      <trkpt lat="45.05615" lon="5.67679">
        <ele>305</ele>
        <time>2000-01-01T02:39:37.000Z</time>
      </trkpt>
      <trkpt lat="45.05608" lon="5.67674">
        <ele>306</ele>
        <time>2000-01-01T02:39:47.000Z</time>
      </trkpt>
      <trkpt lat="45.05575" lon="5.67646">
        <ele>306</ele>
        <time>2000-01-01T02:39:57.000Z</time>
      </trkpt>
      <trkpt lat="45.05539" lon="5.67623">
        <ele>307</ele>
        <time>2000-01-01T02:40:07.000Z</time>
      </trkpt>
      <trkpt lat="45.05509" lon="5.67612">
        <ele>307</ele>
        <time>2000-01-01T02:40:17.000Z</time>
      </trkpt>
      <trkpt lat="45.05501" lon="5.67607">
        <ele>308</ele>
        <time>2000-01-01T02:40:27.000Z</time>
      </trkpt>
      <trkpt lat="45.05494" lon="5.67602">
        <ele>308</ele>
        <time>2000-01-01T02:40:37.000Z</time>
      </trkpt>
      <trkpt lat="45.05478" lon="5.67594">
        <ele>308</ele>
        <time>2000-01-01T02:40:47.000Z</time>
      </trkpt>
      <trkpt lat="45.05471" lon="5.67588">
        <ele>308</ele>
        <time>2000-01-01T02:40:57.000Z</time>
      </trkpt>
      <trkpt lat="45.05458" lon="5.67576">
        <ele>308</ele>
        <time>2000-01-01T02:41:07.000Z</time>
      </trkpt>
      <trkpt lat="45.05442" lon="5.67553">
        <ele>308</ele>
        <time>2000-01-01T02:41:17.000Z</time>
      </trkpt>
      <trkpt lat="45.05432" lon="5.67535">
        <ele>309</ele>
        <time>2000-01-01T02:41:27.000Z</time>
      </trkpt>
      <trkpt lat="45.05427" lon="5.67526">
        <ele>309</ele>
        <time>2000-01-01T02:41:37.000Z</time>
      </trkpt>
      <trkpt lat="45.05418" lon="5.6751">
        <ele>309</ele>
        <time>2000-01-01T02:41:47.000Z</time>
      </trkpt>
      <trkpt lat="45.05407" lon="5.67495">
        <ele>309</ele>
        <time>2000-01-01T02:41:57.000Z</time>
      </trkpt>
      <trkpt lat="45.05394" lon="5.67482">
        <ele>309</ele>
        <time>2000-01-01T02:42:07.000Z</time>
      </trkpt>
      <trkpt lat="45.05388" lon="5.67476">
        <ele>309</ele>
        <time>2000-01-01T02:42:17.000Z</time>
      </trkpt>
      <trkpt lat="45.05385" lon="5.67466">
        <ele>309</ele>
        <time>2000-01-01T02:42:27.000Z</time>
      </trkpt>
      <trkpt lat="45.05381" lon="5.67456">
        <ele>309.2</ele>
        <time>2000-01-01T02:42:37.000Z</time>
      </trkpt>
      <trkpt lat="45.05352" lon="5.6742">
        <ele>309</ele>
        <time>2000-01-01T02:42:47.000Z</time>
      </trkpt>
      <trkpt lat="45.05347" lon="5.67411">
        <ele>310</ele>
        <time>2000-01-01T02:42:57.000Z</time>
      </trkpt>
      <trkpt lat="45.05344" lon="5.67401">
        <ele>310</ele>
        <time>2000-01-01T02:43:07.000Z</time>
      </trkpt>
      <trkpt lat="45.0534" lon="5.67392">
        <ele>309</ele>
        <time>2000-01-01T02:43:17.000Z</time>
      </trkpt>
      <trkpt lat="45.05337" lon="5.67381">
        <ele>310</ele>
        <time>2000-01-01T02:43:27.000Z</time>
      </trkpt>
      <trkpt lat="45.05335" lon="5.67371">
        <ele>310</ele>
        <time>2000-01-01T02:43:37.000Z</time>
      </trkpt>
      <trkpt lat="45.05331" lon="5.67361">
        <ele>309</ele>
        <time>2000-01-01T02:43:47.000Z</time>
      </trkpt>
      <trkpt lat="45.05329" lon="5.6735">
        <ele>310</ele>
        <time>2000-01-01T02:43:57.000Z</time>
      </trkpt>
      <trkpt lat="45.05323" lon="5.6733">
        <ele>309</ele>
        <time>2000-01-01T02:44:07.000Z</time>
      </trkpt>
      <trkpt lat="45.05302" lon="5.67281">
        <ele>310</ele>
        <time>2000-01-01T02:44:17.000Z</time>
      </trkpt>
      <trkpt lat="45.05295" lon="5.67277">
        <ele>310.4</ele>
        <time>2000-01-01T02:44:27.000Z</time>
      </trkpt>
      <trkpt lat="45.0529" lon="5.67269">
        <ele>310.7</ele>
        <time>2000-01-01T02:44:37.000Z</time>
      </trkpt>
      <trkpt lat="45.05278" lon="5.67254">
        <ele>311</ele>
        <time>2000-01-01T02:44:47.000Z</time>
      </trkpt>
      <trkpt lat="45.05271" lon="5.67247">
        <ele>311.3</ele>
        <time>2000-01-01T02:44:57.000Z</time>
      </trkpt>
      <trkpt lat="45.05267" lon="5.67239">
        <ele>311.6</ele>
        <time>2000-01-01T02:45:07.000Z</time>
      </trkpt>
      <trkpt lat="45.05261" lon="5.67233">
        <ele>311</ele>
        <time>2000-01-01T02:45:17.000Z</time>
      </trkpt>
      <trkpt lat="45.05245" lon="5.6721">
        <ele>312</ele>
        <time>2000-01-01T02:45:27.000Z</time>
      </trkpt>
      <trkpt lat="45.05239" lon="5.67203">
        <ele>312.4</ele>
        <time>2000-01-01T02:45:37.000Z</time>
      </trkpt>
      <trkpt lat="45.0523" lon="5.67184">
        <ele>312</ele>
        <time>2000-01-01T02:45:47.000Z</time>
      </trkpt>
      <trkpt lat="45.05225" lon="5.67176">
        <ele>312.9</ele>
        <time>2000-01-01T02:45:57.000Z</time>
      </trkpt>
      <trkpt lat="45.05219" lon="5.6717">
        <ele>313</ele>
        <time>2000-01-01T02:46:07.000Z</time>
      </trkpt>
      <trkpt lat="45.05207" lon="5.67155">
        <ele>313</ele>
        <time>2000-01-01T02:46:17.000Z</time>
      </trkpt>
      <trkpt lat="45.05201" lon="5.6715">
        <ele>313</ele>
        <time>2000-01-01T02:46:27.000Z</time>
      </trkpt>
      <trkpt lat="45.05193" lon="5.67153">
        <ele>313</ele>
        <time>2000-01-01T02:46:37.000Z</time>
      </trkpt>
      <trkpt lat="45.05185" lon="5.67158">
        <ele>313</ele>
        <time>2000-01-01T02:46:47.000Z</time>
      </trkpt>
      <trkpt lat="45.05178" lon="5.67163">
        <ele>313.1</ele>
        <time>2000-01-01T02:46:57.000Z</time>
      </trkpt>
      <trkpt lat="45.05172" lon="5.6717">
        <ele>313</ele>
        <time>2000-01-01T02:47:07.000Z</time>
      </trkpt>
      <trkpt lat="45.05156" lon="5.67195">
        <ele>313</ele>
        <time>2000-01-01T02:47:17.000Z</time>
      </trkpt>
      <trkpt lat="45.0515" lon="5.67204">
        <ele>314.3</ele>
        <time>2000-01-01T02:47:27.000Z</time>
      </trkpt>
      <trkpt lat="45.05146" lon="5.67213">
        <ele>314.7</ele>
        <time>2000-01-01T02:47:37.000Z</time>
      </trkpt>
      <trkpt lat="45.0514" lon="5.6722">
        <ele>314</ele>
        <time>2000-01-01T02:47:47.000Z</time>
      </trkpt>
      <trkpt lat="45.05132" lon="5.67238">
        <ele>315</ele>
        <time>2000-01-01T02:47:57.000Z</time>
      </trkpt>
      <trkpt lat="45.05126" lon="5.6723">
        <ele>315</ele>
        <time>2000-01-01T02:48:07.000Z</time>
      </trkpt>
      <trkpt lat="45.05107" lon="5.67253">
        <ele>315</ele>
        <time>2000-01-01T02:48:17.000Z</time>
      </trkpt>
      <trkpt lat="45.05093" lon="5.67287">
        <ele>315</ele>
        <time>2000-01-01T02:48:27.000Z</time>
      </trkpt>
      <trkpt lat="45.05056" lon="5.67308">
        <ele>314</ele>
        <time>2000-01-01T02:48:37.000Z</time>
      </trkpt>
      <trkpt lat="45.05025" lon="5.67333">
        <ele>313</ele>
        <time>2000-01-01T02:48:47.000Z</time>
      </trkpt>
      <trkpt lat="45.05009" lon="5.67368">
        <ele>313</ele>
        <time>2000-01-01T02:48:57.000Z</time>
      </trkpt>
      <trkpt lat="45.04981" lon="5.67428">
        <ele>312</ele>
        <time>2000-01-01T02:49:07.000Z</time>
      </trkpt>
      <trkpt lat="45.04961" lon="5.67478">
        <ele>312</ele>
        <time>2000-01-01T02:49:17.000Z</time>
      </trkpt>
      <trkpt lat="45.04947" lon="5.67517">
        <ele>312</ele>
        <time>2000-01-01T02:49:27.000Z</time>
      </trkpt>
      <trkpt lat="45.04937" lon="5.6755">
        <ele>312</ele>
        <time>2000-01-01T02:49:37.000Z</time>
      </trkpt>
      <trkpt lat="45.04926" lon="5.67588">
        <ele>311</ele>
        <time>2000-01-01T02:49:47.000Z</time>
      </trkpt>
      <trkpt lat="45.04919" lon="5.67629">
        <ele>311</ele>
        <time>2000-01-01T02:49:57.000Z</time>
      </trkpt>
      <trkpt lat="45.04908" lon="5.67696">
        <ele>311</ele>
        <time>2000-01-01T02:50:07.000Z</time>
      </trkpt>
      <trkpt lat="45.04901" lon="5.67752">
        <ele>311</ele>
        <time>2000-01-01T02:50:17.000Z</time>
      </trkpt>
      <trkpt lat="45.04893" lon="5.678">
        <ele>311</ele>
        <time>2000-01-01T02:50:27.000Z</time>
      </trkpt>
      <trkpt lat="45.04886" lon="5.67858">
        <ele>311</ele>
        <time>2000-01-01T02:50:37.000Z</time>
      </trkpt>
      <trkpt lat="45.04881" lon="5.67882">
        <ele>311.9</ele>
        <time>2000-01-01T02:50:47.000Z</time>
      </trkpt>
      <trkpt lat="45.04871" lon="5.67905">
        <ele>314</ele>
        <time>2000-01-01T02:50:57.000Z</time>
      </trkpt>
      <trkpt lat="45.04864" lon="5.67923">
        <ele>318.6</ele>
        <time>2000-01-01T02:51:07.000Z</time>
      </trkpt>
      <trkpt lat="45.04864" lon="5.67947">
        <ele>320</ele>
        <time>2000-01-01T02:51:17.000Z</time>
      </trkpt>
      <trkpt lat="45.04873" lon="5.67984">
        <ele>320</ele>
        <time>2000-01-01T02:51:27.000Z</time>
      </trkpt>
      <trkpt lat="45.04884" lon="5.68049">
        <ele>320</ele>
        <time>2000-01-01T02:51:37.000Z</time>
      </trkpt>
      <trkpt lat="45.04886" lon="5.68099">
        <ele>323</ele>
        <time>2000-01-01T02:51:47.000Z</time>
      </trkpt>
      <trkpt lat="45.04907" lon="5.68147">
        <ele>323</ele>
        <time>2000-01-01T02:51:57.000Z</time>
      </trkpt>
      <trkpt lat="45.04937" lon="5.68198">
        <ele>319</ele>
        <time>2000-01-01T02:52:07.000Z</time>
      </trkpt>
      <trkpt lat="45.04931" lon="5.68217">
        <ele>311.9</ele>
        <time>2000-01-01T02:52:17.000Z</time>
      </trkpt>
      <trkpt lat="45.0492" lon="5.68239">
        <ele>318</ele>
        <time>2000-01-01T02:52:27.000Z</time>
      </trkpt>
      <trkpt lat="45.04898" lon="5.68248">
        <ele>326</ele>
        <time>2000-01-01T02:52:37.000Z</time>
      </trkpt>
      <trkpt lat="45.04885" lon="5.6826">
        <ele>323</ele>
        <time>2000-01-01T02:52:47.000Z</time>
      </trkpt>
      <trkpt lat="45.04868" lon="5.6827">
        <ele>334</ele>
        <time>2000-01-01T02:52:57.000Z</time>
      </trkpt>
      <trkpt lat="45.0485" lon="5.68276">
        <ele>337.3</ele>
        <time>2000-01-01T02:53:07.000Z</time>
      </trkpt>
      <trkpt lat="45.04841" lon="5.68277">
        <ele>344</ele>
        <time>2000-01-01T02:53:17.000Z</time>
      </trkpt>
      <trkpt lat="45.0483" lon="5.68281">
        <ele>344.2</ele>
        <time>2000-01-01T02:53:27.000Z</time>
      </trkpt>
      <trkpt lat="45.04821" lon="5.68291">
        <ele>345</ele>
        <time>2000-01-01T02:53:37.000Z</time>
      </trkpt>
      <trkpt lat="45.04817" lon="5.68308">
        <ele>347.2</ele>
        <time>2000-01-01T02:53:47.000Z</time>
      </trkpt>
      <trkpt lat="45.04808" lon="5.68331">
        <ele>354</ele>
        <time>2000-01-01T02:53:57.000Z</time>
      </trkpt>
      <trkpt lat="45.04799" lon="5.6834">
        <ele>351.4</ele>
        <time>2000-01-01T02:54:07.000Z</time>
      </trkpt>
      <trkpt lat="45.0478" lon="5.68363">
        <ele>361</ele>
        <time>2000-01-01T02:54:17.000Z</time>
      </trkpt>
      <trkpt lat="45.04769" lon="5.68385">
        <ele>362</ele>
        <time>2000-01-01T02:54:27.000Z</time>
      </trkpt>
      <trkpt lat="45.04749" lon="5.68392">
        <ele>366</ele>
        <time>2000-01-01T02:54:37.000Z</time>
      </trkpt>
      <trkpt lat="45.04731" lon="5.68404">
        <ele>370</ele>
        <time>2000-01-01T02:54:47.000Z</time>
      </trkpt>
      <trkpt lat="45.0472" lon="5.6841">
        <ele>372.2</ele>
        <time>2000-01-01T02:54:57.000Z</time>
      </trkpt>
      <trkpt lat="45.04703" lon="5.68423">
        <ele>373</ele>
        <time>2000-01-01T02:55:07.000Z</time>
      </trkpt>
      <trkpt lat="45.04678" lon="5.68437">
        <ele>379</ele>
        <time>2000-01-01T02:55:17.000Z</time>
      </trkpt>
      <trkpt lat="45.04667" lon="5.68455">
        <ele>378.2</ele>
        <time>2000-01-01T02:55:27.000Z</time>
      </trkpt>
      <trkpt lat="45.04654" lon="5.68473">
        <ele>382</ele>
        <time>2000-01-01T02:55:37.000Z</time>
      </trkpt>
      <trkpt lat="45.04624" lon="5.68495">
        <ele>392</ele>
        <time>2000-01-01T02:55:47.000Z</time>
      </trkpt>
      <trkpt lat="45.04609" lon="5.68508">
        <ele>394.8</ele>
        <time>2000-01-01T02:55:57.000Z</time>
      </trkpt>
      <trkpt lat="45.04594" lon="5.68518">
        <ele>399</ele>
        <time>2000-01-01T02:56:07.000Z</time>
      </trkpt>
      <trkpt lat="45.04576" lon="5.68523">
        <ele>401</ele>
        <time>2000-01-01T02:56:17.000Z</time>
      </trkpt>
      <trkpt lat="45.04568" lon="5.68523">
        <ele>399</ele>
        <time>2000-01-01T02:56:27.000Z</time>
      </trkpt>
      <trkpt lat="45.04536" lon="5.68551">
        <ele>399</ele>
        <time>2000-01-01T02:56:37.000Z</time>
      </trkpt>
      <trkpt lat="45.04521" lon="5.68585">
        <ele>402</ele>
        <time>2000-01-01T02:56:47.000Z</time>
      </trkpt>
      <trkpt lat="45.04515" lon="5.68613">
        <ele>413</ele>
        <time>2000-01-01T02:56:57.000Z</time>
      </trkpt>
      <trkpt lat="45.045" lon="5.68656">
        <ele>416</ele>
        <time>2000-01-01T02:57:07.000Z</time>
      </trkpt>
      <trkpt lat="45.04495" lon="5.6868">
        <ele>418.6</ele>
        <time>2000-01-01T02:57:17.000Z</time>
      </trkpt>
      <trkpt lat="45.04479" lon="5.68701">
        <ele>432</ele>
        <time>2000-01-01T02:57:27.000Z</time>
      </trkpt>
      <trkpt lat="45.04469" lon="5.68732">
        <ele>438</ele>
        <time>2000-01-01T02:57:37.000Z</time>
      </trkpt>
      <trkpt lat="45.04458" lon="5.68769">
        <ele>438</ele>
        <time>2000-01-01T02:57:47.000Z</time>
      </trkpt>
      <trkpt lat="45.04451" lon="5.68798">
        <ele>439</ele>
        <time>2000-01-01T02:57:57.000Z</time>
      </trkpt>
      <trkpt lat="45.04428" lon="5.68855">
        <ele>441</ele>
        <time>2000-01-01T02:58:07.000Z</time>
      </trkpt>
      <trkpt lat="45.04415" lon="5.68892">
        <ele>438</ele>
        <time>2000-01-01T02:58:17.000Z</time>
      </trkpt>
      <trkpt lat="45.04395" lon="5.68952">
        <ele>436</ele>
        <time>2000-01-01T02:58:27.000Z</time>
      </trkpt>
      <trkpt lat="45.04376" lon="5.68985">
        <ele>433</ele>
        <time>2000-01-01T02:58:37.000Z</time>
      </trkpt>
      <trkpt lat="45.04341" lon="5.69044">
        <ele>423</ele>
        <time>2000-01-01T02:58:47.000Z</time>
      </trkpt>
      <trkpt lat="45.04331" lon="5.69079">
        <ele>419</ele>
        <time>2000-01-01T02:58:57.000Z</time>
      </trkpt>
      <trkpt lat="45.04319" lon="5.69122">
        <ele>412</ele>
        <time>2000-01-01T02:59:07.000Z</time>
      </trkpt>
      <trkpt lat="45.04357" lon="5.69141">
        <ele>404</ele>
        <time>2000-01-01T02:59:17.000Z</time>
      </trkpt>
      <trkpt lat="45.04367" lon="5.69184">
        <ele>389</ele>
        <time>2000-01-01T02:59:27.000Z</time>
      </trkpt>
      <trkpt lat="45.04367" lon="5.69225">
        <ele>375</ele>
        <time>2000-01-01T02:59:37.000Z</time>
      </trkpt>
      <trkpt lat="45.04369" lon="5.69266">
        <ele>370</ele>
        <time>2000-01-01T02:59:47.000Z</time>
      </trkpt>
      <trkpt lat="45.04332" lon="5.69254">
        <ele>368</ele>
        <time>2000-01-01T02:59:57.000Z</time>
      </trkpt>
      <trkpt lat="45.04308" lon="5.69251">
        <ele>368</ele>
        <time>2000-01-01T03:00:07.000Z</time>
      </trkpt>
      <trkpt lat="45.04284" lon="5.69249">
        <ele>365</ele>
        <time>2000-01-01T03:00:17.000Z</time>
      </trkpt>
      <trkpt lat="45.04277" lon="5.69287">
        <ele>362</ele>
        <time>2000-01-01T03:00:27.000Z</time>
      </trkpt>
      <trkpt lat="45.04313" lon="5.69298">
        <ele>357</ele>
        <time>2000-01-01T03:00:37.000Z</time>
      </trkpt>
      <trkpt lat="45.04349" lon="5.6931">
        <ele>353</ele>
        <time>2000-01-01T03:00:47.000Z</time>
      </trkpt>
      <trkpt lat="45.04385" lon="5.69321">
        <ele>349</ele>
        <time>2000-01-01T03:00:57.000Z</time>
      </trkpt>
      <trkpt lat="45.0444" lon="5.69338">
        <ele>338</ele>
        <time>2000-01-01T03:01:07.000Z</time>
      </trkpt>
      <trkpt lat="45.04453" lon="5.6929">
        <ele>334</ele>
        <time>2000-01-01T03:01:17.000Z</time>
      </trkpt>
      <trkpt lat="45.04467" lon="5.69242">
        <ele>324</ele>
        <time>2000-01-01T03:01:27.000Z</time>
      </trkpt>
      <trkpt lat="45.04481" lon="5.69194">
        <ele>317</ele>
        <time>2000-01-01T03:01:37.000Z</time>
      </trkpt>
      <trkpt lat="45.04498" lon="5.69132">
        <ele>317</ele>
        <time>2000-01-01T03:01:47.000Z</time>
      </trkpt>
      <trkpt lat="45.04492" lon="5.69173">
        <ele>316</ele>
        <time>2000-01-01T03:01:57.000Z</time>
      </trkpt>
      <trkpt lat="45.04482" lon="5.69243">
        <ele>316</ele>
        <time>2000-01-01T03:02:07.000Z</time>
      </trkpt>
      <trkpt lat="45.04485" lon="5.69277">
        <ele>317</ele>
        <time>2000-01-01T03:02:17.000Z</time>
      </trkpt>
      <trkpt lat="45.04489" lon="5.69312">
        <ele>312</ele>
        <time>2000-01-01T03:02:27.000Z</time>
      </trkpt>
      <trkpt lat="45.04501" lon="5.69374">
        <ele>308</ele>
        <time>2000-01-01T03:02:37.000Z</time>
      </trkpt>
      <trkpt lat="45.04465" lon="5.69393">
        <ele>306</ele>
        <time>2000-01-01T03:02:47.000Z</time>
      </trkpt>
      <trkpt lat="45.04432" lon="5.69395">
        <ele>306</ele>
        <time>2000-01-01T03:02:57.000Z</time>
      </trkpt>
      <trkpt lat="45.04403" lon="5.69438">
        <ele>300</ele>
        <time>2000-01-01T03:03:07.000Z</time>
      </trkpt>
      <trkpt lat="45.04392" lon="5.69493">
        <ele>300</ele>
        <time>2000-01-01T03:03:17.000Z</time>
      </trkpt>
      <trkpt lat="45.04384" lon="5.69542">
        <ele>303</ele>
        <time>2000-01-01T03:03:27.000Z</time>
      </trkpt>
      <trkpt lat="45.04378" lon="5.69593">
        <ele>303</ele>
        <time>2000-01-01T03:03:37.000Z</time>
      </trkpt>
      <trkpt lat="45.04366" lon="5.69653">
        <ele>304</ele>
        <time>2000-01-01T03:03:47.000Z</time>
      </trkpt>
      <trkpt lat="45.04361" lon="5.6971">
        <ele>304</ele>
        <time>2000-01-01T03:03:57.000Z</time>
      </trkpt>
      <trkpt lat="45.04355" lon="5.6976">
        <ele>304</ele>
        <time>2000-01-01T03:04:07.000Z</time>
      </trkpt>
      <trkpt lat="45.04344" lon="5.69819">
        <ele>304</ele>
        <time>2000-01-01T03:04:17.000Z</time>
      </trkpt>
      <trkpt lat="45.04339" lon="5.69854">
        <ele>304</ele>
        <time>2000-01-01T03:04:27.000Z</time>
      </trkpt>
      <trkpt lat="45.04334" lon="5.69892">
        <ele>307</ele>
        <time>2000-01-01T03:04:37.000Z</time>
      </trkpt>
      <trkpt lat="45.04336" lon="5.69926">
        <ele>307</ele>
        <time>2000-01-01T03:04:47.000Z</time>
      </trkpt>
      <trkpt lat="45.04338" lon="5.69962">
        <ele>309</ele>
        <time>2000-01-01T03:04:57.000Z</time>
      </trkpt>
      <trkpt lat="45.04347" lon="5.70005">
        <ele>309</ele>
        <time>2000-01-01T03:05:07.000Z</time>
      </trkpt>
      <trkpt lat="45.04345" lon="5.7003">
        <ele>314.7</ele>
        <time>2000-01-01T03:05:17.000Z</time>
      </trkpt>
      <trkpt lat="45.04348" lon="5.70045">
        <ele>311</ele>
        <time>2000-01-01T03:05:27.000Z</time>
      </trkpt>
      <trkpt lat="45.04331" lon="5.70068">
        <ele>321</ele>
        <time>2000-01-01T03:05:37.000Z</time>
      </trkpt>
      <trkpt lat="45.04316" lon="5.7006">
        <ele>323</ele>
        <time>2000-01-01T03:05:47.000Z</time>
      </trkpt>
      <trkpt lat="45.04297" lon="5.70056">
        <ele>327</ele>
        <time>2000-01-01T03:05:57.000Z</time>
      </trkpt>
      <trkpt lat="45.04276" lon="5.70057">
        <ele>330</ele>
        <time>2000-01-01T03:06:07.000Z</time>
      </trkpt>
      <trkpt lat="45.04235" lon="5.70066">
        <ele>336</ele>
        <time>2000-01-01T03:06:17.000Z</time>
      </trkpt>
      <trkpt lat="45.04214" lon="5.70072">
        <ele>339</ele>
        <time>2000-01-01T03:06:27.000Z</time>
      </trkpt>
      <trkpt lat="45.04195" lon="5.70085">
        <ele>340</ele>
        <time>2000-01-01T03:06:37.000Z</time>
      </trkpt>
      <trkpt lat="45.04175" lon="5.70094">
        <ele>343</ele>
        <time>2000-01-01T03:06:47.000Z</time>
      </trkpt>
      <trkpt lat="45.04153" lon="5.70099">
        <ele>344</ele>
        <time>2000-01-01T03:06:57.000Z</time>
      </trkpt>
      <trkpt lat="45.04134" lon="5.70105">
        <ele>348</ele>
        <time>2000-01-01T03:07:07.000Z</time>
      </trkpt>
      <trkpt lat="45.04095" lon="5.70128">
        <ele>353</ele>
        <time>2000-01-01T03:07:17.000Z</time>
      </trkpt>
      <trkpt lat="45.04074" lon="5.70135">
        <ele>353</ele>
        <time>2000-01-01T03:07:27.000Z</time>
      </trkpt>
      <trkpt lat="45.04055" lon="5.70143">
        <ele>357</ele>
        <time>2000-01-01T03:07:37.000Z</time>
      </trkpt>
      <trkpt lat="45.04035" lon="5.70148">
        <ele>358</ele>
        <time>2000-01-01T03:07:47.000Z</time>
      </trkpt>
      <trkpt lat="45.04013" lon="5.70145">
        <ele>360</ele>
        <time>2000-01-01T03:07:57.000Z</time>
      </trkpt>
      <trkpt lat="45.03995" lon="5.70139">
        <ele>363.4</ele>
        <time>2000-01-01T03:08:07.000Z</time>
      </trkpt>
      <trkpt lat="45.03971" lon="5.70133">
        <ele>364</ele>
        <time>2000-01-01T03:08:17.000Z</time>
      </trkpt>
      <trkpt lat="45.03958" lon="5.70135">
        <ele>364.8</ele>
        <time>2000-01-01T03:08:27.000Z</time>
      </trkpt>
      <trkpt lat="45.03904" lon="5.70133">
        <ele>367</ele>
        <time>2000-01-01T03:08:37.000Z</time>
      </trkpt>
      <trkpt lat="45.03876" lon="5.70142">
        <ele>368</ele>
        <time>2000-01-01T03:08:47.000Z</time>
      </trkpt>
      <trkpt lat="45.03844" lon="5.70142">
        <ele>368</ele>
        <time>2000-01-01T03:08:57.000Z</time>
      </trkpt>
      <trkpt lat="45.03818" lon="5.70148">
        <ele>369</ele>
        <time>2000-01-01T03:09:07.000Z</time>
      </trkpt>
      <trkpt lat="45.03785" lon="5.70155">
        <ele>370</ele>
        <time>2000-01-01T03:09:17.000Z</time>
      </trkpt>
      <trkpt lat="45.03785" lon="5.70191">
        <ele>371</ele>
        <time>2000-01-01T03:09:27.000Z</time>
      </trkpt>
      <trkpt lat="45.0378" lon="5.70213">
        <ele>373.1</ele>
        <time>2000-01-01T03:09:37.000Z</time>
      </trkpt>
      <trkpt lat="45.03786" lon="5.7027">
        <ele>375</ele>
        <time>2000-01-01T03:09:47.000Z</time>
      </trkpt>
      <trkpt lat="45.03784" lon="5.70301">
        <ele>378</ele>
        <time>2000-01-01T03:09:57.000Z</time>
      </trkpt>
      <trkpt lat="45.03778" lon="5.70332">
        <ele>381</ele>
        <time>2000-01-01T03:10:07.000Z</time>
      </trkpt>
      <trkpt lat="45.03782" lon="5.70352">
        <ele>384.1</ele>
        <time>2000-01-01T03:10:17.000Z</time>
      </trkpt>
      <trkpt lat="45.03795" lon="5.70379">
        <ele>385</ele>
        <time>2000-01-01T03:10:27.000Z</time>
      </trkpt>
      <trkpt lat="45.03813" lon="5.70412">
        <ele>390</ele>
        <time>2000-01-01T03:10:37.000Z</time>
      </trkpt>
      <trkpt lat="45.03809" lon="5.70434">
        <ele>392.3</ele>
        <time>2000-01-01T03:10:47.000Z</time>
      </trkpt>
      <trkpt lat="45.038" lon="5.70458">
        <ele>395</ele>
        <time>2000-01-01T03:10:57.000Z</time>
      </trkpt>
      <trkpt lat="45.038" lon="5.70479">
        <ele>395.5</ele>
        <time>2000-01-01T03:11:07.000Z</time>
      </trkpt>
      <trkpt lat="45.0379" lon="5.705">
        <ele>401</ele>
        <time>2000-01-01T03:11:17.000Z</time>
      </trkpt>
      <trkpt lat="45.03783" lon="5.70519">
        <ele>405.1</ele>
        <time>2000-01-01T03:11:27.000Z</time>
      </trkpt>
      <trkpt lat="45.0377" lon="5.70539">
        <ele>411</ele>
        <time>2000-01-01T03:11:37.000Z</time>
      </trkpt>
      <trkpt lat="45.03764" lon="5.70556">
        <ele>410.9</ele>
        <time>2000-01-01T03:11:47.000Z</time>
      </trkpt>
      <trkpt lat="45.03756" lon="5.70584">
        <ele>420</ele>
        <time>2000-01-01T03:11:57.000Z</time>
      </trkpt>
      <trkpt lat="45.03744" lon="5.70607">
        <ele>424</ele>
        <time>2000-01-01T03:12:07.000Z</time>
      </trkpt>
      <trkpt lat="45.03734" lon="5.70632">
        <ele>425</ele>
        <time>2000-01-01T03:12:17.000Z</time>
      </trkpt>
      <trkpt lat="45.03717" lon="5.70647">
        <ele>429</ele>
        <time>2000-01-01T03:12:27.000Z</time>
      </trkpt>
      <trkpt lat="45.03698" lon="5.7066">
        <ele>430</ele>
        <time>2000-01-01T03:12:37.000Z</time>
      </trkpt>
      <trkpt lat="45.03686" lon="5.70678">
        <ele>433.9</ele>
        <time>2000-01-01T03:12:47.000Z</time>
      </trkpt>
      <trkpt lat="45.03669" lon="5.70694">
        <ele>433</ele>
        <time>2000-01-01T03:12:57.000Z</time>
      </trkpt>
      <trkpt lat="45.03651" lon="5.7075">
        <ele>438</ele>
        <time>2000-01-01T03:13:07.000Z</time>
      </trkpt>
      <trkpt lat="45.03632" lon="5.70775">
        <ele>440</ele>
        <time>2000-01-01T03:13:17.000Z</time>
      </trkpt>
      <trkpt lat="45.03621" lon="5.70796">
        <ele>442.7</ele>
        <time>2000-01-01T03:13:27.000Z</time>
      </trkpt>
      <trkpt lat="45.03604" lon="5.70815">
        <ele>446</ele>
        <time>2000-01-01T03:13:37.000Z</time>
      </trkpt>
      <trkpt lat="45.03591" lon="5.70836">
        <ele>448</ele>
        <time>2000-01-01T03:13:47.000Z</time>
      </trkpt>
      <trkpt lat="45.03574" lon="5.70861">
        <ele>452</ele>
        <time>2000-01-01T03:13:57.000Z</time>
      </trkpt>
      <trkpt lat="45.03555" lon="5.70887">
        <ele>455</ele>
        <time>2000-01-01T03:14:07.000Z</time>
      </trkpt>
      <trkpt lat="45.03537" lon="5.70903">
        <ele>459</ele>
        <time>2000-01-01T03:14:17.000Z</time>
      </trkpt>
      <trkpt lat="45.03518" lon="5.70917">
        <ele>463</ele>
        <time>2000-01-01T03:14:27.000Z</time>
      </trkpt>
      <trkpt lat="45.03504" lon="5.70934">
        <ele>463.4</ele>
        <time>2000-01-01T03:14:37.000Z</time>
      </trkpt>
      <trkpt lat="45.03493" lon="5.70954">
        <ele>465</ele>
        <time>2000-01-01T03:14:47.000Z</time>
      </trkpt>
      <trkpt lat="45.03479" lon="5.70976">
        <ele>467</ele>
        <time>2000-01-01T03:14:57.000Z</time>
      </trkpt>
      <trkpt lat="45.03464" lon="5.70996">
        <ele>469</ele>
        <time>2000-01-01T03:15:07.000Z</time>
      </trkpt>
      <trkpt lat="45.03442" lon="5.71034">
        <ele>475</ele>
        <time>2000-01-01T03:15:17.000Z</time>
      </trkpt>
      <trkpt lat="45.03413" lon="5.71062">
        <ele>484</ele>
        <time>2000-01-01T03:15:27.000Z</time>
      </trkpt>
      <trkpt lat="45.03403" lon="5.71081">
        <ele>490.4</ele>
        <time>2000-01-01T03:15:37.000Z</time>
      </trkpt>
      <trkpt lat="45.03417" lon="5.71105">
        <ele>493</ele>
        <time>2000-01-01T03:15:47.000Z</time>
      </trkpt>
      <trkpt lat="45.03398" lon="5.71156">
        <ele>508</ele>
        <time>2000-01-01T03:15:57.000Z</time>
      </trkpt>
      <trkpt lat="45.03399" lon="5.71183">
        <ele>510</ele>
        <time>2000-01-01T03:16:07.000Z</time>
      </trkpt>
      <trkpt lat="45.0341" lon="5.71202">
        <ele>510.6</ele>
        <time>2000-01-01T03:16:17.000Z</time>
      </trkpt>
      <trkpt lat="45.03417" lon="5.71224">
        <ele>513</ele>
        <time>2000-01-01T03:16:27.000Z</time>
      </trkpt>
      <trkpt lat="45.03428" lon="5.71239">
        <ele>510.9</ele>
        <time>2000-01-01T03:16:37.000Z</time>
      </trkpt>
      <trkpt lat="45.03433" lon="5.71274">
        <ele>515</ele>
        <time>2000-01-01T03:16:47.000Z</time>
      </trkpt>
      <trkpt lat="45.03433" lon="5.71294">
        <ele>518.9</ele>
        <time>2000-01-01T03:16:57.000Z</time>
      </trkpt>
      <trkpt lat="45.03421" lon="5.71311">
        <ele>525</ele>
        <time>2000-01-01T03:17:07.000Z</time>
      </trkpt>
      <trkpt lat="45.03413" lon="5.71329">
        <ele>528.2</ele>
        <time>2000-01-01T03:17:17.000Z</time>
      </trkpt>
      <trkpt lat="45.03406" lon="5.71352">
        <ele>531</ele>
        <time>2000-01-01T03:17:27.000Z</time>
      </trkpt>
      <trkpt lat="45.03382" lon="5.7135">
        <ele>540</ele>
        <time>2000-01-01T03:17:37.000Z</time>
      </trkpt>
      <trkpt lat="45.03364" lon="5.71366">
        <ele>542</ele>
        <time>2000-01-01T03:17:47.000Z</time>
      </trkpt>
      <trkpt lat="45.03358" lon="5.7139">
        <ele>542.1</ele>
        <time>2000-01-01T03:17:57.000Z</time>
      </trkpt>
      <trkpt lat="45.03343" lon="5.71404">
        <ele>545</ele>
        <time>2000-01-01T03:18:07.000Z</time>
      </trkpt>
      <trkpt lat="45.03333" lon="5.71423">
        <ele>550.2</ele>
        <time>2000-01-01T03:18:17.000Z</time>
      </trkpt>
      <trkpt lat="45.03329" lon="5.71446">
        <ele>556</ele>
        <time>2000-01-01T03:18:27.000Z</time>
      </trkpt>
      <trkpt lat="45.03326" lon="5.71474">
        <ele>556</ele>
        <time>2000-01-01T03:18:37.000Z</time>
      </trkpt>
      <trkpt lat="45.03315" lon="5.71504">
        <ele>558</ele>
        <time>2000-01-01T03:18:47.000Z</time>
      </trkpt>
      <trkpt lat="45.03303" lon="5.71535">
        <ele>563</ele>
        <time>2000-01-01T03:18:57.000Z</time>
      </trkpt>
      <trkpt lat="45.03289" lon="5.71557">
        <ele>572</ele>
        <time>2000-01-01T03:19:07.000Z</time>
      </trkpt>
      <trkpt lat="45.03279" lon="5.71607">
        <ele>582</ele>
        <time>2000-01-01T03:19:17.000Z</time>
      </trkpt>
      <trkpt lat="45.03269" lon="5.71642">
        <ele>579</ele>
        <time>2000-01-01T03:19:27.000Z</time>
      </trkpt>
      <trkpt lat="45.03282" lon="5.71693">
        <ele>581</ele>
        <time>2000-01-01T03:19:37.000Z</time>
      </trkpt>
      <trkpt lat="45.03284" lon="5.71714">
        <ele>577.4</ele>
        <time>2000-01-01T03:19:47.000Z</time>
      </trkpt>
      <trkpt lat="45.03273" lon="5.71735">
        <ele>583</ele>
        <time>2000-01-01T03:19:57.000Z</time>
      </trkpt>
      <trkpt lat="45.03255" lon="5.71739">
        <ele>589.7</ele>
        <time>2000-01-01T03:20:07.000Z</time>
      </trkpt>
      <trkpt lat="45.03238" lon="5.71741">
        <ele>591</ele>
        <time>2000-01-01T03:20:17.000Z</time>
      </trkpt>
      <trkpt lat="45.0323" lon="5.71749">
        <ele>601.2</ele>
        <time>2000-01-01T03:20:27.000Z</time>
      </trkpt>
      <trkpt lat="45.03234" lon="5.71768">
        <ele>599</ele>
        <time>2000-01-01T03:20:37.000Z</time>
      </trkpt>
      <trkpt lat="45.03229" lon="5.7179">
        <ele>597.5</ele>
        <time>2000-01-01T03:20:47.000Z</time>
      </trkpt>
      <trkpt lat="45.03218" lon="5.71807">
        <ele>598</ele>
        <time>2000-01-01T03:20:57.000Z</time>
      </trkpt>
      <trkpt lat="45.03221" lon="5.71847">
        <ele>598</ele>
        <time>2000-01-01T03:21:07.000Z</time>
      </trkpt>
      <trkpt lat="45.03227" lon="5.71874">
        <ele>604</ele>
        <time>2000-01-01T03:21:17.000Z</time>
      </trkpt>
      <trkpt lat="45.03209" lon="5.71891">
        <ele>607</ele>
        <time>2000-01-01T03:21:27.000Z</time>
      </trkpt>
      <trkpt lat="45.03199" lon="5.71915">
        <ele>610</ele>
        <time>2000-01-01T03:21:37.000Z</time>
      </trkpt>
      <trkpt lat="45.03189" lon="5.71927">
        <ele>614.4</ele>
        <time>2000-01-01T03:21:47.000Z</time>
      </trkpt>
      <trkpt lat="45.03179" lon="5.71951">
        <ele>615</ele>
        <time>2000-01-01T03:21:57.000Z</time>
      </trkpt>
      <trkpt lat="45.0318" lon="5.71979">
        <ele>621</ele>
        <time>2000-01-01T03:22:07.000Z</time>
      </trkpt>
      <trkpt lat="45.0318" lon="5.72003">
        <ele>631.7</ele>
        <time>2000-01-01T03:22:17.000Z</time>
      </trkpt>
      <trkpt lat="45.03174" lon="5.72013">
        <ele>630</ele>
        <time>2000-01-01T03:22:27.000Z</time>
      </trkpt>
      <trkpt lat="45.03178" lon="5.72038">
        <ele>641.4</ele>
        <time>2000-01-01T03:22:37.000Z</time>
      </trkpt>
      <trkpt lat="45.03176" lon="5.72058">
        <ele>642</ele>
        <time>2000-01-01T03:22:47.000Z</time>
      </trkpt>
      <trkpt lat="45.03176" lon="5.72087">
        <ele>651</ele>
        <time>2000-01-01T03:22:57.000Z</time>
      </trkpt>
      <trkpt lat="45.03188" lon="5.72104">
        <ele>663.1</ele>
        <time>2000-01-01T03:23:07.000Z</time>
      </trkpt>
      <trkpt lat="45.03175" lon="5.72116">
        <ele>658</ele>
        <time>2000-01-01T03:23:17.000Z</time>
      </trkpt>
      <trkpt lat="45.0317" lon="5.72149">
        <ele>663</ele>
        <time>2000-01-01T03:23:27.000Z</time>
      </trkpt>
      <trkpt lat="45.03169" lon="5.72152">
        <ele>665.2</ele>
        <time>2000-01-01T03:23:37.000Z</time>
      </trkpt>
      <trkpt lat="45.03169" lon="5.72181">
        <ele>665</ele>
        <time>2000-01-01T03:23:47.000Z</time>
      </trkpt>
      <trkpt lat="45.03168" lon="5.72208">
        <ele>666</ele>
        <time>2000-01-01T03:23:57.000Z</time>
      </trkpt>
      <trkpt lat="45.03168" lon="5.72234">
        <ele>670.2</ele>
        <time>2000-01-01T03:24:07.000Z</time>
      </trkpt>
      <trkpt lat="45.03161" lon="5.72258">
        <ele>669</ele>
        <time>2000-01-01T03:24:17.000Z</time>
      </trkpt>
      <trkpt lat="45.0317" lon="5.72288">
        <ele>672</ele>
        <time>2000-01-01T03:24:27.000Z</time>
      </trkpt>
      <trkpt lat="45.03174" lon="5.72322">
        <ele>677</ele>
        <time>2000-01-01T03:24:37.000Z</time>
      </trkpt>
      <trkpt lat="45.03177" lon="5.72356">
        <ele>682</ele>
        <time>2000-01-01T03:24:47.000Z</time>
      </trkpt>
      <trkpt lat="45.03177" lon="5.72382">
        <ele>690.4</ele>
        <time>2000-01-01T03:24:57.000Z</time>
      </trkpt>
      <trkpt lat="45.03163" lon="5.72396">
        <ele>688</ele>
        <time>2000-01-01T03:25:07.000Z</time>
      </trkpt>
      <trkpt lat="45.03176" lon="5.72426">
        <ele>694</ele>
        <time>2000-01-01T03:25:17.000Z</time>
      </trkpt>
      <trkpt lat="45.03182" lon="5.72448">
        <ele>702.3</ele>
        <time>2000-01-01T03:25:27.000Z</time>
      </trkpt>
      <trkpt lat="45.0318" lon="5.72456">
        <ele>700</ele>
        <time>2000-01-01T03:25:37.000Z</time>
      </trkpt>
      <trkpt lat="45.03182" lon="5.72481">
        <ele>706.5</ele>
        <time>2000-01-01T03:25:47.000Z</time>
      </trkpt>
      <trkpt lat="45.0318" lon="5.72501">
        <ele>706</ele>
        <time>2000-01-01T03:25:57.000Z</time>
      </trkpt>
      <trkpt lat="45.03187" lon="5.72521">
        <ele>714</ele>
        <time>2000-01-01T03:26:07.000Z</time>
      </trkpt>
      <trkpt lat="45.03187" lon="5.7254">
        <ele>713</ele>
        <time>2000-01-01T03:26:17.000Z</time>
      </trkpt>
      <trkpt lat="45.03189" lon="5.72554">
        <ele>721.3</ele>
        <time>2000-01-01T03:26:27.000Z</time>
      </trkpt>
      <trkpt lat="45.03178" lon="5.72571">
        <ele>716</ele>
        <time>2000-01-01T03:26:37.000Z</time>
      </trkpt>
      <trkpt lat="45.03167" lon="5.72592">
        <ele>721.3</ele>
        <time>2000-01-01T03:26:47.000Z</time>
      </trkpt>
      <trkpt lat="45.03154" lon="5.72639">
        <ele>724</ele>
        <time>2000-01-01T03:26:57.000Z</time>
      </trkpt>
      <trkpt lat="45.03155" lon="5.72656">
        <ele>730.2</ele>
        <time>2000-01-01T03:27:07.000Z</time>
      </trkpt>
      <trkpt lat="45.03155" lon="5.72688">
        <ele>732</ele>
        <time>2000-01-01T03:27:17.000Z</time>
      </trkpt>
      <trkpt lat="45.03152" lon="5.72707">
        <ele>737.4</ele>
        <time>2000-01-01T03:27:27.000Z</time>
      </trkpt>
      <trkpt lat="45.03147" lon="5.72722">
        <ele>733</ele>
        <time>2000-01-01T03:27:37.000Z</time>
      </trkpt>
      <trkpt lat="45.03146" lon="5.72745">
        <ele>742.2</ele>
        <time>2000-01-01T03:27:47.000Z</time>
      </trkpt>
      <trkpt lat="45.03129" lon="5.72754">
        <ele>732</ele>
        <time>2000-01-01T03:27:57.000Z</time>
      </trkpt>
      <trkpt lat="45.03103" lon="5.72759">
        <ele>732</ele>
        <time>2000-01-01T03:28:07.000Z</time>
      </trkpt>
      <trkpt lat="45.03089" lon="5.72759">
        <ele>736.9</ele>
        <time>2000-01-01T03:28:17.000Z</time>
      </trkpt>
      <trkpt lat="45.03076" lon="5.72761">
        <ele>741</ele>
        <time>2000-01-01T03:28:27.000Z</time>
      </trkpt>
      <trkpt lat="45.03067" lon="5.72775">
        <ele>746.6</ele>
        <time>2000-01-01T03:28:37.000Z</time>
      </trkpt>
      <trkpt lat="45.03066" lon="5.72797">
        <ele>751</ele>
        <time>2000-01-01T03:28:47.000Z</time>
      </trkpt>
      <trkpt lat="45.03074" lon="5.72822">
        <ele>755</ele>
        <time>2000-01-01T03:28:57.000Z</time>
      </trkpt>
      <trkpt lat="45.03068" lon="5.72841">
        <ele>761.3</ele>
        <time>2000-01-01T03:29:07.000Z</time>
      </trkpt>
      <trkpt lat="45.03056" lon="5.72886">
        <ele>770</ele>
        <time>2000-01-01T03:29:17.000Z</time>
      </trkpt>
      <trkpt lat="45.03067" lon="5.72902">
        <ele>769.9</ele>
        <time>2000-01-01T03:29:27.000Z</time>
      </trkpt>
      <trkpt lat="45.03077" lon="5.72922">
        <ele>771</ele>
        <time>2000-01-01T03:29:37.000Z</time>
      </trkpt>
      <trkpt lat="45.03091" lon="5.72946">
        <ele>772</ele>
        <time>2000-01-01T03:29:47.000Z</time>
      </trkpt>
      <trkpt lat="45.03097" lon="5.72973">
        <ele>776</ele>
        <time>2000-01-01T03:29:57.000Z</time>
      </trkpt>
      <trkpt lat="45.03108" lon="5.72988">
        <ele>779.2</ele>
        <time>2000-01-01T03:30:07.000Z</time>
      </trkpt>
      <trkpt lat="45.03112" lon="5.72995">
        <ele>779</ele>
        <time>2000-01-01T03:30:17.000Z</time>
      </trkpt>
      <trkpt lat="45.03108" lon="5.73022">
        <ele>786</ele>
        <time>2000-01-01T03:30:27.000Z</time>
      </trkpt>
      <trkpt lat="45.03118" lon="5.73045">
        <ele>790</ele>
        <time>2000-01-01T03:30:37.000Z</time>
      </trkpt>
      <trkpt lat="45.03122" lon="5.73057">
        <ele>793.3</ele>
        <time>2000-01-01T03:30:47.000Z</time>
      </trkpt>
      <trkpt lat="45.03134" lon="5.73083">
        <ele>796</ele>
        <time>2000-01-01T03:30:57.000Z</time>
      </trkpt>
      <trkpt lat="45.03162" lon="5.73094">
        <ele>805</ele>
        <time>2000-01-01T03:31:07.000Z</time>
      </trkpt>
      <trkpt lat="45.03167" lon="5.73076">
        <ele>806.7</ele>
        <time>2000-01-01T03:31:17.000Z</time>
      </trkpt>
      <trkpt lat="45.03178" lon="5.73068">
        <ele>806</ele>
        <time>2000-01-01T03:31:27.000Z</time>
      </trkpt>
      <trkpt lat="45.03191" lon="5.73054">
        <ele>818.8</ele>
        <time>2000-01-01T03:31:37.000Z</time>
      </trkpt>
      <trkpt lat="45.032" lon="5.73056">
        <ele>812</ele>
        <time>2000-01-01T03:31:47.000Z</time>
      </trkpt>
      <trkpt lat="45.03209" lon="5.73065">
        <ele>830.8</ele>
        <time>2000-01-01T03:31:57.000Z</time>
      </trkpt>
      <trkpt lat="45.03199" lon="5.73081">
        <ele>819</ele>
        <time>2000-01-01T03:32:07.000Z</time>
      </trkpt>
      <trkpt lat="45.032" lon="5.73095">
        <ele>825.9</ele>
        <time>2000-01-01T03:32:17.000Z</time>
      </trkpt>
      <trkpt lat="45.03211" lon="5.73112">
        <ele>830</ele>
        <time>2000-01-01T03:32:27.000Z</time>
      </trkpt>
      <trkpt lat="45.03219" lon="5.73138">
        <ele>831</ele>
        <time>2000-01-01T03:32:37.000Z</time>
      </trkpt>
      <trkpt lat="45.03231" lon="5.73143">
        <ele>847.2</ele>
        <time>2000-01-01T03:32:47.000Z</time>
      </trkpt>
      <trkpt lat="45.03239" lon="5.73152">
        <ele>846</ele>
        <time>2000-01-01T03:32:57.000Z</time>
      </trkpt>
      <trkpt lat="45.03243" lon="5.73173">
        <ele>856.3</ele>
        <time>2000-01-01T03:33:07.000Z</time>
      </trkpt>
      <trkpt lat="45.0325" lon="5.73188">
        <ele>852</ele>
        <time>2000-01-01T03:33:17.000Z</time>
      </trkpt>
      <trkpt lat="45.03259" lon="5.73199">
        <ele>867.3</ele>
        <time>2000-01-01T03:33:27.000Z</time>
      </trkpt>
      <trkpt lat="45.03266" lon="5.73222">
        <ele>868</ele>
        <time>2000-01-01T03:33:37.000Z</time>
      </trkpt>
      <trkpt lat="45.03271" lon="5.73246">
        <ele>877.4</ele>
        <time>2000-01-01T03:33:47.000Z</time>
      </trkpt>
      <trkpt lat="45.03271" lon="5.73261">
        <ele>875</ele>
        <time>2000-01-01T03:33:57.000Z</time>
      </trkpt>
      <trkpt lat="45.03279" lon="5.73308">
        <ele>877</ele>
        <time>2000-01-01T03:34:07.000Z</time>
      </trkpt>
      <trkpt lat="45.03289" lon="5.73323">
        <ele>888</ele>
        <time>2000-01-01T03:34:17.000Z</time>
      </trkpt>
      <trkpt lat="45.03309" lon="5.73347">
        <ele>890</ele>
        <time>2000-01-01T03:34:27.000Z</time>
      </trkpt>
      <trkpt lat="45.03326" lon="5.73354">
        <ele>903.5</ele>
        <time>2000-01-01T03:34:37.000Z</time>
      </trkpt>
      <trkpt lat="45.03337" lon="5.73361">
        <ele>903</ele>
        <time>2000-01-01T03:34:47.000Z</time>
      </trkpt>
      <trkpt lat="45.03345" lon="5.73379">
        <ele>910.7</ele>
        <time>2000-01-01T03:34:57.000Z</time>
      </trkpt>
      <trkpt lat="45.0336" lon="5.73388">
        <ele>908</ele>
        <time>2000-01-01T03:35:07.000Z</time>
      </trkpt>
      <trkpt lat="45.03367" lon="5.73396">
        <ele>922</ele>
        <time>2000-01-01T03:35:17.000Z</time>
      </trkpt>
      <trkpt lat="45.03369" lon="5.73411">
        <ele>913</ele>
        <time>2000-01-01T03:35:27.000Z</time>
      </trkpt>
      <trkpt lat="45.03374" lon="5.73418">
        <ele>923.7</ele>
        <time>2000-01-01T03:35:37.000Z</time>
      </trkpt>
      <trkpt lat="45.03383" lon="5.73428">
        <ele>928.9</ele>
        <time>2000-01-01T03:35:47.000Z</time>
      </trkpt>
      <trkpt lat="45.03389" lon="5.73447">
        <ele>925</ele>
        <time>2000-01-01T03:35:57.000Z</time>
      </trkpt>
      <trkpt lat="45.03395" lon="5.7346">
        <ele>933.9</ele>
        <time>2000-01-01T03:36:07.000Z</time>
      </trkpt>
      <trkpt lat="45.03406" lon="5.73471">
        <ele>936</ele>
        <time>2000-01-01T03:36:17.000Z</time>
      </trkpt>
      <trkpt lat="45.03413" lon="5.7348">
        <ele>943.9</ele>
        <time>2000-01-01T03:36:27.000Z</time>
      </trkpt>
      <trkpt lat="45.0342" lon="5.73485">
        <ele>947.7</ele>
        <time>2000-01-01T03:36:37.000Z</time>
      </trkpt>
      <trkpt lat="45.0342" lon="5.73493">
        <ele>946</ele>
        <time>2000-01-01T03:36:47.000Z</time>
      </trkpt>
      <trkpt lat="45.03426" lon="5.73504">
        <ele>949.6</ele>
        <time>2000-01-01T03:36:57.000Z</time>
      </trkpt>
      <trkpt lat="45.03443" lon="5.73507">
        <ele>958</ele>
        <time>2000-01-01T03:37:07.000Z</time>
      </trkpt>
      <trkpt lat="45.03444" lon="5.73522">
        <ele>958.4</ele>
        <time>2000-01-01T03:37:17.000Z</time>
      </trkpt>
      <trkpt lat="45.03459" lon="5.73539">
        <ele>960</ele>
        <time>2000-01-01T03:37:27.000Z</time>
      </trkpt>
      <trkpt lat="45.03466" lon="5.73552">
        <ele>968.2</ele>
        <time>2000-01-01T03:37:37.000Z</time>
      </trkpt>
      <trkpt lat="45.0347" lon="5.73578">
        <ele>964</ele>
        <time>2000-01-01T03:37:47.000Z</time>
      </trkpt>
      <trkpt lat="45.03479" lon="5.73586">
        <ele>971.3</ele>
        <time>2000-01-01T03:37:57.000Z</time>
      </trkpt>
      <trkpt lat="45.03485" lon="5.73614">
        <ele>969</ele>
        <time>2000-01-01T03:38:07.000Z</time>
      </trkpt>
      <trkpt lat="45.03502" lon="5.73623">
        <ele>979.5</ele>
        <time>2000-01-01T03:38:17.000Z</time>
      </trkpt>
      <trkpt lat="45.03504" lon="5.73642">
        <ele>977</ele>
        <time>2000-01-01T03:38:27.000Z</time>
      </trkpt>
      <trkpt lat="45.03509" lon="5.73642">
        <ele>981.8</ele>
        <time>2000-01-01T03:38:37.000Z</time>
      </trkpt>
      <trkpt lat="45.03508" lon="5.73653">
        <ele>981.2</ele>
        <time>2000-01-01T03:38:47.000Z</time>
      </trkpt>
      <trkpt lat="45.03526" lon="5.73675">
        <ele>985</ele>
        <time>2000-01-01T03:38:57.000Z</time>
      </trkpt>
      <trkpt lat="45.03534" lon="5.73693">
        <ele>990.9</ele>
        <time>2000-01-01T03:39:07.000Z</time>
      </trkpt>
      <trkpt lat="45.03546" lon="5.73703">
        <ele>992</ele>
        <time>2000-01-01T03:39:17.000Z</time>
      </trkpt>
      <trkpt lat="45.03552" lon="5.73724">
        <ele>999.8</ele>
        <time>2000-01-01T03:39:27.000Z</time>
      </trkpt>
      <trkpt lat="45.03565" lon="5.73746">
        <ele>1003</ele>
        <time>2000-01-01T03:39:37.000Z</time>
      </trkpt>
      <trkpt lat="45.03577" lon="5.73764">
        <ele>1013.5</ele>
        <time>2000-01-01T03:39:47.000Z</time>
      </trkpt>
      <trkpt lat="45.03581" lon="5.73778">
        <ele>1015</ele>
        <time>2000-01-01T03:39:57.000Z</time>
      </trkpt>
      <trkpt lat="45.03582" lon="5.73801">
        <ele>1018.2</ele>
        <time>2000-01-01T03:40:07.000Z</time>
      </trkpt>
      <trkpt lat="45.03574" lon="5.7383">
        <ele>1016</ele>
        <time>2000-01-01T03:40:17.000Z</time>
      </trkpt>
      <trkpt lat="45.03594" lon="5.73831">
        <ele>1024</ele>
        <time>2000-01-01T03:40:27.000Z</time>
      </trkpt>
      <trkpt lat="45.03606" lon="5.73836">
        <ele>1033.5</ele>
        <time>2000-01-01T03:40:37.000Z</time>
      </trkpt>
      <trkpt lat="45.0362" lon="5.73866">
        <ele>1042</ele>
        <time>2000-01-01T03:40:47.000Z</time>
      </trkpt>
      <trkpt lat="45.03627" lon="5.73873">
        <ele>1048.1</ele>
        <time>2000-01-01T03:40:57.000Z</time>
      </trkpt>
      <trkpt lat="45.03629" lon="5.73896">
        <ele>1044</ele>
        <time>2000-01-01T03:41:07.000Z</time>
      </trkpt>
      <trkpt lat="45.03645" lon="5.73899">
        <ele>1059.2</ele>
        <time>2000-01-01T03:41:17.000Z</time>
      </trkpt>
      <trkpt lat="45.03654" lon="5.73904">
        <ele>1052</ele>
        <time>2000-01-01T03:41:27.000Z</time>
      </trkpt>
      <trkpt lat="45.03659" lon="5.73912">
        <ele>1067.7</ele>
        <time>2000-01-01T03:41:37.000Z</time>
      </trkpt>
      <trkpt lat="45.03659" lon="5.7393">
        <ele>1061</ele>
        <time>2000-01-01T03:41:47.000Z</time>
      </trkpt>
      <trkpt lat="45.03673" lon="5.73926">
        <ele>1075.5</ele>
        <time>2000-01-01T03:41:57.000Z</time>
      </trkpt>
      <trkpt lat="45.03672" lon="5.73936">
        <ele>1074</ele>
        <time>2000-01-01T03:42:07.000Z</time>
      </trkpt>
      <trkpt lat="45.03693" lon="5.7395">
        <ele>1084</ele>
        <time>2000-01-01T03:42:17.000Z</time>
      </trkpt>
      <trkpt lat="45.03702" lon="5.73965">
        <ele>1089.7</ele>
        <time>2000-01-01T03:42:27.000Z</time>
      </trkpt>
      <trkpt lat="45.03708" lon="5.73979">
        <ele>1089</ele>
        <time>2000-01-01T03:42:37.000Z</time>
      </trkpt>
      <trkpt lat="45.03712" lon="5.73986">
        <ele>1093.4</ele>
        <time>2000-01-01T03:42:47.000Z</time>
      </trkpt>
      <trkpt lat="45.03741" lon="5.73995">
        <ele>1107</ele>
        <time>2000-01-01T03:42:57.000Z</time>
      </trkpt>
      <trkpt lat="45.03753" lon="5.74006">
        <ele>1111.9</ele>
        <time>2000-01-01T03:43:07.000Z</time>
      </trkpt>
      <trkpt lat="45.03761" lon="5.7401">
        <ele>1117</ele>
        <time>2000-01-01T03:43:17.000Z</time>
      </trkpt>
      <trkpt lat="45.03766" lon="5.74027">
        <ele>1116.2</ele>
        <time>2000-01-01T03:43:27.000Z</time>
      </trkpt>
      <trkpt lat="45.03771" lon="5.74039">
        <ele>1117</ele>
        <time>2000-01-01T03:43:37.000Z</time>
      </trkpt>
      <trkpt lat="45.03773" lon="5.74066">
        <ele>1119</ele>
        <time>2000-01-01T03:43:47.000Z</time>
      </trkpt>
      <trkpt lat="45.03778" lon="5.74067">
        <ele>1117.5</ele>
        <time>2000-01-01T03:43:57.000Z</time>
      </trkpt>
      <trkpt lat="45.03793" lon="5.74095">
        <ele>1121</ele>
        <time>2000-01-01T03:44:07.000Z</time>
      </trkpt>
      <trkpt lat="45.03806" lon="5.74115">
        <ele>1124</ele>
        <time>2000-01-01T03:44:17.000Z</time>
      </trkpt>
      <trkpt lat="45.03829" lon="5.74142">
        <ele>1124</ele>
        <time>2000-01-01T03:44:27.000Z</time>
      </trkpt>
      <trkpt lat="45.03824" lon="5.74171">
        <ele>1122</ele>
        <time>2000-01-01T03:44:37.000Z</time>
      </trkpt>
      <trkpt lat="45.03829" lon="5.74196">
        <ele>1126.2</ele>
        <time>2000-01-01T03:44:47.000Z</time>
      </trkpt>
      <trkpt lat="45.03822" lon="5.74232">
        <ele>1122</ele>
        <time>2000-01-01T03:44:57.000Z</time>
      </trkpt>
      <trkpt lat="45.03826" lon="5.74263">
        <ele>1123</ele>
        <time>2000-01-01T03:45:07.000Z</time>
      </trkpt>
      <trkpt lat="45.03839" lon="5.74294">
        <ele>1127</ele>
        <time>2000-01-01T03:45:17.000Z</time>
      </trkpt>
      <trkpt lat="45.03859" lon="5.74326">
        <ele>1133</ele>
        <time>2000-01-01T03:45:27.000Z</time>
      </trkpt>
      <trkpt lat="45.03867" lon="5.74357">
        <ele>1137</ele>
        <time>2000-01-01T03:45:37.000Z</time>
      </trkpt>
      <trkpt lat="45.03873" lon="5.74384">
        <ele>1140</ele>
        <time>2000-01-01T03:45:47.000Z</time>
      </trkpt>
      <trkpt lat="45.03884" lon="5.7441">
        <ele>1142</ele>
        <time>2000-01-01T03:45:57.000Z</time>
      </trkpt>
      <trkpt lat="45.03903" lon="5.74423">
        <ele>1144</ele>
        <time>2000-01-01T03:46:07.000Z</time>
      </trkpt>
      <trkpt lat="45.03916" lon="5.74443">
        <ele>1146</ele>
        <time>2000-01-01T03:46:17.000Z</time>
      </trkpt>
      <trkpt lat="45.03922" lon="5.74482">
        <ele>1147</ele>
        <time>2000-01-01T03:46:27.000Z</time>
      </trkpt>
      <trkpt lat="45.03933" lon="5.74507">
        <ele>1149</ele>
        <time>2000-01-01T03:46:37.000Z</time>
      </trkpt>
      <trkpt lat="45.03944" lon="5.74518">
        <ele>1152</ele>
        <time>2000-01-01T03:46:47.000Z</time>
      </trkpt>
      <trkpt lat="45.03947" lon="5.74528">
        <ele>1151</ele>
        <time>2000-01-01T03:46:57.000Z</time>
      </trkpt>
      <trkpt lat="45.03966" lon="5.74552">
        <ele>1155</ele>
        <time>2000-01-01T03:47:07.000Z</time>
      </trkpt>
      <trkpt lat="45.0399" lon="5.74582">
        <ele>1157</ele>
        <time>2000-01-01T03:47:17.000Z</time>
      </trkpt>
      <trkpt lat="45.04005" lon="5.74613">
        <ele>1157</ele>
        <time>2000-01-01T03:47:27.000Z</time>
      </trkpt>
      <trkpt lat="45.04025" lon="5.74647">
        <ele>1157</ele>
        <time>2000-01-01T03:47:37.000Z</time>
      </trkpt>
      <trkpt lat="45.04043" lon="5.74671">
        <ele>1159</ele>
        <time>2000-01-01T03:47:47.000Z</time>
      </trkpt>
      <trkpt lat="45.04059" lon="5.74717">
        <ele>1162</ele>
        <time>2000-01-01T03:47:57.000Z</time>
      </trkpt>
      <trkpt lat="45.0408" lon="5.74763">
        <ele>1165</ele>
        <time>2000-01-01T03:48:07.000Z</time>
      </trkpt>
      <trkpt lat="45.04097" lon="5.74813">
        <ele>1167</ele>
        <time>2000-01-01T03:48:17.000Z</time>
      </trkpt>
      <trkpt lat="45.04117" lon="5.74855">
        <ele>1167</ele>
        <time>2000-01-01T03:48:27.000Z</time>
      </trkpt>
      <trkpt lat="45.04137" lon="5.74895">
        <ele>1168</ele>
        <time>2000-01-01T03:48:37.000Z</time>
      </trkpt>
      <trkpt lat="45.04134" lon="5.74958">
        <ele>1170</ele>
        <time>2000-01-01T03:48:47.000Z</time>
      </trkpt>
      <trkpt lat="45.04135" lon="5.75005">
        <ele>1171</ele>
        <time>2000-01-01T03:48:57.000Z</time>
      </trkpt>
      <trkpt lat="45.0414" lon="5.75046">
        <ele>1173</ele>
        <time>2000-01-01T03:49:07.000Z</time>
      </trkpt>
      <trkpt lat="45.04133" lon="5.75085">
        <ele>1174</ele>
        <time>2000-01-01T03:49:17.000Z</time>
      </trkpt>
      <trkpt lat="45.04123" lon="5.75145">
        <ele>1179</ele>
        <time>2000-01-01T03:49:27.000Z</time>
      </trkpt>
      <trkpt lat="45.04112" lon="5.75182">
        <ele>1184</ele>
        <time>2000-01-01T03:49:37.000Z</time>
      </trkpt>
      <trkpt lat="45.04097" lon="5.75235">
        <ele>1186</ele>
        <time>2000-01-01T03:49:47.000Z</time>
      </trkpt>
      <trkpt lat="45.04086" lon="5.75276">
        <ele>1186</ele>
        <time>2000-01-01T03:49:57.000Z</time>
      </trkpt>
      <trkpt lat="45.04071" lon="5.75324">
        <ele>1182</ele>
        <time>2000-01-01T03:50:07.000Z</time>
      </trkpt>
      <trkpt lat="45.0405" lon="5.75373">
        <ele>1180</ele>
        <time>2000-01-01T03:50:17.000Z</time>
      </trkpt>
      <trkpt lat="45.04034" lon="5.75427">
        <ele>1173</ele>
        <time>2000-01-01T03:50:27.000Z</time>
      </trkpt>
      <trkpt lat="45.04013" lon="5.75472">
        <ele>1168</ele>
        <time>2000-01-01T03:50:37.000Z</time>
      </trkpt>
      <trkpt lat="45.03997" lon="5.75535">
        <ele>1164</ele>
        <time>2000-01-01T03:50:47.000Z</time>
      </trkpt>
      <trkpt lat="45.0399" lon="5.75568">
        <ele>1158</ele>
        <time>2000-01-01T03:50:57.000Z</time>
      </trkpt>
      <trkpt lat="45.03983" lon="5.75601">
        <ele>1158</ele>
        <time>2000-01-01T03:51:07.000Z</time>
      </trkpt>
      <trkpt lat="45.03967" lon="5.75642">
        <ele>1152</ele>
        <time>2000-01-01T03:51:17.000Z</time>
      </trkpt>
      <trkpt lat="45.03959" lon="5.75692">
        <ele>1146</ele>
        <time>2000-01-01T03:51:27.000Z</time>
      </trkpt>
      <trkpt lat="45.0396" lon="5.75731">
        <ele>1134</ele>
        <time>2000-01-01T03:51:37.000Z</time>
      </trkpt>
      <trkpt lat="45.03934" lon="5.75753">
        <ele>1134</ele>
        <time>2000-01-01T03:51:47.000Z</time>
      </trkpt>
      <trkpt lat="45.03902" lon="5.75785">
        <ele>1125</ele>
        <time>2000-01-01T03:51:57.000Z</time>
      </trkpt>
      <trkpt lat="45.03874" lon="5.75809">
        <ele>1116</ele>
        <time>2000-01-01T03:52:07.000Z</time>
      </trkpt>
      <trkpt lat="45.03837" lon="5.75818">
        <ele>1113</ele>
        <time>2000-01-01T03:52:17.000Z</time>
      </trkpt>
      <trkpt lat="45.038" lon="5.7585">
        <ele>1103</ele>
        <time>2000-01-01T03:52:27.000Z</time>
      </trkpt>
      <trkpt lat="45.03767" lon="5.75869">
        <ele>1096</ele>
        <time>2000-01-01T03:52:37.000Z</time>
      </trkpt>
      <trkpt lat="45.03731" lon="5.75886">
        <ele>1091</ele>
        <time>2000-01-01T03:52:47.000Z</time>
      </trkpt>
      <trkpt lat="45.03688" lon="5.75911">
        <ele>1084</ele>
        <time>2000-01-01T03:52:57.000Z</time>
      </trkpt>
      <trkpt lat="45.0365" lon="5.75924">
        <ele>1081</ele>
        <time>2000-01-01T03:53:07.000Z</time>
      </trkpt>
      <trkpt lat="45.03609" lon="5.75944">
        <ele>1079</ele>
        <time>2000-01-01T03:53:17.000Z</time>
      </trkpt>
      <trkpt lat="45.03571" lon="5.75949">
        <ele>1077</ele>
        <time>2000-01-01T03:53:27.000Z</time>
      </trkpt>
      <trkpt lat="45.03539" lon="5.75958">
        <ele>1074</ele>
        <time>2000-01-01T03:53:37.000Z</time>
      </trkpt>
      <trkpt lat="45.035" lon="5.7597">
        <ele>1072</ele>
        <time>2000-01-01T03:53:47.000Z</time>
      </trkpt>
      <trkpt lat="45.0346" lon="5.75977">
        <ele>1072</ele>
        <time>2000-01-01T03:53:57.000Z</time>
      </trkpt>
      <trkpt lat="45.03422" lon="5.75979">
        <ele>1071</ele>
        <time>2000-01-01T03:54:07.000Z</time>
      </trkpt>
      <trkpt lat="45.03387" lon="5.75986">
        <ele>1071</ele>
        <time>2000-01-01T03:54:17.000Z</time>
      </trkpt>
      <trkpt lat="45.03342" lon="5.75988">
        <ele>1071</ele>
        <time>2000-01-01T03:54:27.000Z</time>
      </trkpt>
      <trkpt lat="45.03307" lon="5.75992">
        <ele>1069</ele>
        <time>2000-01-01T03:54:37.000Z</time>
      </trkpt>
      <trkpt lat="45.03269" lon="5.76005">
        <ele>1069</ele>
        <time>2000-01-01T03:54:47.000Z</time>
      </trkpt>
      <trkpt lat="45.03223" lon="5.76009">
        <ele>1069</ele>
        <time>2000-01-01T03:54:57.000Z</time>
      </trkpt>
      <trkpt lat="45.03186" lon="5.76005">
        <ele>1067</ele>
        <time>2000-01-01T03:55:07.000Z</time>
      </trkpt>
      <trkpt lat="45.03161" lon="5.76013">
        <ele>1066</ele>
        <time>2000-01-01T03:55:17.000Z</time>
      </trkpt>
      <trkpt lat="45.03133" lon="5.76023">
        <ele>1064</ele>
        <time>2000-01-01T03:55:27.000Z</time>
      </trkpt>
      <trkpt lat="45.03101" lon="5.76024">
        <ele>1064</ele>
        <time>2000-01-01T03:55:37.000Z</time>
      </trkpt>
      <trkpt lat="45.03062" lon="5.76022">
        <ele>1064</ele>
        <time>2000-01-01T03:55:47.000Z</time>
      </trkpt>
      <trkpt lat="45.03026" lon="5.76018">
        <ele>1064</ele>
        <time>2000-01-01T03:55:57.000Z</time>
      </trkpt>
      <trkpt lat="45.0299" lon="5.76016">
        <ele>1065</ele>
        <time>2000-01-01T03:56:07.000Z</time>
      </trkpt>
      <trkpt lat="45.02951" lon="5.76009">
        <ele>1065</ele>
        <time>2000-01-01T03:56:17.000Z</time>
      </trkpt>
      <trkpt lat="45.02922" lon="5.76">
        <ele>1063</ele>
        <time>2000-01-01T03:56:27.000Z</time>
      </trkpt>
      <trkpt lat="45.02874" lon="5.75985">
        <ele>1062</ele>
        <time>2000-01-01T03:56:37.000Z</time>
      </trkpt>
      <trkpt lat="45.02839" lon="5.76001">
        <ele>1062</ele>
        <time>2000-01-01T03:56:47.000Z</time>
      </trkpt>
      <trkpt lat="45.02812" lon="5.76034">
        <ele>1063</ele>
        <time>2000-01-01T03:56:57.000Z</time>
      </trkpt>
      <trkpt lat="45.028" lon="5.76071">
        <ele>1058</ele>
        <time>2000-01-01T03:57:07.000Z</time>
      </trkpt>
      <trkpt lat="45.02828" lon="5.76106">
        <ele>1054</ele>
        <time>2000-01-01T03:57:17.000Z</time>
      </trkpt>
      <trkpt lat="45.02812" lon="5.76149">
        <ele>1051</ele>
        <time>2000-01-01T03:57:27.000Z</time>
      </trkpt>
      <trkpt lat="45.02779" lon="5.76189">
        <ele>1042</ele>
        <time>2000-01-01T03:57:37.000Z</time>
      </trkpt>
      <trkpt lat="45.02743" lon="5.76209">
        <ele>1036</ele>
        <time>2000-01-01T03:57:47.000Z</time>
      </trkpt>
      <trkpt lat="45.02706" lon="5.76236">
        <ele>1027</ele>
        <time>2000-01-01T03:57:57.000Z</time>
      </trkpt>
      <trkpt lat="45.02679" lon="5.76265">
        <ele>1019</ele>
        <time>2000-01-01T03:58:07.000Z</time>
      </trkpt>
      <trkpt lat="45.02658" lon="5.76297">
        <ele>1013</ele>
        <time>2000-01-01T03:58:17.000Z</time>
      </trkpt>
      <trkpt lat="45.02626" lon="5.76328">
        <ele>1006</ele>
        <time>2000-01-01T03:58:27.000Z</time>
      </trkpt>
      <trkpt lat="45.02594" lon="5.7635">
        <ele>1000</ele>
        <time>2000-01-01T03:58:37.000Z</time>
      </trkpt>
      <trkpt lat="45.02564" lon="5.76389">
        <ele>990</ele>
        <time>2000-01-01T03:58:47.000Z</time>
      </trkpt>
      <trkpt lat="45.02549" lon="5.76433">
        <ele>980</ele>
        <time>2000-01-01T03:58:57.000Z</time>
      </trkpt>
      <trkpt lat="45.02537" lon="5.76494">
        <ele>971</ele>
        <time>2000-01-01T03:59:07.000Z</time>
      </trkpt>
      <trkpt lat="45.02519" lon="5.76536">
        <ele>965</ele>
        <time>2000-01-01T03:59:17.000Z</time>
      </trkpt>
      <trkpt lat="45.02496" lon="5.76586">
        <ele>960</ele>
        <time>2000-01-01T03:59:27.000Z</time>
      </trkpt>
      <trkpt lat="45.02521" lon="5.76611">
        <ele>957</ele>
        <time>2000-01-01T03:59:37.000Z</time>
      </trkpt>
      <trkpt lat="45.02557" lon="5.76625">
        <ele>955</ele>
        <time>2000-01-01T03:59:47.000Z</time>
      </trkpt>
      <trkpt lat="45.026" lon="5.76634">
        <ele>954</ele>
        <time>2000-01-01T03:59:57.000Z</time>
      </trkpt>
      <trkpt lat="45.02638" lon="5.76664">
        <ele>952</ele>
        <time>2000-01-01T04:00:07.000Z</time>
      </trkpt>
      <trkpt lat="45.02672" lon="5.76685">
        <ele>948</ele>
        <time>2000-01-01T04:00:17.000Z</time>
      </trkpt>
      <trkpt lat="45.02712" lon="5.76695">
        <ele>942</ele>
        <time>2000-01-01T04:00:27.000Z</time>
      </trkpt>
      <trkpt lat="45.02748" lon="5.76696">
        <ele>937</ele>
        <time>2000-01-01T04:00:37.000Z</time>
      </trkpt>
      <trkpt lat="45.02793" lon="5.76694">
        <ele>928</ele>
        <time>2000-01-01T04:00:47.000Z</time>
      </trkpt>
      <trkpt lat="45.02834" lon="5.76715">
        <ele>922</ele>
        <time>2000-01-01T04:00:57.000Z</time>
      </trkpt>
      <trkpt lat="45.02877" lon="5.76736">
        <ele>919</ele>
        <time>2000-01-01T04:01:07.000Z</time>
      </trkpt>
      <trkpt lat="45.0287" lon="5.7677">
        <ele>916</ele>
        <time>2000-01-01T04:01:17.000Z</time>
      </trkpt>
      <trkpt lat="45.02862" lon="5.76809">
        <ele>917</ele>
        <time>2000-01-01T04:01:27.000Z</time>
      </trkpt>
      <trkpt lat="45.0284" lon="5.76846">
        <ele>919</ele>
        <time>2000-01-01T04:01:37.000Z</time>
      </trkpt>
      <trkpt lat="45.02816" lon="5.76869">
        <ele>922</ele>
        <time>2000-01-01T04:01:47.000Z</time>
      </trkpt>
      <trkpt lat="45.02792" lon="5.7689">
        <ele>925</ele>
        <time>2000-01-01T04:01:57.000Z</time>
      </trkpt>
      <trkpt lat="45.02779" lon="5.76907">
        <ele>927.8</ele>
        <time>2000-01-01T04:02:07.000Z</time>
      </trkpt>
      <trkpt lat="45.02765" lon="5.76953">
        <ele>929</ele>
        <time>2000-01-01T04:02:17.000Z</time>
      </trkpt>
      <trkpt lat="45.0274" lon="5.76987">
        <ele>929</ele>
        <time>2000-01-01T04:02:27.000Z</time>
      </trkpt>
      <trkpt lat="45.02707" lon="5.77012">
        <ele>928</ele>
        <time>2000-01-01T04:02:37.000Z</time>
      </trkpt>
      <trkpt lat="45.02687" lon="5.77031">
        <ele>928</ele>
        <time>2000-01-01T04:02:47.000Z</time>
      </trkpt>
      <trkpt lat="45.02665" lon="5.77051">
        <ele>925</ele>
        <time>2000-01-01T04:02:57.000Z</time>
      </trkpt>
      <trkpt lat="45.02626" lon="5.77073">
        <ele>922</ele>
        <time>2000-01-01T04:03:07.000Z</time>
      </trkpt>
      <trkpt lat="45.0261" lon="5.77126">
        <ele>919</ele>
        <time>2000-01-01T04:03:17.000Z</time>
      </trkpt>
      <trkpt lat="45.02601" lon="5.77191">
        <ele>916</ele>
        <time>2000-01-01T04:03:27.000Z</time>
      </trkpt>
      <trkpt lat="45.02568" lon="5.77236">
        <ele>916</ele>
        <time>2000-01-01T04:03:37.000Z</time>
      </trkpt>
      <trkpt lat="45.02535" lon="5.77265">
        <ele>913</ele>
        <time>2000-01-01T04:03:47.000Z</time>
      </trkpt>
      <trkpt lat="45.02508" lon="5.77296">
        <ele>911</ele>
        <time>2000-01-01T04:03:57.000Z</time>
      </trkpt>
      <trkpt lat="45.02464" lon="5.77314">
        <ele>911</ele>
        <time>2000-01-01T04:04:07.000Z</time>
      </trkpt>
      <trkpt lat="45.02429" lon="5.77324">
        <ele>911</ele>
        <time>2000-01-01T04:04:17.000Z</time>
      </trkpt>
      <trkpt lat="45.02392" lon="5.77337">
        <ele>912</ele>
        <time>2000-01-01T04:04:27.000Z</time>
      </trkpt>
      <trkpt lat="45.02363" lon="5.77344">
        <ele>913</ele>
        <time>2000-01-01T04:04:37.000Z</time>
      </trkpt>
      <trkpt lat="45.0233" lon="5.77366">
        <ele>913</ele>
        <time>2000-01-01T04:04:47.000Z</time>
      </trkpt>
      <trkpt lat="45.02306" lon="5.77381">
        <ele>913</ele>
        <time>2000-01-01T04:04:57.000Z</time>
      </trkpt>
      <trkpt lat="45.02279" lon="5.77398">
        <ele>914</ele>
        <time>2000-01-01T04:05:07.000Z</time>
      </trkpt>
      <trkpt lat="45.02255" lon="5.77409">
        <ele>914</ele>
        <time>2000-01-01T04:05:17.000Z</time>
      </trkpt>
      <trkpt lat="45.02226" lon="5.77422">
        <ele>914</ele>
        <time>2000-01-01T04:05:27.000Z</time>
      </trkpt>
      <trkpt lat="45.02194" lon="5.77439">
        <ele>914</ele>
        <time>2000-01-01T04:05:37.000Z</time>
      </trkpt>
      <trkpt lat="45.02162" lon="5.77455">
        <ele>914</ele>
        <time>2000-01-01T04:05:47.000Z</time>
      </trkpt>
      <trkpt lat="45.02112" lon="5.77481">
        <ele>914</ele>
        <time>2000-01-01T04:05:57.000Z</time>
      </trkpt>
      <trkpt lat="45.02071" lon="5.77497">
        <ele>913</ele>
        <time>2000-01-01T04:06:07.000Z</time>
      </trkpt>
      <trkpt lat="45.02077" lon="5.77549">
        <ele>912</ele>
        <time>2000-01-01T04:06:17.000Z</time>
      </trkpt>
      <trkpt lat="45.02083" lon="5.77601">
        <ele>910</ele>
        <time>2000-01-01T04:06:27.000Z</time>
      </trkpt>
      <trkpt lat="45.02089" lon="5.77652">
        <ele>909</ele>
        <time>2000-01-01T04:06:37.000Z</time>
      </trkpt>
      <trkpt lat="45.02098" lon="5.77732">
        <ele>907</ele>
        <time>2000-01-01T04:06:47.000Z</time>
      </trkpt>
      <trkpt lat="45.02116" lon="5.77744">
        <ele>907</ele>
        <time>2000-01-01T04:06:57.000Z</time>
      </trkpt>
      <trkpt lat="45.02142" lon="5.77759">
        <ele>908</ele>
        <time>2000-01-01T04:07:07.000Z</time>
      </trkpt>
      <trkpt lat="45.02182" lon="5.77781">
        <ele>908</ele>
        <time>2000-01-01T04:07:17.000Z</time>
      </trkpt>
      <trkpt lat="45.02181" lon="5.7783">
        <ele>907</ele>
        <time>2000-01-01T04:07:27.000Z</time>
      </trkpt>
      <trkpt lat="45.02207" lon="5.77865">
        <ele>907</ele>
        <time>2000-01-01T04:07:37.000Z</time>
      </trkpt>
      <trkpt lat="45.02233" lon="5.77899">
        <ele>906</ele>
        <time>2000-01-01T04:07:47.000Z</time>
      </trkpt>
      <trkpt lat="45.02259" lon="5.77934">
        <ele>906</ele>
        <time>2000-01-01T04:07:57.000Z</time>
      </trkpt>
      <trkpt lat="45.02286" lon="5.77969">
        <ele>908</ele>
        <time>2000-01-01T04:08:07.000Z</time>
      </trkpt>
      <trkpt lat="45.02313" lon="5.78003">
        <ele>908</ele>
        <time>2000-01-01T04:08:17.000Z</time>
      </trkpt>
      <trkpt lat="45.02339" lon="5.78037">
        <ele>908</ele>
        <time>2000-01-01T04:08:27.000Z</time>
      </trkpt>
      <trkpt lat="45.02366" lon="5.78071">
        <ele>909</ele>
        <time>2000-01-01T04:08:37.000Z</time>
      </trkpt>
      <trkpt lat="45.02395" lon="5.78108">
        <ele>909</ele>
        <time>2000-01-01T04:08:47.000Z</time>
      </trkpt>
      <trkpt lat="45.02404" lon="5.78144">
        <ele>910</ele>
        <time>2000-01-01T04:08:57.000Z</time>
      </trkpt>
      <trkpt lat="45.02417" lon="5.78192">
        <ele>911</ele>
        <time>2000-01-01T04:09:07.000Z</time>
      </trkpt>
      <trkpt lat="45.02392" lon="5.78246">
        <ele>913</ele>
        <time>2000-01-01T04:09:17.000Z</time>
      </trkpt>
      <trkpt lat="45.02376" lon="5.78272">
        <ele>914</ele>
        <time>2000-01-01T04:09:27.000Z</time>
      </trkpt>
      <trkpt lat="45.0236" lon="5.78299">
        <ele>915</ele>
        <time>2000-01-01T04:09:37.000Z</time>
      </trkpt>
      <trkpt lat="45.02341" lon="5.78322">
        <ele>919</ele>
        <time>2000-01-01T04:09:47.000Z</time>
      </trkpt>
      <trkpt lat="45.0232" lon="5.78348">
        <ele>922</ele>
        <time>2000-01-01T04:09:57.000Z</time>
      </trkpt>
      <trkpt lat="45.02278" lon="5.78367">
        <ele>924</ele>
        <time>2000-01-01T04:10:07.000Z</time>
      </trkpt>
      <trkpt lat="45.02295" lon="5.78399">
        <ele>926</ele>
        <time>2000-01-01T04:10:17.000Z</time>
      </trkpt>
      <trkpt lat="45.02319" lon="5.78444">
        <ele>929</ele>
        <time>2000-01-01T04:10:27.000Z</time>
      </trkpt>
      <trkpt lat="45.02352" lon="5.78447">
        <ele>930</ele>
        <time>2000-01-01T04:10:37.000Z</time>
      </trkpt>
      <trkpt lat="45.02384" lon="5.78449">
        <ele>930</ele>
        <time>2000-01-01T04:10:47.000Z</time>
      </trkpt>
      <trkpt lat="45.02423" lon="5.78452">
        <ele>931</ele>
        <time>2000-01-01T04:10:57.000Z</time>
      </trkpt>
      <trkpt lat="45.02433" lon="5.78492">
        <ele>934</ele>
        <time>2000-01-01T04:11:07.000Z</time>
      </trkpt>
      <trkpt lat="45.02449" lon="5.78562">
        <ele>936</ele>
        <time>2000-01-01T04:11:17.000Z</time>
      </trkpt>
      <trkpt lat="45.02477" lon="5.78582">
        <ele>936</ele>
        <time>2000-01-01T04:11:27.000Z</time>
      </trkpt>
      <trkpt lat="45.02531" lon="5.7862">
        <ele>937</ele>
        <time>2000-01-01T04:11:37.000Z</time>
      </trkpt>
      <trkpt lat="45.02563" lon="5.78629">
        <ele>937</ele>
        <time>2000-01-01T04:11:47.000Z</time>
      </trkpt>
      <trkpt lat="45.02596" lon="5.78638">
        <ele>937</ele>
        <time>2000-01-01T04:11:57.000Z</time>
      </trkpt>
      <trkpt lat="45.02637" lon="5.7865">
        <ele>937</ele>
        <time>2000-01-01T04:12:07.000Z</time>
      </trkpt>
      <trkpt lat="45.02626" lon="5.78696">
        <ele>937</ele>
        <time>2000-01-01T04:12:17.000Z</time>
      </trkpt>
      <trkpt lat="45.02615" lon="5.78741">
        <ele>938</ele>
        <time>2000-01-01T04:12:27.000Z</time>
      </trkpt>
      <trkpt lat="45.02599" lon="5.78809">
        <ele>940</ele>
        <time>2000-01-01T04:12:37.000Z</time>
      </trkpt>
      <trkpt lat="45.02593" lon="5.78843">
        <ele>942</ele>
        <time>2000-01-01T04:12:47.000Z</time>
      </trkpt>
      <trkpt lat="45.02587" lon="5.78879">
        <ele>943</ele>
        <time>2000-01-01T04:12:57.000Z</time>
      </trkpt>
      <trkpt lat="45.026" lon="5.7891">
        <ele>946</ele>
        <time>2000-01-01T04:13:07.000Z</time>
      </trkpt>
      <trkpt lat="45.02614" lon="5.78946">
        <ele>948</ele>
        <time>2000-01-01T04:13:17.000Z</time>
      </trkpt>
      <trkpt lat="45.02637" lon="5.78966">
        <ele>950</ele>
        <time>2000-01-01T04:13:27.000Z</time>
      </trkpt>
      <trkpt lat="45.02665" lon="5.78991">
        <ele>952</ele>
        <time>2000-01-01T04:13:37.000Z</time>
      </trkpt>
      <trkpt lat="45.027" lon="5.79023">
        <ele>954</ele>
        <time>2000-01-01T04:13:47.000Z</time>
      </trkpt>
      <trkpt lat="45.02721" lon="5.79068">
        <ele>960</ele>
        <time>2000-01-01T04:13:57.000Z</time>
      </trkpt>
      <trkpt lat="45.02743" lon="5.79094">
        <ele>963</ele>
        <time>2000-01-01T04:14:07.000Z</time>
      </trkpt>
      <trkpt lat="45.02774" lon="5.79131">
        <ele>966</ele>
        <time>2000-01-01T04:14:17.000Z</time>
      </trkpt>
      <trkpt lat="45.02791" lon="5.79167">
        <ele>967</ele>
        <time>2000-01-01T04:14:27.000Z</time>
      </trkpt>
      <trkpt lat="45.02824" lon="5.79234">
        <ele>971</ele>
        <time>2000-01-01T04:14:37.000Z</time>
      </trkpt>
      <trkpt lat="45.02834" lon="5.79264">
        <ele>974</ele>
        <time>2000-01-01T04:14:47.000Z</time>
      </trkpt>
      <trkpt lat="45.02839" lon="5.7929">
        <ele>976.9</ele>
        <time>2000-01-01T04:14:57.000Z</time>
      </trkpt>
      <trkpt lat="45.02843" lon="5.79318">
        <ele>980</ele>
        <time>2000-01-01T04:15:07.000Z</time>
      </trkpt>
      <trkpt lat="45.02851" lon="5.79355">
        <ele>982</ele>
        <time>2000-01-01T04:15:17.000Z</time>
      </trkpt>
      <trkpt lat="45.02854" lon="5.79391">
        <ele>986</ele>
        <time>2000-01-01T04:15:27.000Z</time>
      </trkpt>
      <trkpt lat="45.02859" lon="5.79421">
        <ele>989</ele>
        <time>2000-01-01T04:15:37.000Z</time>
      </trkpt>
      <trkpt lat="45.02866" lon="5.79447">
        <ele>989</ele>
        <time>2000-01-01T04:15:47.000Z</time>
      </trkpt>
      <trkpt lat="45.0287" lon="5.79508">
        <ele>996</ele>
        <time>2000-01-01T04:15:57.000Z</time>
      </trkpt>
      <trkpt lat="45.02878" lon="5.79534">
        <ele>997</ele>
        <time>2000-01-01T04:16:07.000Z</time>
      </trkpt>
      <trkpt lat="45.0288" lon="5.79557">
        <ele>998.5</ele>
        <time>2000-01-01T04:16:17.000Z</time>
      </trkpt>
      <trkpt lat="45.02871" lon="5.79582">
        <ele>1005</ele>
        <time>2000-01-01T04:16:27.000Z</time>
      </trkpt>
      <trkpt lat="45.02876" lon="5.7961">
        <ele>1007</ele>
        <time>2000-01-01T04:16:37.000Z</time>
      </trkpt>
      <trkpt lat="45.02882" lon="5.79637">
        <ele>1010</ele>
        <time>2000-01-01T04:16:47.000Z</time>
      </trkpt>
      <trkpt lat="45.02899" lon="5.79669">
        <ele>1014</ele>
        <time>2000-01-01T04:16:57.000Z</time>
      </trkpt>
      <trkpt lat="45.02923" lon="5.79717">
        <ele>1016</ele>
        <time>2000-01-01T04:17:07.000Z</time>
      </trkpt>
      <trkpt lat="45.02942" lon="5.79766">
        <ele>1019</ele>
        <time>2000-01-01T04:17:17.000Z</time>
      </trkpt>
      <trkpt lat="45.0295" lon="5.798">
        <ele>1022</ele>
        <time>2000-01-01T04:17:27.000Z</time>
      </trkpt>
      <trkpt lat="45.02954" lon="5.79836">
        <ele>1028</ele>
        <time>2000-01-01T04:17:37.000Z</time>
      </trkpt>
      <trkpt lat="45.02964" lon="5.79869">
        <ele>1030</ele>
        <time>2000-01-01T04:17:47.000Z</time>
      </trkpt>
      <trkpt lat="45.02975" lon="5.79894">
        <ele>1032</ele>
        <time>2000-01-01T04:17:57.000Z</time>
      </trkpt>
      <trkpt lat="45.02995" lon="5.79942">
        <ele>1037</ele>
        <time>2000-01-01T04:18:07.000Z</time>
      </trkpt>
      <trkpt lat="45.03011" lon="5.79966">
        <ele>1038</ele>
        <time>2000-01-01T04:18:17.000Z</time>
      </trkpt>
      <trkpt lat="45.03044" lon="5.80012">
        <ele>1043</ele>
        <time>2000-01-01T04:18:27.000Z</time>
      </trkpt>
      <trkpt lat="45.03058" lon="5.80036">
        <ele>1041</ele>
        <time>2000-01-01T04:18:37.000Z</time>
      </trkpt>
      <trkpt lat="45.03028" lon="5.7999">
        <ele>1042</ele>
        <time>2000-01-01T04:18:47.000Z</time>
      </trkpt>
      <trkpt lat="45.03044" lon="5.80012">
        <ele>1043</ele>
        <time>2000-01-01T04:18:57.000Z</time>
      </trkpt>
      <trkpt lat="45.03058" lon="5.80036">
        <ele>1046</ele>
        <time>2000-01-01T04:19:07.000Z</time>
      </trkpt>
      <trkpt lat="45.03033" lon="5.80046">
        <ele>1048</ele>
        <time>2000-01-01T04:19:17.000Z</time>
      </trkpt>
      <trkpt lat="45.03005" lon="5.80058">
        <ele>1055</ele>
        <time>2000-01-01T04:19:27.000Z</time>
      </trkpt>
      <trkpt lat="45.02985" lon="5.80081">
        <ele>1067</ele>
        <time>2000-01-01T04:19:37.000Z</time>
      </trkpt>
      <trkpt lat="45.0296" lon="5.80108">
        <ele>1078</ele>
        <time>2000-01-01T04:19:47.000Z</time>
      </trkpt>
      <trkpt lat="45.02933" lon="5.80086">
        <ele>1084</ele>
        <time>2000-01-01T04:19:57.000Z</time>
      </trkpt>
      <trkpt lat="45.02886" lon="5.80048">
        <ele>1093</ele>
        <time>2000-01-01T04:20:07.000Z</time>
      </trkpt>
      <trkpt lat="45.02864" lon="5.80029">
        <ele>1098</ele>
        <time>2000-01-01T04:20:17.000Z</time>
      </trkpt>
      <trkpt lat="45.02839" lon="5.80008">
        <ele>1108</ele>
        <time>2000-01-01T04:20:27.000Z</time>
      </trkpt>
      <trkpt lat="45.02801" lon="5.79981">
        <ele>1122</ele>
        <time>2000-01-01T04:20:37.000Z</time>
      </trkpt>
      <trkpt lat="45.02788" lon="5.80013">
        <ele>1135</ele>
        <time>2000-01-01T04:20:47.000Z</time>
      </trkpt>
      <trkpt lat="45.02773" lon="5.80052">
        <ele>1141</ele>
        <time>2000-01-01T04:20:57.000Z</time>
      </trkpt>
      <trkpt lat="45.02756" lon="5.80079">
        <ele>1151</ele>
        <time>2000-01-01T04:21:07.000Z</time>
      </trkpt>
      <trkpt lat="45.02737" lon="5.8011">
        <ele>1161</ele>
        <time>2000-01-01T04:21:17.000Z</time>
      </trkpt>
      <trkpt lat="45.02715" lon="5.80095">
        <ele>1166</ele>
        <time>2000-01-01T04:21:27.000Z</time>
      </trkpt>
      <trkpt lat="45.02692" lon="5.8008">
        <ele>1172</ele>
        <time>2000-01-01T04:21:37.000Z</time>
      </trkpt>
      <trkpt lat="45.02679" lon="5.80033">
        <ele>1176</ele>
        <time>2000-01-01T04:21:47.000Z</time>
      </trkpt>
      <trkpt lat="45.02672" lon="5.79999">
        <ele>1176</ele>
        <time>2000-01-01T04:21:57.000Z</time>
      </trkpt>
      <trkpt lat="45.02664" lon="5.7996">
        <ele>1178</ele>
        <time>2000-01-01T04:22:07.000Z</time>
      </trkpt>
      <trkpt lat="45.0264" lon="5.79935">
        <ele>1179</ele>
        <time>2000-01-01T04:22:17.000Z</time>
      </trkpt>
      <trkpt lat="45.026" lon="5.79894">
        <ele>1181</ele>
        <time>2000-01-01T04:22:27.000Z</time>
      </trkpt>
      <trkpt lat="45.02554" lon="5.79885">
        <ele>1179</ele>
        <time>2000-01-01T04:22:37.000Z</time>
      </trkpt>
      <trkpt lat="45.0254" lon="5.79852">
        <ele>1183</ele>
        <time>2000-01-01T04:22:47.000Z</time>
      </trkpt>
      <trkpt lat="45.02526" lon="5.7987">
        <ele>1184.1</ele>
        <time>2000-01-01T04:22:57.000Z</time>
      </trkpt>
      <trkpt lat="45.02582" lon="5.80004">
        <ele>1188</ele>
        <time>2000-01-01T04:23:07.000Z</time>
      </trkpt>
      <trkpt lat="45.02595" lon="5.80046">
        <ele>1188</ele>
        <time>2000-01-01T04:23:17.000Z</time>
      </trkpt>
      <trkpt lat="45.02608" lon="5.80089">
        <ele>1189</ele>
        <time>2000-01-01T04:23:27.000Z</time>
      </trkpt>
      <trkpt lat="45.02623" lon="5.80139">
        <ele>1190</ele>
        <time>2000-01-01T04:23:37.000Z</time>
      </trkpt>
      <trkpt lat="45.02629" lon="5.80174">
        <ele>1193</ele>
        <time>2000-01-01T04:23:47.000Z</time>
      </trkpt>
      <trkpt lat="45.02637" lon="5.80215">
        <ele>1195</ele>
        <time>2000-01-01T04:23:57.000Z</time>
      </trkpt>
      <trkpt lat="45.02658" lon="5.80241">
        <ele>1196</ele>
        <time>2000-01-01T04:24:07.000Z</time>
      </trkpt>
      <trkpt lat="45.02689" lon="5.80277">
        <ele>1197</ele>
        <time>2000-01-01T04:24:17.000Z</time>
      </trkpt>
      <trkpt lat="45.02713" lon="5.80294">
        <ele>1198</ele>
        <time>2000-01-01T04:24:27.000Z</time>
      </trkpt>
      <trkpt lat="45.02743" lon="5.80315">
        <ele>1198</ele>
        <time>2000-01-01T04:24:37.000Z</time>
      </trkpt>
      <trkpt lat="45.02763" lon="5.80338">
        <ele>1197</ele>
        <time>2000-01-01T04:24:47.000Z</time>
      </trkpt>
      <trkpt lat="45.02786" lon="5.80366">
        <ele>1197</ele>
        <time>2000-01-01T04:24:57.000Z</time>
      </trkpt>
      <trkpt lat="45.0282" lon="5.80409">
        <ele>1198</ele>
        <time>2000-01-01T04:25:07.000Z</time>
      </trkpt>
      <trkpt lat="45.02851" lon="5.80444">
        <ele>1199</ele>
        <time>2000-01-01T04:25:17.000Z</time>
      </trkpt>
      <trkpt lat="45.02875" lon="5.80474">
        <ele>1201</ele>
        <time>2000-01-01T04:25:27.000Z</time>
      </trkpt>
      <trkpt lat="45.02896" lon="5.80517">
        <ele>1202</ele>
        <time>2000-01-01T04:25:37.000Z</time>
      </trkpt>
      <trkpt lat="45.02896" lon="5.80562">
        <ele>1204</ele>
        <time>2000-01-01T04:25:47.000Z</time>
      </trkpt>
      <trkpt lat="45.02899" lon="5.80603">
        <ele>1205</ele>
        <time>2000-01-01T04:25:57.000Z</time>
      </trkpt>
      <trkpt lat="45.02884" lon="5.80635">
        <ele>1205</ele>
        <time>2000-01-01T04:26:07.000Z</time>
      </trkpt>
      <trkpt lat="45.02869" lon="5.80679">
        <ele>1205</ele>
        <time>2000-01-01T04:26:17.000Z</time>
      </trkpt>
      <trkpt lat="45.02855" lon="5.80724">
        <ele>1207</ele>
        <time>2000-01-01T04:26:27.000Z</time>
      </trkpt>
      <trkpt lat="45.02833" lon="5.80762">
        <ele>1210</ele>
        <time>2000-01-01T04:26:37.000Z</time>
      </trkpt>
      <trkpt lat="45.02821" lon="5.80802">
        <ele>1212</ele>
        <time>2000-01-01T04:26:47.000Z</time>
      </trkpt>
      <trkpt lat="45.028" lon="5.80847">
        <ele>1215</ele>
        <time>2000-01-01T04:26:57.000Z</time>
      </trkpt>
      <trkpt lat="45.02779" lon="5.80885">
        <ele>1217</ele>
        <time>2000-01-01T04:27:07.000Z</time>
      </trkpt>
      <trkpt lat="45.02758" lon="5.80914">
        <ele>1217</ele>
        <time>2000-01-01T04:27:17.000Z</time>
      </trkpt>
      <trkpt lat="45.02741" lon="5.80954">
        <ele>1216</ele>
        <time>2000-01-01T04:27:27.000Z</time>
      </trkpt>
      <trkpt lat="45.02726" lon="5.80995">
        <ele>1216</ele>
        <time>2000-01-01T04:27:37.000Z</time>
      </trkpt>
      <trkpt lat="45.02715" lon="5.81031">
        <ele>1218</ele>
        <time>2000-01-01T04:27:47.000Z</time>
      </trkpt>
      <trkpt lat="45.02698" lon="5.81064">
        <ele>1220</ele>
        <time>2000-01-01T04:27:57.000Z</time>
      </trkpt>
      <trkpt lat="45.02685" lon="5.81107">
        <ele>1226</ele>
        <time>2000-01-01T04:28:07.000Z</time>
      </trkpt>
      <trkpt lat="45.02663" lon="5.8116">
        <ele>1235</ele>
        <time>2000-01-01T04:28:17.000Z</time>
      </trkpt>
      <trkpt lat="45.02646" lon="5.81187">
        <ele>1236</ele>
        <time>2000-01-01T04:28:27.000Z</time>
      </trkpt>
      <trkpt lat="45.02628" lon="5.81208">
        <ele>1238</ele>
        <time>2000-01-01T04:28:37.000Z</time>
      </trkpt>
      <trkpt lat="45.02613" lon="5.81242">
        <ele>1239</ele>
        <time>2000-01-01T04:28:47.000Z</time>
      </trkpt>
      <trkpt lat="45.02604" lon="5.81264">
        <ele>1239</ele>
        <time>2000-01-01T04:28:57.000Z</time>
      </trkpt>
      <trkpt lat="45.02589" lon="5.81283">
        <ele>1243</ele>
        <time>2000-01-01T04:29:07.000Z</time>
      </trkpt>
      <trkpt lat="45.02577" lon="5.81296">
        <ele>1244.4</ele>
        <time>2000-01-01T04:29:17.000Z</time>
      </trkpt>
      <trkpt lat="45.02566" lon="5.81313">
        <ele>1249</ele>
        <time>2000-01-01T04:29:27.000Z</time>
      </trkpt>
      <trkpt lat="45.02548" lon="5.81347">
        <ele>1256</ele>
        <time>2000-01-01T04:29:37.000Z</time>
      </trkpt>
      <trkpt lat="45.02533" lon="5.81351">
        <ele>1257.9</ele>
        <time>2000-01-01T04:29:47.000Z</time>
      </trkpt>
      <trkpt lat="45.02505" lon="5.81352">
        <ele>1268</ele>
        <time>2000-01-01T04:29:57.000Z</time>
      </trkpt>
      <trkpt lat="45.02477" lon="5.81345">
        <ele>1275</ele>
        <time>2000-01-01T04:30:07.000Z</time>
      </trkpt>
      <trkpt lat="45.02464" lon="5.81352">
        <ele>1278.3</ele>
        <time>2000-01-01T04:30:17.000Z</time>
      </trkpt>
      <trkpt lat="45.0247" lon="5.81371">
        <ele>1278</ele>
        <time>2000-01-01T04:30:27.000Z</time>
      </trkpt>
      <trkpt lat="45.02479" lon="5.81386">
        <ele>1279.1</ele>
        <time>2000-01-01T04:30:37.000Z</time>
      </trkpt>
      <trkpt lat="45.02481" lon="5.81407">
        <ele>1281</ele>
        <time>2000-01-01T04:30:47.000Z</time>
      </trkpt>
      <trkpt lat="45.02484" lon="5.81429">
        <ele>1282.9</ele>
        <time>2000-01-01T04:30:57.000Z</time>
      </trkpt>
      <trkpt lat="45.02481" lon="5.81453">
        <ele>1288</ele>
        <time>2000-01-01T04:31:07.000Z</time>
      </trkpt>
      <trkpt lat="45.02485" lon="5.81474">
        <ele>1288.7</ele>
        <time>2000-01-01T04:31:17.000Z</time>
      </trkpt>
      <trkpt lat="45.02479" lon="5.81494">
        <ele>1298</ele>
        <time>2000-01-01T04:31:27.000Z</time>
      </trkpt>
      <trkpt lat="45.02475" lon="5.81516">
        <ele>1297.5</ele>
        <time>2000-01-01T04:31:37.000Z</time>
      </trkpt>
      <trkpt lat="45.02464" lon="5.81543">
        <ele>1305</ele>
        <time>2000-01-01T04:31:47.000Z</time>
      </trkpt>
      <trkpt lat="45.02453" lon="5.81556">
        <ele>1309.3</ele>
        <time>2000-01-01T04:31:57.000Z</time>
      </trkpt>
      <trkpt lat="45.0244" lon="5.81568">
        <ele>1320</ele>
        <time>2000-01-01T04:32:07.000Z</time>
      </trkpt>
      <trkpt lat="45.02417" lon="5.81601">
        <ele>1327</ele>
        <time>2000-01-01T04:32:17.000Z</time>
      </trkpt>
      <trkpt lat="45.02403" lon="5.81618">
        <ele>1329.1</ele>
        <time>2000-01-01T04:32:27.000Z</time>
      </trkpt>
      <trkpt lat="45.02391" lon="5.81636">
        <ele>1336</ele>
        <time>2000-01-01T04:32:37.000Z</time>
      </trkpt>
      <trkpt lat="45.02388" lon="5.81668">
        <ele>1340</ele>
        <time>2000-01-01T04:32:47.000Z</time>
      </trkpt>
      <trkpt lat="45.02387" lon="5.81691">
        <ele>1335.3</ele>
        <time>2000-01-01T04:32:57.000Z</time>
      </trkpt>
      <trkpt lat="45.02388" lon="5.81716">
        <ele>1340</ele>
        <time>2000-01-01T04:33:07.000Z</time>
      </trkpt>
      <trkpt lat="45.02386" lon="5.81745">
        <ele>1342</ele>
        <time>2000-01-01T04:33:17.000Z</time>
      </trkpt>
      <trkpt lat="45.02385" lon="5.81777">
        <ele>1344</ele>
        <time>2000-01-01T04:33:27.000Z</time>
      </trkpt>
      <trkpt lat="45.02387" lon="5.81821">
        <ele>1351</ele>
        <time>2000-01-01T04:33:37.000Z</time>
      </trkpt>
      <trkpt lat="45.0239" lon="5.81846">
        <ele>1349.3</ele>
        <time>2000-01-01T04:33:47.000Z</time>
      </trkpt>
      <trkpt lat="45.02396" lon="5.81876">
        <ele>1353</ele>
        <time>2000-01-01T04:33:57.000Z</time>
      </trkpt>
      <trkpt lat="45.02401" lon="5.81905">
        <ele>1355</ele>
        <time>2000-01-01T04:34:07.000Z</time>
      </trkpt>
      <trkpt lat="45.02413" lon="5.81946">
        <ele>1356</ele>
        <time>2000-01-01T04:34:17.000Z</time>
      </trkpt>
      <trkpt lat="45.02409" lon="5.81963">
        <ele>1356.9</ele>
        <time>2000-01-01T04:34:27.000Z</time>
      </trkpt>
      <trkpt lat="45.02398" lon="5.81978">
        <ele>1369</ele>
        <time>2000-01-01T04:34:37.000Z</time>
      </trkpt>
      <trkpt lat="45.02385" lon="5.81982">
        <ele>1368.4</ele>
        <time>2000-01-01T04:34:47.000Z</time>
      </trkpt>
      <trkpt lat="45.02367" lon="5.81991">
        <ele>1379</ele>
        <time>2000-01-01T04:34:57.000Z</time>
      </trkpt>
      <trkpt lat="45.02348" lon="5.81997">
        <ele>1387</ele>
        <time>2000-01-01T04:35:07.000Z</time>
      </trkpt>
      <trkpt lat="45.02322" lon="5.82015">
        <ele>1388</ele>
        <time>2000-01-01T04:35:17.000Z</time>
      </trkpt>
      <trkpt lat="45.02281" lon="5.82043">
        <ele>1392</ele>
        <time>2000-01-01T04:35:27.000Z</time>
      </trkpt>
      <trkpt lat="45.02261" lon="5.82062">
        <ele>1394</ele>
        <time>2000-01-01T04:35:37.000Z</time>
      </trkpt>
      <trkpt lat="45.02244" lon="5.82071">
        <ele>1394.1</ele>
        <time>2000-01-01T04:35:47.000Z</time>
      </trkpt>
      <trkpt lat="45.02219" lon="5.82089">
        <ele>1393</ele>
        <time>2000-01-01T04:35:57.000Z</time>
      </trkpt>
      <trkpt lat="45.0219" lon="5.82113">
        <ele>1393</ele>
        <time>2000-01-01T04:36:07.000Z</time>
      </trkpt>
      <trkpt lat="45.02162" lon="5.82136">
        <ele>1394</ele>
        <time>2000-01-01T04:36:17.000Z</time>
      </trkpt>
      <trkpt lat="45.02125" lon="5.82167">
        <ele>1403</ele>
        <time>2000-01-01T04:36:27.000Z</time>
      </trkpt>
      <trkpt lat="45.02108" lon="5.82178">
        <ele>1402.4</ele>
        <time>2000-01-01T04:36:37.000Z</time>
      </trkpt>
      <trkpt lat="45.02091" lon="5.8218">
        <ele>1413</ele>
        <time>2000-01-01T04:36:47.000Z</time>
      </trkpt>
      <trkpt lat="45.02074" lon="5.82187">
        <ele>1414.6</ele>
        <time>2000-01-01T04:36:57.000Z</time>
      </trkpt>
      <trkpt lat="45.02055" lon="5.82192">
        <ele>1423</ele>
        <time>2000-01-01T04:37:07.000Z</time>
      </trkpt>
      <trkpt lat="45.02044" lon="5.82198">
        <ele>1423.6</ele>
        <time>2000-01-01T04:37:17.000Z</time>
      </trkpt>
      <trkpt lat="45.02026" lon="5.82224">
        <ele>1429</ele>
        <time>2000-01-01T04:37:27.000Z</time>
      </trkpt>
      <trkpt lat="45.02011" lon="5.8224">
        <ele>1431.1</ele>
        <time>2000-01-01T04:37:37.000Z</time>
      </trkpt>
      <trkpt lat="45.02" lon="5.82255">
        <ele>1445</ele>
        <time>2000-01-01T04:37:47.000Z</time>
      </trkpt>
      <trkpt lat="45.01995" lon="5.82278">
        <ele>1436.5</ele>
        <time>2000-01-01T04:37:57.000Z</time>
      </trkpt>
      <trkpt lat="45.01988" lon="5.82301">
        <ele>1445</ele>
        <time>2000-01-01T04:38:07.000Z</time>
      </trkpt>
      <trkpt lat="45.01978" lon="5.82317">
        <ele>1445.4</ele>
        <time>2000-01-01T04:38:17.000Z</time>
      </trkpt>
      <trkpt lat="45.01973" lon="5.82344">
        <ele>1446</ele>
        <time>2000-01-01T04:38:27.000Z</time>
      </trkpt>
      <trkpt lat="45.01976" lon="5.82358">
        <ele>1438.8</ele>
        <time>2000-01-01T04:38:37.000Z</time>
      </trkpt>
      <trkpt lat="45.01958" lon="5.82375">
        <ele>1456</ele>
        <time>2000-01-01T04:38:47.000Z</time>
      </trkpt>
      <trkpt lat="45.01931" lon="5.82397">
        <ele>1469</ele>
        <time>2000-01-01T04:38:57.000Z</time>
      </trkpt>
      <trkpt lat="45.01924" lon="5.82407">
        <ele>1467.8</ele>
        <time>2000-01-01T04:39:07.000Z</time>
      </trkpt>
      <trkpt lat="45.01916" lon="5.82417">
        <ele>1478</ele>
        <time>2000-01-01T04:39:17.000Z</time>
      </trkpt>
      <trkpt lat="45.0191" lon="5.8243">
        <ele>1473.9</ele>
        <time>2000-01-01T04:39:27.000Z</time>
      </trkpt>
      <trkpt lat="45.01901" lon="5.82439">
        <ele>1484</ele>
        <time>2000-01-01T04:39:37.000Z</time>
      </trkpt>
      <trkpt lat="45.01893" lon="5.82454">
        <ele>1484.5</ele>
        <time>2000-01-01T04:39:47.000Z</time>
      </trkpt>
      <trkpt lat="45.0189" lon="5.82467">
        <ele>1485</ele>
        <time>2000-01-01T04:39:57.000Z</time>
      </trkpt>
      <trkpt lat="45.01874" lon="5.8248">
        <ele>1496.4</ele>
        <time>2000-01-01T04:40:07.000Z</time>
      </trkpt>
      <trkpt lat="45.0187" lon="5.82492">
        <ele>1498</ele>
        <time>2000-01-01T04:40:17.000Z</time>
      </trkpt>
      <trkpt lat="45.01862" lon="5.82501">
        <ele>1502</ele>
        <time>2000-01-01T04:40:27.000Z</time>
      </trkpt>
      <trkpt lat="45.01849" lon="5.8251">
        <ele>1504</ele>
        <time>2000-01-01T04:40:37.000Z</time>
      </trkpt>
      <trkpt lat="45.01849" lon="5.82535">
        <ele>1505.3</ele>
        <time>2000-01-01T04:40:47.000Z</time>
      </trkpt>
      <trkpt lat="45.01848" lon="5.82556">
        <ele>1510</ele>
        <time>2000-01-01T04:40:57.000Z</time>
      </trkpt>
      <trkpt lat="45.0184" lon="5.82572">
        <ele>1503.3</ele>
        <time>2000-01-01T04:41:07.000Z</time>
      </trkpt>
      <trkpt lat="45.01832" lon="5.82586">
        <ele>1511</ele>
        <time>2000-01-01T04:41:17.000Z</time>
      </trkpt>
      <trkpt lat="45.01829" lon="5.82596">
        <ele>1503.8</ele>
        <time>2000-01-01T04:41:27.000Z</time>
      </trkpt>
      <trkpt lat="45.01823" lon="5.82588">
        <ele>1514.1</ele>
        <time>2000-01-01T04:41:37.000Z</time>
      </trkpt>
      <trkpt lat="45.01814" lon="5.82595">
        <ele>1527</ele>
        <time>2000-01-01T04:41:47.000Z</time>
      </trkpt>
      <trkpt lat="45.018" lon="5.82611">
        <ele>1528.6</ele>
        <time>2000-01-01T04:41:57.000Z</time>
      </trkpt>
      <trkpt lat="45.01791" lon="5.82631">
        <ele>1531</ele>
        <time>2000-01-01T04:42:07.000Z</time>
      </trkpt>
      <trkpt lat="45.01788" lon="5.82649">
        <ele>1531.8</ele>
        <time>2000-01-01T04:42:17.000Z</time>
      </trkpt>
      <trkpt lat="45.01777" lon="5.82662">
        <ele>1539</ele>
        <time>2000-01-01T04:42:27.000Z</time>
      </trkpt>
      <trkpt lat="45.01771" lon="5.82674">
        <ele>1547</ele>
        <time>2000-01-01T04:42:37.000Z</time>
      </trkpt>
      <trkpt lat="45.01771" lon="5.82694">
        <ele>1539</ele>
        <time>2000-01-01T04:42:47.000Z</time>
      </trkpt>
      <trkpt lat="45.01782" lon="5.82729">
        <ele>1538</ele>
        <time>2000-01-01T04:42:57.000Z</time>
      </trkpt>
      <trkpt lat="45.0178" lon="5.82769">
        <ele>1539</ele>
        <time>2000-01-01T04:43:07.000Z</time>
      </trkpt>
      <trkpt lat="45.01778" lon="5.82827">
        <ele>1540</ele>
        <time>2000-01-01T04:43:17.000Z</time>
      </trkpt>
      <trkpt lat="45.01773" lon="5.82861">
        <ele>1541</ele>
        <time>2000-01-01T04:43:27.000Z</time>
      </trkpt>
      <trkpt lat="45.01768" lon="5.829">
        <ele>1544</ele>
        <time>2000-01-01T04:43:37.000Z</time>
      </trkpt>
      <trkpt lat="45.01767" lon="5.82936">
        <ele>1548</ele>
        <time>2000-01-01T04:43:47.000Z</time>
      </trkpt>
      <trkpt lat="45.01759" lon="5.82973">
        <ele>1548</ele>
        <time>2000-01-01T04:43:57.000Z</time>
      </trkpt>
      <trkpt lat="45.01739" lon="5.83001">
        <ele>1547</ele>
        <time>2000-01-01T04:44:07.000Z</time>
      </trkpt>
      <trkpt lat="45.0171" lon="5.83009">
        <ele>1546</ele>
        <time>2000-01-01T04:44:17.000Z</time>
      </trkpt>
      <trkpt lat="45.0167" lon="5.83006">
        <ele>1543</ele>
        <time>2000-01-01T04:44:27.000Z</time>
      </trkpt>
      <trkpt lat="45.01628" lon="5.8302">
        <ele>1531</ele>
        <time>2000-01-01T04:44:37.000Z</time>
      </trkpt>
      <trkpt lat="45.01595" lon="5.83035">
        <ele>1521</ele>
        <time>2000-01-01T04:44:47.000Z</time>
      </trkpt>
      <trkpt lat="45.01557" lon="5.8306">
        <ele>1516</ele>
        <time>2000-01-01T04:44:57.000Z</time>
      </trkpt>
      <trkpt lat="45.01523" lon="5.83058">
        <ele>1512</ele>
        <time>2000-01-01T04:45:07.000Z</time>
      </trkpt>
      <trkpt lat="45.01486" lon="5.83092">
        <ele>1500</ele>
        <time>2000-01-01T04:45:17.000Z</time>
      </trkpt>
      <trkpt lat="45.0145" lon="5.83108">
        <ele>1501</ele>
        <time>2000-01-01T04:45:27.000Z</time>
      </trkpt>
      <trkpt lat="45.01418" lon="5.83119">
        <ele>1499</ele>
        <time>2000-01-01T04:45:37.000Z</time>
      </trkpt>
      <trkpt lat="45.01383" lon="5.83136">
        <ele>1498</ele>
        <time>2000-01-01T04:45:47.000Z</time>
      </trkpt>
      <trkpt lat="45.01349" lon="5.83156">
        <ele>1496</ele>
        <time>2000-01-01T04:45:57.000Z</time>
      </trkpt>
      <trkpt lat="45.01311" lon="5.83173">
        <ele>1488</ele>
        <time>2000-01-01T04:46:07.000Z</time>
      </trkpt>
      <trkpt lat="45.01283" lon="5.83197">
        <ele>1484</ele>
        <time>2000-01-01T04:46:17.000Z</time>
      </trkpt>
      <trkpt lat="45.01292" lon="5.83243">
        <ele>1473</ele>
        <time>2000-01-01T04:46:27.000Z</time>
      </trkpt>
      <trkpt lat="45.01313" lon="5.83284">
        <ele>1473</ele>
        <time>2000-01-01T04:46:37.000Z</time>
      </trkpt>
      <trkpt lat="45.01299" lon="5.83313">
        <ele>1477</ele>
        <time>2000-01-01T04:46:47.000Z</time>
      </trkpt>
      <trkpt lat="45.01283" lon="5.83346">
        <ele>1482</ele>
        <time>2000-01-01T04:46:57.000Z</time>
      </trkpt>
      <trkpt lat="45.01301" lon="5.83362">
        <ele>1484</ele>
        <time>2000-01-01T04:47:07.000Z</time>
      </trkpt>
      <trkpt lat="45.01328" lon="5.83375">
        <ele>1485</ele>
        <time>2000-01-01T04:47:17.000Z</time>
      </trkpt>
      <trkpt lat="45.01349" lon="5.83397">
        <ele>1487</ele>
        <time>2000-01-01T04:47:27.000Z</time>
      </trkpt>
      <trkpt lat="45.01357" lon="5.83421">
        <ele>1488.4</ele>
        <time>2000-01-01T04:47:37.000Z</time>
      </trkpt>
      <trkpt lat="45.01372" lon="5.83443">
        <ele>1487</ele>
        <time>2000-01-01T04:47:47.000Z</time>
      </trkpt>
      <trkpt lat="45.01395" lon="5.83483">
        <ele>1491</ele>
        <time>2000-01-01T04:47:57.000Z</time>
      </trkpt>
      <trkpt lat="45.01425" lon="5.83516">
        <ele>1491</ele>
        <time>2000-01-01T04:48:07.000Z</time>
      </trkpt>
      <trkpt lat="45.01456" lon="5.83531">
        <ele>1489</ele>
        <time>2000-01-01T04:48:17.000Z</time>
      </trkpt>
      <trkpt lat="45.01488" lon="5.8356">
        <ele>1489</ele>
        <time>2000-01-01T04:48:27.000Z</time>
      </trkpt>
      <trkpt lat="45.01509" lon="5.83606">
        <ele>1489</ele>
        <time>2000-01-01T04:48:37.000Z</time>
      </trkpt>
      <trkpt lat="45.01543" lon="5.83636">
        <ele>1485</ele>
        <time>2000-01-01T04:48:47.000Z</time>
      </trkpt>
      <trkpt lat="45.01569" lon="5.83669">
        <ele>1484</ele>
        <time>2000-01-01T04:48:57.000Z</time>
      </trkpt>
      <trkpt lat="45.01597" lon="5.83706">
        <ele>1481</ele>
        <time>2000-01-01T04:49:07.000Z</time>
      </trkpt>
      <trkpt lat="45.01618" lon="5.83752">
        <ele>1479</ele>
        <time>2000-01-01T04:49:17.000Z</time>
      </trkpt>
      <trkpt lat="45.01648" lon="5.83793">
        <ele>1472</ele>
        <time>2000-01-01T04:49:27.000Z</time>
      </trkpt>
      <trkpt lat="45.01658" lon="5.8385">
        <ele>1466</ele>
        <time>2000-01-01T04:49:37.000Z</time>
      </trkpt>
      <trkpt lat="45.0167" lon="5.8388">
        <ele>1465</ele>
        <time>2000-01-01T04:49:47.000Z</time>
      </trkpt>
      <trkpt lat="45.01682" lon="5.83911">
        <ele>1457</ele>
        <time>2000-01-01T04:49:57.000Z</time>
      </trkpt>
      <trkpt lat="45.017" lon="5.83945">
        <ele>1456</ele>
        <time>2000-01-01T04:50:07.000Z</time>
      </trkpt>
      <trkpt lat="45.0173" lon="5.84004">
        <ele>1457</ele>
        <time>2000-01-01T04:50:17.000Z</time>
      </trkpt>
      <trkpt lat="45.01747" lon="5.84064">
        <ele>1457</ele>
        <time>2000-01-01T04:50:27.000Z</time>
      </trkpt>
      <trkpt lat="45.01774" lon="5.84106">
        <ele>1457</ele>
        <time>2000-01-01T04:50:37.000Z</time>
      </trkpt>
      <trkpt lat="45.01808" lon="5.84119">
        <ele>1455</ele>
        <time>2000-01-01T04:50:47.000Z</time>
      </trkpt>
      <trkpt lat="45.01844" lon="5.84126">
        <ele>1454</ele>
        <time>2000-01-01T04:50:57.000Z</time>
      </trkpt>
      <trkpt lat="45.01878" lon="5.84149">
        <ele>1453</ele>
        <time>2000-01-01T04:51:07.000Z</time>
      </trkpt>
      <trkpt lat="45.01914" lon="5.84192">
        <ele>1446</ele>
        <time>2000-01-01T04:51:17.000Z</time>
      </trkpt>
      <trkpt lat="45.01936" lon="5.84223">
        <ele>1446</ele>
        <time>2000-01-01T04:51:27.000Z</time>
      </trkpt>
      <trkpt lat="45.0198" lon="5.84285">
        <ele>1439</ele>
        <time>2000-01-01T04:51:37.000Z</time>
      </trkpt>
      <trkpt lat="45.01998" lon="5.84328">
        <ele>1440</ele>
        <time>2000-01-01T04:51:47.000Z</time>
      </trkpt>
      <trkpt lat="45.02008" lon="5.84371">
        <ele>1437</ele>
        <time>2000-01-01T04:51:57.000Z</time>
      </trkpt>
      <trkpt lat="45.02043" lon="5.84409">
        <ele>1434</ele>
        <time>2000-01-01T04:52:07.000Z</time>
      </trkpt>
      <trkpt lat="45.02069" lon="5.84423">
        <ele>1434</ele>
        <time>2000-01-01T04:52:17.000Z</time>
      </trkpt>
      <trkpt lat="45.02102" lon="5.84451">
        <ele>1435</ele>
        <time>2000-01-01T04:52:27.000Z</time>
      </trkpt>
      <trkpt lat="45.02131" lon="5.84471">
        <ele>1439</ele>
        <time>2000-01-01T04:52:37.000Z</time>
      </trkpt>
      <trkpt lat="45.02153" lon="5.84481">
        <ele>1439</ele>
        <time>2000-01-01T04:52:47.000Z</time>
      </trkpt>
      <trkpt lat="45.0217" lon="5.84485">
        <ele>1442</ele>
        <time>2000-01-01T04:52:57.000Z</time>
      </trkpt>
      <trkpt lat="45.02197" lon="5.84488">
        <ele>1439</ele>
        <time>2000-01-01T04:53:07.000Z</time>
      </trkpt>
      <trkpt lat="45.0223" lon="5.84506">
        <ele>1440</ele>
        <time>2000-01-01T04:53:17.000Z</time>
      </trkpt>
      <trkpt lat="45.02273" lon="5.84517">
        <ele>1439</ele>
        <time>2000-01-01T04:53:27.000Z</time>
      </trkpt>
      <trkpt lat="45.02297" lon="5.84519">
        <ele>1438</ele>
        <time>2000-01-01T04:53:37.000Z</time>
      </trkpt>
      <trkpt lat="45.02322" lon="5.84522">
        <ele>1438</ele>
        <time>2000-01-01T04:53:47.000Z</time>
      </trkpt>
      <trkpt lat="45.02361" lon="5.84534">
        <ele>1435</ele>
        <time>2000-01-01T04:53:57.000Z</time>
      </trkpt>
      <trkpt lat="45.02402" lon="5.84513">
        <ele>1430</ele>
        <time>2000-01-01T04:54:07.000Z</time>
      </trkpt>
      <trkpt lat="45.02442" lon="5.84483">
        <ele>1430</ele>
        <time>2000-01-01T04:54:17.000Z</time>
      </trkpt>
      <trkpt lat="45.02471" lon="5.84478">
        <ele>1431</ele>
        <time>2000-01-01T04:54:27.000Z</time>
      </trkpt>
      <trkpt lat="45.02491" lon="5.84485">
        <ele>1434</ele>
        <time>2000-01-01T04:54:37.000Z</time>
      </trkpt>
      <trkpt lat="45.02508" lon="5.84492">
        <ele>1436.7</ele>
        <time>2000-01-01T04:54:47.000Z</time>
      </trkpt>
      <trkpt lat="45.02522" lon="5.84514">
        <ele>1440</ele>
        <time>2000-01-01T04:54:57.000Z</time>
      </trkpt>
      <trkpt lat="45.02531" lon="5.84539">
        <ele>1442</ele>
        <time>2000-01-01T04:55:07.000Z</time>
      </trkpt>
      <trkpt lat="45.02541" lon="5.84563">
        <ele>1445</ele>
        <time>2000-01-01T04:55:17.000Z</time>
      </trkpt>
      <trkpt lat="45.02549" lon="5.84589">
        <ele>1450</ele>
        <time>2000-01-01T04:55:27.000Z</time>
      </trkpt>
      <trkpt lat="45.0255" lon="5.84619">
        <ele>1450</ele>
        <time>2000-01-01T04:55:37.000Z</time>
      </trkpt>
      <trkpt lat="45.02549" lon="5.84645">
        <ele>1455</ele>
        <time>2000-01-01T04:55:47.000Z</time>
      </trkpt>
      <trkpt lat="45.02546" lon="5.84676">
        <ele>1460</ele>
        <time>2000-01-01T04:55:57.000Z</time>
      </trkpt>
      <trkpt lat="45.02544" lon="5.84707">
        <ele>1462</ele>
        <time>2000-01-01T04:56:07.000Z</time>
      </trkpt>
      <trkpt lat="45.02543" lon="5.8474">
        <ele>1465</ele>
        <time>2000-01-01T04:56:17.000Z</time>
      </trkpt>
      <trkpt lat="45.02544" lon="5.84788">
        <ele>1467</ele>
        <time>2000-01-01T04:56:27.000Z</time>
      </trkpt>
      <trkpt lat="45.02543" lon="5.84832">
        <ele>1470</ele>
        <time>2000-01-01T04:56:37.000Z</time>
      </trkpt>
      <trkpt lat="45.02543" lon="5.84874">
        <ele>1471</ele>
        <time>2000-01-01T04:56:47.000Z</time>
      </trkpt>
      <trkpt lat="45.02533" lon="5.84909">
        <ele>1473</ele>
        <time>2000-01-01T04:56:57.000Z</time>
      </trkpt>
      <trkpt lat="45.02521" lon="5.84955">
        <ele>1475</ele>
        <time>2000-01-01T04:57:07.000Z</time>
      </trkpt>
      <trkpt lat="45.02506" lon="5.85">
        <ele>1482</ele>
        <time>2000-01-01T04:57:17.000Z</time>
      </trkpt>
      <trkpt lat="45.02494" lon="5.85042">
        <ele>1483</ele>
        <time>2000-01-01T04:57:27.000Z</time>
      </trkpt>
      <trkpt lat="45.02485" lon="5.85082">
        <ele>1486</ele>
        <time>2000-01-01T04:57:37.000Z</time>
      </trkpt>
      <trkpt lat="45.02472" lon="5.85118">
        <ele>1487</ele>
        <time>2000-01-01T04:57:47.000Z</time>
      </trkpt>
      <trkpt lat="45.02462" lon="5.85142">
        <ele>1487</ele>
        <time>2000-01-01T04:57:57.000Z</time>
      </trkpt>
      <trkpt lat="45.0245" lon="5.85164">
        <ele>1492</ele>
        <time>2000-01-01T04:58:07.000Z</time>
      </trkpt>
      <trkpt lat="45.02415" lon="5.85207">
        <ele>1499</ele>
        <time>2000-01-01T04:58:17.000Z</time>
      </trkpt>
      <trkpt lat="45.02403" lon="5.85224">
        <ele>1499.9</ele>
        <time>2000-01-01T04:58:27.000Z</time>
      </trkpt>
      <trkpt lat="45.02392" lon="5.85241">
        <ele>1504</ele>
        <time>2000-01-01T04:58:37.000Z</time>
      </trkpt>
      <trkpt lat="45.02378" lon="5.85257">
        <ele>1506.3</ele>
        <time>2000-01-01T04:58:47.000Z</time>
      </trkpt>
      <trkpt lat="45.02343" lon="5.85311">
        <ele>1516</ele>
        <time>2000-01-01T04:58:57.000Z</time>
      </trkpt>
      <trkpt lat="45.02318" lon="5.85346">
        <ele>1523</ele>
        <time>2000-01-01T04:59:07.000Z</time>
      </trkpt>
      <trkpt lat="45.02307" lon="5.85365">
        <ele>1522</ele>
        <time>2000-01-01T04:59:17.000Z</time>
      </trkpt>
      <trkpt lat="45.02296" lon="5.85389">
        <ele>1522</ele>
        <time>2000-01-01T04:59:27.000Z</time>
      </trkpt>
      <trkpt lat="45.02281" lon="5.85413">
        <ele>1522</ele>
        <time>2000-01-01T04:59:37.000Z</time>
      </trkpt>
      <trkpt lat="45.02267" lon="5.8545">
        <ele>1519</ele>
        <time>2000-01-01T04:59:47.000Z</time>
      </trkpt>
      <trkpt lat="45.02243" lon="5.8549">
        <ele>1516</ele>
        <time>2000-01-01T04:59:57.000Z</time>
      </trkpt>
      <trkpt lat="45.02219" lon="5.85499">
        <ele>1514</ele>
        <time>2000-01-01T05:00:07.000Z</time>
      </trkpt>
      <trkpt lat="45.02192" lon="5.8551">
        <ele>1513</ele>
        <time>2000-01-01T05:00:17.000Z</time>
      </trkpt>
      <trkpt lat="45.02145" lon="5.85518">
        <ele>1513</ele>
        <time>2000-01-01T05:00:27.000Z</time>
      </trkpt>
      <trkpt lat="45.02124" lon="5.85566">
        <ele>1504</ele>
        <time>2000-01-01T05:00:37.000Z</time>
      </trkpt>
      <trkpt lat="45.02099" lon="5.8562">
        <ele>1500</ele>
        <time>2000-01-01T05:00:47.000Z</time>
      </trkpt>
      <trkpt lat="45.02088" lon="5.85679">
        <ele>1488</ele>
        <time>2000-01-01T05:00:57.000Z</time>
      </trkpt>
      <trkpt lat="45.02085" lon="5.85728">
        <ele>1480</ele>
        <time>2000-01-01T05:01:07.000Z</time>
      </trkpt>
      <trkpt lat="45.0209" lon="5.8577">
        <ele>1471</ele>
        <time>2000-01-01T05:01:17.000Z</time>
      </trkpt>
      <trkpt lat="45.02116" lon="5.85792">
        <ele>1462</ele>
        <time>2000-01-01T05:01:27.000Z</time>
      </trkpt>
      <trkpt lat="45.02151" lon="5.85796">
        <ele>1452</ele>
        <time>2000-01-01T05:01:37.000Z</time>
      </trkpt>
      <trkpt lat="45.02192" lon="5.8579">
        <ele>1442</ele>
        <time>2000-01-01T05:01:47.000Z</time>
      </trkpt>
      <trkpt lat="45.02228" lon="5.85772">
        <ele>1435</ele>
        <time>2000-01-01T05:01:57.000Z</time>
      </trkpt>
      <trkpt lat="45.02259" lon="5.85774">
        <ele>1427</ele>
        <time>2000-01-01T05:02:07.000Z</time>
      </trkpt>
      <trkpt lat="45.02298" lon="5.85788">
        <ele>1415</ele>
        <time>2000-01-01T05:02:17.000Z</time>
      </trkpt>
      <trkpt lat="45.02322" lon="5.85787">
        <ele>1407</ele>
        <time>2000-01-01T05:02:27.000Z</time>
      </trkpt>
      <trkpt lat="45.02361" lon="5.85779">
        <ele>1397</ele>
        <time>2000-01-01T05:02:37.000Z</time>
      </trkpt>
      <trkpt lat="45.02399" lon="5.85777">
        <ele>1389</ele>
        <time>2000-01-01T05:02:47.000Z</time>
      </trkpt>
      <trkpt lat="45.02424" lon="5.85795">
        <ele>1380</ele>
        <time>2000-01-01T05:02:57.000Z</time>
      </trkpt>
      <trkpt lat="45.02445" lon="5.85792">
        <ele>1376</ele>
        <time>2000-01-01T05:03:07.000Z</time>
      </trkpt>
      <trkpt lat="45.02482" lon="5.85814">
        <ele>1371</ele>
        <time>2000-01-01T05:03:17.000Z</time>
      </trkpt>
      <trkpt lat="45.02509" lon="5.85829">
        <ele>1370</ele>
        <time>2000-01-01T05:03:27.000Z</time>
      </trkpt>
      <trkpt lat="45.0253" lon="5.85838">
        <ele>1368</ele>
        <time>2000-01-01T05:03:37.000Z</time>
      </trkpt>
      <trkpt lat="45.02557" lon="5.85845">
        <ele>1366</ele>
        <time>2000-01-01T05:03:47.000Z</time>
      </trkpt>
      <trkpt lat="45.02592" lon="5.85852">
        <ele>1363</ele>
        <time>2000-01-01T05:03:57.000Z</time>
      </trkpt>
      <trkpt lat="45.02621" lon="5.85856">
        <ele>1362</ele>
        <time>2000-01-01T05:04:07.000Z</time>
      </trkpt>
      <trkpt lat="45.02648" lon="5.85861">
        <ele>1361</ele>
        <time>2000-01-01T05:04:17.000Z</time>
      </trkpt>
      <trkpt lat="45.02679" lon="5.85829">
        <ele>1359</ele>
        <time>2000-01-01T05:04:27.000Z</time>
      </trkpt>
      <trkpt lat="45.02695" lon="5.85814">
        <ele>1358</ele>
        <time>2000-01-01T05:04:37.000Z</time>
      </trkpt>
      <trkpt lat="45.02694" lon="5.85809">
        <ele>1358.2</ele>
        <time>2000-01-01T05:04:47.000Z</time>
      </trkpt>
      <trkpt lat="45.02693" lon="5.85808">
        <ele>1358.2</ele>
        <time>2000-01-01T05:04:57.000Z</time>
      </trkpt>
      <trkpt lat="45.02689" lon="5.85797">
        <ele>1358.1</ele>
        <time>2000-01-01T05:05:07.000Z</time>
      </trkpt>
      <trkpt lat="45.02684" lon="5.85775">
        <ele>1357</ele>
        <time>2000-01-01T05:05:17.000Z</time>
      </trkpt>
      <trkpt lat="45.02684" lon="5.85764">
        <ele>1357.4</ele>
        <time>2000-01-01T05:05:27.000Z</time>
      </trkpt>
      <trkpt lat="45.02686" lon="5.85735">
        <ele>1357</ele>
        <time>2000-01-01T05:05:37.000Z</time>
      </trkpt>
      <trkpt lat="45.02687" lon="5.85728">
        <ele>1357.4</ele>
        <time>2000-01-01T05:05:47.000Z</time>
      </trkpt>
      <trkpt lat="45.02692" lon="5.85717">
        <ele>1357.2</ele>
        <time>2000-01-01T05:05:57.000Z</time>
      </trkpt>
      <trkpt lat="45.02704" lon="5.85685">
        <ele>1356</ele>
        <time>2000-01-01T05:06:07.000Z</time>
      </trkpt>
      <trkpt lat="45.02709" lon="5.85677">
        <ele>1356.5</ele>
        <time>2000-01-01T05:06:17.000Z</time>
      </trkpt>
      <trkpt lat="45.02714" lon="5.85673">
        <ele>1356.3</ele>
        <time>2000-01-01T05:06:27.000Z</time>
      </trkpt>
      <trkpt lat="45.02718" lon="5.85667">
        <ele>1356</ele>
        <time>2000-01-01T05:06:37.000Z</time>
      </trkpt>
      <trkpt lat="45.0272" lon="5.8566">
        <ele>1356.3</ele>
        <time>2000-01-01T05:06:47.000Z</time>
      </trkpt>
      <trkpt lat="45.0272" lon="5.85652">
        <ele>1356.6</ele>
        <time>2000-01-01T05:06:57.000Z</time>
      </trkpt>
      <trkpt lat="45.02723" lon="5.85647">
        <ele>1356.7</ele>
        <time>2000-01-01T05:07:07.000Z</time>
      </trkpt>
      <trkpt lat="45.02727" lon="5.85641">
        <ele>1356</ele>
        <time>2000-01-01T05:07:17.000Z</time>
      </trkpt>
      <trkpt lat="45.02734" lon="5.85635">
        <ele>1356.7</ele>
        <time>2000-01-01T05:07:27.000Z</time>
      </trkpt>
      <trkpt lat="45.02793" lon="5.8563">
        <ele>1352</ele>
        <time>2000-01-01T05:07:37.000Z</time>
      </trkpt>
      <trkpt lat="45.0281" lon="5.85662">
        <ele>1352</ele>
        <time>2000-01-01T05:07:47.000Z</time>
      </trkpt>
      <trkpt lat="45.02856" lon="5.85674">
        <ele>1354</ele>
        <time>2000-01-01T05:07:57.000Z</time>
      </trkpt>
      <trkpt lat="45.0287" lon="5.85706">
        <ele>1355</ele>
        <time>2000-01-01T05:08:07.000Z</time>
      </trkpt>
      <trkpt lat="45.02886" lon="5.85744">
        <ele>1356</ele>
        <time>2000-01-01T05:08:17.000Z</time>
      </trkpt>
      <trkpt lat="45.02861" lon="5.85768">
        <ele>1356</ele>
        <time>2000-01-01T05:08:27.000Z</time>
      </trkpt>
      <trkpt lat="45.02819" lon="5.85808">
        <ele>1356</ele>
        <time>2000-01-01T05:08:37.000Z</time>
      </trkpt>
      <trkpt lat="45.02782" lon="5.858">
        <ele>1356</ele>
        <time>2000-01-01T05:08:47.000Z</time>
      </trkpt>
      <trkpt lat="45.0278" lon="5.85793">
        <ele>1356.6</ele>
        <time>2000-01-01T05:08:57.000Z</time>
      </trkpt>
      <trkpt lat="45.02774" lon="5.85797">
        <ele>1356.7</ele>
        <time>2000-01-01T05:09:07.000Z</time>
      </trkpt>
      <trkpt lat="45.02768" lon="5.85803">
        <ele>1356</ele>
        <time>2000-01-01T05:09:17.000Z</time>
      </trkpt>
      <trkpt lat="45.02762" lon="5.85805">
        <ele>1357</ele>
        <time>2000-01-01T05:09:27.000Z</time>
      </trkpt>
      <trkpt lat="45.02738" lon="5.85805">
        <ele>1356</ele>
        <time>2000-01-01T05:09:37.000Z</time>
      </trkpt>
      <trkpt lat="45.02737" lon="5.85854">
        <ele>1357</ele>
        <time>2000-01-01T05:09:47.000Z</time>
      </trkpt>
      <trkpt lat="45.02735" lon="5.85904">
        <ele>1358</ele>
        <time>2000-01-01T05:09:57.000Z</time>
      </trkpt>
      <trkpt lat="45.02733" lon="5.85989">
        <ele>1360</ele>
        <time>2000-01-01T05:10:07.000Z</time>
      </trkpt>
      <trkpt lat="45.02734" lon="5.86013">
        <ele>1361.9</ele>
        <time>2000-01-01T05:10:17.000Z</time>
      </trkpt>
      <trkpt lat="45.02743" lon="5.86059">
        <ele>1363</ele>
        <time>2000-01-01T05:10:27.000Z</time>
      </trkpt>
      <trkpt lat="45.02755" lon="5.861">
        <ele>1365</ele>
        <time>2000-01-01T05:10:37.000Z</time>
      </trkpt>
      <trkpt lat="45.02763" lon="5.86132">
        <ele>1366</ele>
        <time>2000-01-01T05:10:47.000Z</time>
      </trkpt>
      <trkpt lat="45.02771" lon="5.86148">
        <ele>1367</ele>
        <time>2000-01-01T05:10:57.000Z</time>
      </trkpt>
      <trkpt lat="45.02784" lon="5.86169">
        <ele>1367</ele>
        <time>2000-01-01T05:11:07.000Z</time>
      </trkpt>
      <trkpt lat="45.02817" lon="5.86209">
        <ele>1368</ele>
        <time>2000-01-01T05:11:17.000Z</time>
      </trkpt>
      <trkpt lat="45.02846" lon="5.86219">
        <ele>1370</ele>
        <time>2000-01-01T05:11:27.000Z</time>
      </trkpt>
      <trkpt lat="45.02878" lon="5.86227">
        <ele>1372</ele>
        <time>2000-01-01T05:11:37.000Z</time>
      </trkpt>
      <trkpt lat="45.02884" lon="5.86236">
        <ele>1373.7</ele>
        <time>2000-01-01T05:11:47.000Z</time>
      </trkpt>
      <trkpt lat="45.02887" lon="5.86245">
        <ele>1374.5</ele>
        <time>2000-01-01T05:11:57.000Z</time>
      </trkpt>
      <trkpt lat="45.02887" lon="5.86251">
        <ele>1374</ele>
        <time>2000-01-01T05:12:07.000Z</time>
      </trkpt>
      <trkpt lat="45.02885" lon="5.8626">
        <ele>1376.1</ele>
        <time>2000-01-01T05:12:17.000Z</time>
      </trkpt>
      <trkpt lat="45.02875" lon="5.86275">
        <ele>1375</ele>
        <time>2000-01-01T05:12:27.000Z</time>
      </trkpt>
      <trkpt lat="45.02862" lon="5.86288">
        <ele>1378</ele>
        <time>2000-01-01T05:12:37.000Z</time>
      </trkpt>
      <trkpt lat="45.02847" lon="5.86301">
        <ele>1377</ele>
        <time>2000-01-01T05:12:47.000Z</time>
      </trkpt>
      <trkpt lat="45.02837" lon="5.86313">
        <ele>1380</ele>
        <time>2000-01-01T05:12:57.000Z</time>
      </trkpt>
      <trkpt lat="45.02827" lon="5.86327">
        <ele>1380</ele>
        <time>2000-01-01T05:13:07.000Z</time>
      </trkpt>
      <trkpt lat="45.0282" lon="5.86335">
        <ele>1384</ele>
        <time>2000-01-01T05:13:17.000Z</time>
      </trkpt>
      <trkpt lat="45.02813" lon="5.86345">
        <ele>1386.3</ele>
        <time>2000-01-01T05:13:27.000Z</time>
      </trkpt>
      <trkpt lat="45.028" lon="5.86356">
        <ele>1386</ele>
        <time>2000-01-01T05:13:37.000Z</time>
      </trkpt>
      <trkpt lat="45.02787" lon="5.86364">
        <ele>1390.3</ele>
        <time>2000-01-01T05:13:47.000Z</time>
      </trkpt>
      <trkpt lat="45.02772" lon="5.86372">
        <ele>1392</ele>
        <time>2000-01-01T05:13:57.000Z</time>
      </trkpt>
      <trkpt lat="45.02746" lon="5.86384">
        <ele>1395</ele>
        <time>2000-01-01T05:14:07.000Z</time>
      </trkpt>
      <trkpt lat="45.02734" lon="5.86393">
        <ele>1399.9</ele>
        <time>2000-01-01T05:14:17.000Z</time>
      </trkpt>
      <trkpt lat="45.02727" lon="5.86395">
        <ele>1396</ele>
        <time>2000-01-01T05:14:27.000Z</time>
      </trkpt>
      <trkpt lat="45.02731" lon="5.86398">
        <ele>1401.6</ele>
        <time>2000-01-01T05:14:37.000Z</time>
      </trkpt>
      <trkpt lat="45.02727" lon="5.86395">
        <ele>1400.8</ele>
        <time>2000-01-01T05:14:47.000Z</time>
      </trkpt>
      <trkpt lat="45.02719" lon="5.86394">
        <ele>1401</ele>
        <time>2000-01-01T05:14:57.000Z</time>
      </trkpt>
      <trkpt lat="45.02706" lon="5.86387">
        <ele>1398</ele>
        <time>2000-01-01T05:15:07.000Z</time>
      </trkpt>
      <trkpt lat="45.0269" lon="5.86385">
        <ele>1401.1</ele>
        <time>2000-01-01T05:15:17.000Z</time>
      </trkpt>
      <trkpt lat="45.02682" lon="5.86386">
        <ele>1400</ele>
        <time>2000-01-01T05:15:27.000Z</time>
      </trkpt>
      <trkpt lat="45.02668" lon="5.86384">
        <ele>1401.7</ele>
        <time>2000-01-01T05:15:37.000Z</time>
      </trkpt>
      <trkpt lat="45.02657" lon="5.86385">
        <ele>1401</ele>
        <time>2000-01-01T05:15:47.000Z</time>
      </trkpt>
      <trkpt lat="45.02654" lon="5.86389">
        <ele>1403.5</ele>
        <time>2000-01-01T05:15:57.000Z</time>
      </trkpt>
      <trkpt lat="45.02651" lon="5.86399">
        <ele>1406.3</ele>
        <time>2000-01-01T05:16:07.000Z</time>
      </trkpt>
      <trkpt lat="45.0265" lon="5.86409">
        <ele>1409</ele>
        <time>2000-01-01T05:16:17.000Z</time>
      </trkpt>
      <trkpt lat="45.0265" lon="5.86443">
        <ele>1418</ele>
        <time>2000-01-01T05:16:27.000Z</time>
      </trkpt>
      <trkpt lat="45.02639" lon="5.86459">
        <ele>1424.7</ele>
        <time>2000-01-01T05:16:37.000Z</time>
      </trkpt>
      <trkpt lat="45.02631" lon="5.86475">
        <ele>1428</ele>
        <time>2000-01-01T05:16:47.000Z</time>
      </trkpt>
      <trkpt lat="45.02621" lon="5.8649">
        <ele>1433.7</ele>
        <time>2000-01-01T05:16:57.000Z</time>
      </trkpt>
      <trkpt lat="45.02601" lon="5.86499">
        <ele>1433</ele>
        <time>2000-01-01T05:17:07.000Z</time>
      </trkpt>
      <trkpt lat="45.02593" lon="5.86513">
        <ele>1438.4</ele>
        <time>2000-01-01T05:17:17.000Z</time>
      </trkpt>
      <trkpt lat="45.02583" lon="5.86525">
        <ele>1440</ele>
        <time>2000-01-01T05:17:27.000Z</time>
      </trkpt>
      <trkpt lat="45.02578" lon="5.86536">
        <ele>1443.7</ele>
        <time>2000-01-01T05:17:37.000Z</time>
      </trkpt>
      <trkpt lat="45.02579" lon="5.86549">
        <ele>1447.2</ele>
        <time>2000-01-01T05:17:47.000Z</time>
      </trkpt>
      <trkpt lat="45.02576" lon="5.86562">
        <ele>1449</ele>
        <time>2000-01-01T05:17:57.000Z</time>
      </trkpt>
      <trkpt lat="45.02566" lon="5.86579">
        <ele>1455.4</ele>
        <time>2000-01-01T05:18:07.000Z</time>
      </trkpt>
      <trkpt lat="45.02552" lon="5.86592">
        <ele>1458</ele>
        <time>2000-01-01T05:18:17.000Z</time>
      </trkpt>
      <trkpt lat="45.02537" lon="5.86608">
        <ele>1462.1</ele>
        <time>2000-01-01T05:18:27.000Z</time>
      </trkpt>
      <trkpt lat="45.02529" lon="5.86625">
        <ele>1463</ele>
        <time>2000-01-01T05:18:37.000Z</time>
      </trkpt>
      <trkpt lat="45.02526" lon="5.86642">
        <ele>1470.6</ele>
        <time>2000-01-01T05:18:47.000Z</time>
      </trkpt>
      <trkpt lat="45.0251" lon="5.86658">
        <ele>1469</ele>
        <time>2000-01-01T05:18:57.000Z</time>
      </trkpt>
      <trkpt lat="45.02497" lon="5.86676">
        <ele>1473.1</ele>
        <time>2000-01-01T05:19:07.000Z</time>
      </trkpt>
      <trkpt lat="45.02501" lon="5.86687">
        <ele>1474</ele>
        <time>2000-01-01T05:19:17.000Z</time>
      </trkpt>
      <trkpt lat="45.02501" lon="5.86701">
        <ele>1479.7</ele>
        <time>2000-01-01T05:19:27.000Z</time>
      </trkpt>
      <trkpt lat="45.02504" lon="5.86722">
        <ele>1483</ele>
        <time>2000-01-01T05:19:37.000Z</time>
      </trkpt>
      <trkpt lat="45.02502" lon="5.86738">
        <ele>1488</ele>
        <time>2000-01-01T05:19:47.000Z</time>
      </trkpt>
      <trkpt lat="45.02492" lon="5.86761">
        <ele>1484</ele>
        <time>2000-01-01T05:19:57.000Z</time>
      </trkpt>
      <trkpt lat="45.02479" lon="5.86786">
        <ele>1485</ele>
        <time>2000-01-01T05:20:07.000Z</time>
      </trkpt>
      <trkpt lat="45.02473" lon="5.86812">
        <ele>1490</ele>
        <time>2000-01-01T05:20:17.000Z</time>
      </trkpt>
      <trkpt lat="45.02469" lon="5.8684">
        <ele>1490</ele>
        <time>2000-01-01T05:20:27.000Z</time>
      </trkpt>
      <trkpt lat="45.02469" lon="5.86866">
        <ele>1497.7</ele>
        <time>2000-01-01T05:20:37.000Z</time>
      </trkpt>
      <trkpt lat="45.02473" lon="5.86924">
        <ele>1497</ele>
        <time>2000-01-01T05:20:47.000Z</time>
      </trkpt>
      <trkpt lat="45.02467" lon="5.86947">
        <ele>1512.5</ele>
        <time>2000-01-01T05:20:57.000Z</time>
      </trkpt>
      <trkpt lat="45.02446" lon="5.86948">
        <ele>1504</ele>
        <time>2000-01-01T05:21:07.000Z</time>
      </trkpt>
      <trkpt lat="45.02427" lon="5.86953">
        <ele>1504</ele>
        <time>2000-01-01T05:21:17.000Z</time>
      </trkpt>
      <trkpt lat="45.02411" lon="5.86972">
        <ele>1507</ele>
        <time>2000-01-01T05:21:27.000Z</time>
      </trkpt>
      <trkpt lat="45.024" lon="5.86997">
        <ele>1507</ele>
        <time>2000-01-01T05:21:37.000Z</time>
      </trkpt>
      <trkpt lat="45.02392" lon="5.87022">
        <ele>1515</ele>
        <time>2000-01-01T05:21:47.000Z</time>
      </trkpt>
      <trkpt lat="45.02384" lon="5.87054">
        <ele>1518</ele>
        <time>2000-01-01T05:21:57.000Z</time>
      </trkpt>
      <trkpt lat="45.02375" lon="5.87083">
        <ele>1522</ele>
        <time>2000-01-01T05:22:07.000Z</time>
      </trkpt>
      <trkpt lat="45.02369" lon="5.87106">
        <ele>1527</ele>
        <time>2000-01-01T05:22:17.000Z</time>
      </trkpt>
      <trkpt lat="45.02366" lon="5.87132">
        <ele>1528</ele>
        <time>2000-01-01T05:22:27.000Z</time>
      </trkpt>
      <trkpt lat="45.02365" lon="5.8717">
        <ele>1537</ele>
        <time>2000-01-01T05:22:37.000Z</time>
      </trkpt>
      <trkpt lat="45.0236" lon="5.87194">
        <ele>1544.4</ele>
        <time>2000-01-01T05:22:47.000Z</time>
      </trkpt>
      <trkpt lat="45.02349" lon="5.87223">
        <ele>1542</ele>
        <time>2000-01-01T05:22:57.000Z</time>
      </trkpt>
      <trkpt lat="45.02337" lon="5.87251">
        <ele>1542</ele>
        <time>2000-01-01T05:23:07.000Z</time>
      </trkpt>
      <trkpt lat="45.02322" lon="5.87276">
        <ele>1542</ele>
        <time>2000-01-01T05:23:17.000Z</time>
      </trkpt>
      <trkpt lat="45.02311" lon="5.87303">
        <ele>1544</ele>
        <time>2000-01-01T05:23:27.000Z</time>
      </trkpt>
      <trkpt lat="45.02308" lon="5.87329">
        <ele>1546.6</ele>
        <time>2000-01-01T05:23:37.000Z</time>
      </trkpt>
      <trkpt lat="45.02302" lon="5.87357">
        <ele>1544</ele>
        <time>2000-01-01T05:23:47.000Z</time>
      </trkpt>
      <trkpt lat="45.02297" lon="5.87386">
        <ele>1540</ele>
        <time>2000-01-01T05:23:57.000Z</time>
      </trkpt>
      <trkpt lat="45.02297" lon="5.87411">
        <ele>1540.9</ele>
        <time>2000-01-01T05:24:07.000Z</time>
      </trkpt>
      <trkpt lat="45.02309" lon="5.87439">
        <ele>1543</ele>
        <time>2000-01-01T05:24:17.000Z</time>
      </trkpt>
      <trkpt lat="45.02325" lon="5.87464">
        <ele>1547</ele>
        <time>2000-01-01T05:24:27.000Z</time>
      </trkpt>
      <trkpt lat="45.02334" lon="5.87504">
        <ele>1556</ele>
        <time>2000-01-01T05:24:37.000Z</time>
      </trkpt>
      <trkpt lat="45.0233" lon="5.87528">
        <ele>1567.5</ele>
        <time>2000-01-01T05:24:47.000Z</time>
      </trkpt>
      <trkpt lat="45.02288" lon="5.87598">
        <ele>1566</ele>
        <time>2000-01-01T05:24:57.000Z</time>
      </trkpt>
      <trkpt lat="45.02287" lon="5.87632">
        <ele>1566</ele>
        <time>2000-01-01T05:25:07.000Z</time>
      </trkpt>
      <trkpt lat="45.02285" lon="5.87658">
        <ele>1572.7</ele>
        <time>2000-01-01T05:25:17.000Z</time>
      </trkpt>
      <trkpt lat="45.02284" lon="5.87681">
        <ele>1573</ele>
        <time>2000-01-01T05:25:27.000Z</time>
      </trkpt>
      <trkpt lat="45.02284" lon="5.87736">
        <ele>1582</ele>
        <time>2000-01-01T05:25:37.000Z</time>
      </trkpt>
      <trkpt lat="45.02286" lon="5.87781">
        <ele>1587</ele>
        <time>2000-01-01T05:25:47.000Z</time>
      </trkpt>
      <trkpt lat="45.02291" lon="5.87798">
        <ele>1594.8</ele>
        <time>2000-01-01T05:25:57.000Z</time>
      </trkpt>
      <trkpt lat="45.02291" lon="5.87824">
        <ele>1595</ele>
        <time>2000-01-01T05:26:07.000Z</time>
      </trkpt>
      <trkpt lat="45.02294" lon="5.87847">
        <ele>1601.2</ele>
        <time>2000-01-01T05:26:17.000Z</time>
      </trkpt>
      <trkpt lat="45.02298" lon="5.87872">
        <ele>1600</ele>
        <time>2000-01-01T05:26:27.000Z</time>
      </trkpt>
      <trkpt lat="45.02307" lon="5.87914">
        <ele>1609</ele>
        <time>2000-01-01T05:26:37.000Z</time>
      </trkpt>
      <trkpt lat="45.02322" lon="5.87963">
        <ele>1612</ele>
        <time>2000-01-01T05:26:47.000Z</time>
      </trkpt>
      <trkpt lat="45.02327" lon="5.87991">
        <ele>1615</ele>
        <time>2000-01-01T05:26:57.000Z</time>
      </trkpt>
      <trkpt lat="45.02338" lon="5.88017">
        <ele>1617</ele>
        <time>2000-01-01T05:27:07.000Z</time>
      </trkpt>
      <trkpt lat="45.02346" lon="5.8805">
        <ele>1621</ele>
        <time>2000-01-01T05:27:17.000Z</time>
      </trkpt>
      <trkpt lat="45.02348" lon="5.88075">
        <ele>1625.7</ele>
        <time>2000-01-01T05:27:27.000Z</time>
      </trkpt>
      <trkpt lat="45.02352" lon="5.88088">
        <ele>1626</ele>
        <time>2000-01-01T05:27:37.000Z</time>
      </trkpt>
      <trkpt lat="45.02357" lon="5.88068">
        <ele>1632.2</ele>
        <time>2000-01-01T05:27:47.000Z</time>
      </trkpt>
      <trkpt lat="45.02362" lon="5.88044">
        <ele>1635</ele>
        <time>2000-01-01T05:27:57.000Z</time>
      </trkpt>
      <trkpt lat="45.0236" lon="5.88016">
        <ele>1639</ele>
        <time>2000-01-01T05:28:07.000Z</time>
      </trkpt>
      <trkpt lat="45.02362" lon="5.87992">
        <ele>1645.1</ele>
        <time>2000-01-01T05:28:17.000Z</time>
      </trkpt>
      <trkpt lat="45.02363" lon="5.87968">
        <ele>1647</ele>
        <time>2000-01-01T05:28:27.000Z</time>
      </trkpt>
      <trkpt lat="45.02361" lon="5.87946">
        <ele>1649.8</ele>
        <time>2000-01-01T05:28:37.000Z</time>
      </trkpt>
      <trkpt lat="45.02365" lon="5.87923">
        <ele>1648</ele>
        <time>2000-01-01T05:28:47.000Z</time>
      </trkpt>
      <trkpt lat="45.02382" lon="5.87885">
        <ele>1658</ele>
        <time>2000-01-01T05:28:57.000Z</time>
      </trkpt>
      <trkpt lat="45.02389" lon="5.87868">
        <ele>1663.6</ele>
        <time>2000-01-01T05:29:07.000Z</time>
      </trkpt>
      <trkpt lat="45.02396" lon="5.87855">
        <ele>1660</ele>
        <time>2000-01-01T05:29:17.000Z</time>
      </trkpt>
      <trkpt lat="45.02398" lon="5.87871">
        <ele>1668.4</ele>
        <time>2000-01-01T05:29:27.000Z</time>
      </trkpt>
      <trkpt lat="45.02399" lon="5.87887">
        <ele>1663</ele>
        <time>2000-01-01T05:29:37.000Z</time>
      </trkpt>
      <trkpt lat="45.02403" lon="5.87914">
        <ele>1673</ele>
        <time>2000-01-01T05:29:47.000Z</time>
      </trkpt>
      <trkpt lat="45.02405" lon="5.87933">
        <ele>1676.4</ele>
        <time>2000-01-01T05:29:57.000Z</time>
      </trkpt>
      <trkpt lat="45.02411" lon="5.87951">
        <ele>1679</ele>
        <time>2000-01-01T05:30:07.000Z</time>
      </trkpt>
      <trkpt lat="45.02409" lon="5.87962">
        <ele>1679.1</ele>
        <time>2000-01-01T05:30:17.000Z</time>
      </trkpt>
      <trkpt lat="45.02422" lon="5.87975">
        <ele>1684</ele>
        <time>2000-01-01T05:30:27.000Z</time>
      </trkpt>
      <trkpt lat="45.02426" lon="5.87992">
        <ele>1687.8</ele>
        <time>2000-01-01T05:30:37.000Z</time>
      </trkpt>
      <trkpt lat="45.02435" lon="5.88009">
        <ele>1690</ele>
        <time>2000-01-01T05:30:47.000Z</time>
      </trkpt>
      <trkpt lat="45.02447" lon="5.88025">
        <ele>1696.2</ele>
        <time>2000-01-01T05:30:57.000Z</time>
      </trkpt>
      <trkpt lat="45.02455" lon="5.8804">
        <ele>1693</ele>
        <time>2000-01-01T05:31:07.000Z</time>
      </trkpt>
      <trkpt lat="45.02461" lon="5.88047">
        <ele>1700.8</ele>
        <time>2000-01-01T05:31:17.000Z</time>
      </trkpt>
      <trkpt lat="45.02476" lon="5.88073">
        <ele>1700</ele>
        <time>2000-01-01T05:31:27.000Z</time>
      </trkpt>
      <trkpt lat="45.02483" lon="5.8809">
        <ele>1705.6</ele>
        <time>2000-01-01T05:31:37.000Z</time>
      </trkpt>
      <trkpt lat="45.02499" lon="5.88123">
        <ele>1705</ele>
        <time>2000-01-01T05:31:47.000Z</time>
      </trkpt>
      <trkpt lat="45.02505" lon="5.88147">
        <ele>1714.2</ele>
        <time>2000-01-01T05:31:57.000Z</time>
      </trkpt>
      <trkpt lat="45.02509" lon="5.88178">
        <ele>1709</ele>
        <time>2000-01-01T05:32:07.000Z</time>
      </trkpt>
      <trkpt lat="45.02517" lon="5.882">
        <ele>1725.2</ele>
        <time>2000-01-01T05:32:17.000Z</time>
      </trkpt>
      <trkpt lat="45.02519" lon="5.88214">
        <ele>1718</ele>
        <time>2000-01-01T05:32:27.000Z</time>
      </trkpt>
      <trkpt lat="45.02512" lon="5.88236">
        <ele>1730.1</ele>
        <time>2000-01-01T05:32:37.000Z</time>
      </trkpt>
      <trkpt lat="45.025" lon="5.8825">
        <ele>1733</ele>
        <time>2000-01-01T05:32:47.000Z</time>
      </trkpt>
      <trkpt lat="45.02492" lon="5.88261">
        <ele>1733.7</ele>
        <time>2000-01-01T05:32:57.000Z</time>
      </trkpt>
      <trkpt lat="45.02491" lon="5.88284">
        <ele>1741</ele>
        <time>2000-01-01T05:33:07.000Z</time>
      </trkpt>
      <trkpt lat="45.02487" lon="5.88303">
        <ele>1744.3</ele>
        <time>2000-01-01T05:33:17.000Z</time>
      </trkpt>
      <trkpt lat="45.02486" lon="5.88326">
        <ele>1744</ele>
        <time>2000-01-01T05:33:27.000Z</time>
      </trkpt>
      <trkpt lat="45.02495" lon="5.88316">
        <ele>1751.9</ele>
        <time>2000-01-01T05:33:37.000Z</time>
      </trkpt>
      <trkpt lat="45.0251" lon="5.88303">
        <ele>1753</ele>
        <time>2000-01-01T05:33:47.000Z</time>
      </trkpt>
      <trkpt lat="45.02523" lon="5.88299">
        <ele>1756.7</ele>
        <time>2000-01-01T05:33:57.000Z</time>
      </trkpt>
      <trkpt lat="45.0252" lon="5.88309">
        <ele>1757</ele>
        <time>2000-01-01T05:34:07.000Z</time>
      </trkpt>
      <trkpt lat="45.02511" lon="5.88329">
        <ele>1762.5</ele>
        <time>2000-01-01T05:34:17.000Z</time>
      </trkpt>
      <trkpt lat="45.02504" lon="5.88351">
        <ele>1759</ele>
        <time>2000-01-01T05:34:27.000Z</time>
      </trkpt>
      <trkpt lat="45.02494" lon="5.88372">
        <ele>1768.3</ele>
        <time>2000-01-01T05:34:37.000Z</time>
      </trkpt>
      <trkpt lat="45.02488" lon="5.88386">
        <ele>1762</ele>
        <time>2000-01-01T05:34:47.000Z</time>
      </trkpt>
      <trkpt lat="45.02484" lon="5.88409">
        <ele>1775.2</ele>
        <time>2000-01-01T05:34:57.000Z</time>
      </trkpt>
      <trkpt lat="45.02473" lon="5.88422">
        <ele>1770</ele>
        <time>2000-01-01T05:35:07.000Z</time>
      </trkpt>
      <trkpt lat="45.02469" lon="5.88434">
        <ele>1779.9</ele>
        <time>2000-01-01T05:35:17.000Z</time>
      </trkpt>
      <trkpt lat="45.0246" lon="5.88437">
        <ele>1783.9</ele>
        <time>2000-01-01T05:35:27.000Z</time>
      </trkpt>
      <trkpt lat="45.02443" lon="5.88436">
        <ele>1787</ele>
        <time>2000-01-01T05:35:37.000Z</time>
      </trkpt>
      <trkpt lat="45.02438" lon="5.88443">
        <ele>1794.4</ele>
        <time>2000-01-01T05:35:47.000Z</time>
      </trkpt>
      <trkpt lat="45.02421" lon="5.8844">
        <ele>1801</ele>
        <time>2000-01-01T05:35:57.000Z</time>
      </trkpt>
      <trkpt lat="45.02417" lon="5.88446">
        <ele>1803.4</ele>
        <time>2000-01-01T05:36:07.000Z</time>
      </trkpt>
      <trkpt lat="45.02423" lon="5.88454">
        <ele>1804.4</ele>
        <time>2000-01-01T05:36:17.000Z</time>
      </trkpt>
      <trkpt lat="45.02422" lon="5.88457">
        <ele>1805.8</ele>
        <time>2000-01-01T05:36:27.000Z</time>
      </trkpt>
      <trkpt lat="45.02414" lon="5.88467">
        <ele>1806</ele>
        <time>2000-01-01T05:36:37.000Z</time>
      </trkpt>
      <trkpt lat="45.02422" lon="5.88475">
        <ele>1812.4</ele>
        <time>2000-01-01T05:36:47.000Z</time>
      </trkpt>
      <trkpt lat="45.02434" lon="5.88478">
        <ele>1813</ele>
        <time>2000-01-01T05:36:57.000Z</time>
      </trkpt>
      <trkpt lat="45.02445" lon="5.88484">
        <ele>1816.6</ele>
        <time>2000-01-01T05:37:07.000Z</time>
      </trkpt>
      <trkpt lat="45.02446" lon="5.88492">
        <ele>1821</ele>
        <time>2000-01-01T05:37:17.000Z</time>
      </trkpt>
      <trkpt lat="45.02433" lon="5.88502">
        <ele>1825</ele>
        <time>2000-01-01T05:37:27.000Z</time>
      </trkpt>
      <trkpt lat="45.02437" lon="5.88509">
        <ele>1826.9</ele>
        <time>2000-01-01T05:37:37.000Z</time>
      </trkpt>
      <trkpt lat="45.0245" lon="5.88509">
        <ele>1826</ele>
        <time>2000-01-01T05:37:47.000Z</time>
      </trkpt>
      <trkpt lat="45.02457" lon="5.88517">
        <ele>1833</ele>
        <time>2000-01-01T05:37:57.000Z</time>
      </trkpt>
      <trkpt lat="45.02476" lon="5.88524">
        <ele>1837</ele>
        <time>2000-01-01T05:38:07.000Z</time>
      </trkpt>
      <trkpt lat="45.0249" lon="5.88525">
        <ele>1839</ele>
        <time>2000-01-01T05:38:17.000Z</time>
      </trkpt>
      <trkpt lat="45.025" lon="5.88531">
        <ele>1836</ele>
        <time>2000-01-01T05:38:27.000Z</time>
      </trkpt>
      <trkpt lat="45.02516" lon="5.88537">
        <ele>1851.5</ele>
        <time>2000-01-01T05:38:37.000Z</time>
      </trkpt>
      <trkpt lat="45.02518" lon="5.88523">
        <ele>1836</ele>
        <time>2000-01-01T05:38:47.000Z</time>
      </trkpt>
      <trkpt lat="45.02532" lon="5.8852">
        <ele>1847.2</ele>
        <time>2000-01-01T05:38:57.000Z</time>
      </trkpt>
      <trkpt lat="45.02542" lon="5.88513">
        <ele>1844</ele>
        <time>2000-01-01T05:39:07.000Z</time>
      </trkpt>
      <trkpt lat="45.02557" lon="5.8851">
        <ele>1856.3</ele>
        <time>2000-01-01T05:39:17.000Z</time>
      </trkpt>
      <trkpt lat="45.02567" lon="5.88515">
        <ele>1856</ele>
        <time>2000-01-01T05:39:27.000Z</time>
      </trkpt>
      <trkpt lat="45.02574" lon="5.88517">
        <ele>1866.5</ele>
        <time>2000-01-01T05:39:37.000Z</time>
      </trkpt>
      <trkpt lat="45.02586" lon="5.88519">
        <ele>1865</ele>
        <time>2000-01-01T05:39:47.000Z</time>
      </trkpt>
      <trkpt lat="45.02595" lon="5.88518">
        <ele>1875.2</ele>
        <time>2000-01-01T05:39:57.000Z</time>
      </trkpt>
      <trkpt lat="45.02618" lon="5.88506">
        <ele>1873</ele>
        <time>2000-01-01T05:40:07.000Z</time>
      </trkpt>
      <trkpt lat="45.02628" lon="5.88508">
        <ele>1883</ele>
        <time>2000-01-01T05:40:17.000Z</time>
      </trkpt>
      <trkpt lat="45.02641" lon="5.88506">
        <ele>1884</ele>
        <time>2000-01-01T05:40:27.000Z</time>
      </trkpt>
      <trkpt lat="45.02632" lon="5.88517">
        <ele>1888.9</ele>
        <time>2000-01-01T05:40:37.000Z</time>
      </trkpt>
      <trkpt lat="45.02627" lon="5.88531">
        <ele>1891</ele>
        <time>2000-01-01T05:40:47.000Z</time>
      </trkpt>
      <trkpt lat="45.0262" lon="5.88541">
        <ele>1896.2</ele>
        <time>2000-01-01T05:40:57.000Z</time>
      </trkpt>
      <trkpt lat="45.02613" lon="5.88557">
        <ele>1899</ele>
        <time>2000-01-01T05:41:07.000Z</time>
      </trkpt>
      <trkpt lat="45.02605" lon="5.88566">
        <ele>1903.3</ele>
        <time>2000-01-01T05:41:17.000Z</time>
      </trkpt>
      <trkpt lat="45.02592" lon="5.88575">
        <ele>1899</ele>
        <time>2000-01-01T05:41:27.000Z</time>
      </trkpt>
      <trkpt lat="45.0258" lon="5.88586">
        <ele>1903.3</ele>
        <time>2000-01-01T05:41:37.000Z</time>
      </trkpt>
      <trkpt lat="45.02575" lon="5.88598">
        <ele>1908</ele>
        <time>2000-01-01T05:41:47.000Z</time>
      </trkpt>
      <trkpt lat="45.02582" lon="5.88605">
        <ele>1912.6</ele>
        <time>2000-01-01T05:41:57.000Z</time>
      </trkpt>
      <trkpt lat="45.02606" lon="5.88601">
        <ele>1917</ele>
        <time>2000-01-01T05:42:07.000Z</time>
      </trkpt>
      <trkpt lat="45.0262" lon="5.88602">
        <ele>1925.6</ele>
        <time>2000-01-01T05:42:17.000Z</time>
      </trkpt>
      <trkpt lat="45.02635" lon="5.88602">
        <ele>1926</ele>
        <time>2000-01-01T05:42:27.000Z</time>
      </trkpt>
      <trkpt lat="45.02649" lon="5.88608">
        <ele>1937.6</ele>
        <time>2000-01-01T05:42:37.000Z</time>
      </trkpt>
      <trkpt lat="45.02662" lon="5.88605">
        <ele>1936</ele>
        <time>2000-01-01T05:42:47.000Z</time>
      </trkpt>
      <trkpt lat="45.02668" lon="5.8861">
        <ele>1944.8</ele>
        <time>2000-01-01T05:42:57.000Z</time>
      </trkpt>
      <trkpt lat="45.02676" lon="5.88612">
        <ele>1948.1</ele>
        <time>2000-01-01T05:43:07.000Z</time>
      </trkpt>
      <trkpt lat="45.02685" lon="5.88607">
        <ele>1943</ele>
        <time>2000-01-01T05:43:17.000Z</time>
      </trkpt>
      <trkpt lat="45.02699" lon="5.88612">
        <ele>1954.7</ele>
        <time>2000-01-01T05:43:27.000Z</time>
      </trkpt>
      <trkpt lat="45.02704" lon="5.8862">
        <ele>1954</ele>
        <time>2000-01-01T05:43:37.000Z</time>
      </trkpt>
      <trkpt lat="45.02711" lon="5.88617">
        <ele>1960.2</ele>
        <time>2000-01-01T05:43:47.000Z</time>
      </trkpt>
      <trkpt lat="45.02735" lon="5.88617">
        <ele>1963</ele>
        <time>2000-01-01T05:43:57.000Z</time>
      </trkpt>
      <trkpt lat="45.02747" lon="5.88619">
        <ele>1970.5</ele>
        <time>2000-01-01T05:44:07.000Z</time>
      </trkpt>
      <trkpt lat="45.02758" lon="5.88624">
        <ele>1971</ele>
        <time>2000-01-01T05:44:17.000Z</time>
      </trkpt>
      <trkpt lat="45.02771" lon="5.88623">
        <ele>1978.2</ele>
        <time>2000-01-01T05:44:27.000Z</time>
      </trkpt>
      <trkpt lat="45.02782" lon="5.88609">
        <ele>1973</ele>
        <time>2000-01-01T05:44:37.000Z</time>
      </trkpt>
      <trkpt lat="45.0279" lon="5.88567">
        <ele>1979</ele>
        <time>2000-01-01T05:44:47.000Z</time>
      </trkpt>
      <trkpt lat="45.02794" lon="5.88554">
        <ele>1980.6</ele>
        <time>2000-01-01T05:44:57.000Z</time>
      </trkpt>
      <trkpt lat="45.02803" lon="5.88552">
        <ele>1985</ele>
        <time>2000-01-01T05:45:07.000Z</time>
      </trkpt>
      <trkpt lat="45.02812" lon="5.88544">
        <ele>1992.8</ele>
        <time>2000-01-01T05:45:17.000Z</time>
      </trkpt>
      <trkpt lat="45.02822" lon="5.88532">
        <ele>1997</ele>
        <time>2000-01-01T05:45:27.000Z</time>
      </trkpt>
      <trkpt lat="45.02827" lon="5.88518">
        <ele>2001.8</ele>
        <time>2000-01-01T05:45:37.000Z</time>
      </trkpt>
      <trkpt lat="45.02828" lon="5.88522">
        <ele>2003</ele>
        <time>2000-01-01T05:45:47.000Z</time>
      </trkpt>
      <trkpt lat="45.02831" lon="5.88526">
        <ele>2005.9</ele>
        <time>2000-01-01T05:45:57.000Z</time>
      </trkpt>
      <trkpt lat="45.02827" lon="5.88533">
        <ele>1997</ele>
        <time>2000-01-01T05:46:07.000Z</time>
      </trkpt>
      <trkpt lat="45.02826" lon="5.88554">
        <ele>2004.6</ele>
        <time>2000-01-01T05:46:17.000Z</time>
      </trkpt>
      <trkpt lat="45.02826" lon="5.88588">
        <ele>2005</ele>
        <time>2000-01-01T05:46:27.000Z</time>
      </trkpt>
      <trkpt lat="45.02827" lon="5.88602">
        <ele>2012.2</ele>
        <time>2000-01-01T05:46:37.000Z</time>
      </trkpt>
      <trkpt lat="45.02829" lon="5.88617">
        <ele>2009</ele>
        <time>2000-01-01T05:46:47.000Z</time>
      </trkpt>
      <trkpt lat="45.02835" lon="5.88632">
        <ele>2021.2</ele>
        <time>2000-01-01T05:46:57.000Z</time>
      </trkpt>
      <trkpt lat="45.02843" lon="5.88624">
        <ele>2024</ele>
        <time>2000-01-01T05:47:07.000Z</time>
      </trkpt>
      <trkpt lat="45.02848" lon="5.88608">
        <ele>2030.2</ele>
        <time>2000-01-01T05:47:17.000Z</time>
      </trkpt>
      <trkpt lat="45.02854" lon="5.88598">
        <ele>2030</ele>
        <time>2000-01-01T05:47:27.000Z</time>
      </trkpt>
      <trkpt lat="45.02862" lon="5.88582">
        <ele>2037.8</ele>
        <time>2000-01-01T05:47:37.000Z</time>
      </trkpt>
      <trkpt lat="45.02869" lon="5.8857">
        <ele>2033</ele>
        <time>2000-01-01T05:47:47.000Z</time>
      </trkpt>
      <trkpt lat="45.02871" lon="5.88568">
        <ele>2046.3</ele>
        <time>2000-01-01T05:47:57.000Z</time>
      </trkpt>
      <trkpt lat="45.02872" lon="5.88595">
        <ele>2044</ele>
        <time>2000-01-01T05:48:07.000Z</time>
      </trkpt>
      <trkpt lat="45.02874" lon="5.88613">
        <ele>2052.3</ele>
        <time>2000-01-01T05:48:17.000Z</time>
      </trkpt>
      <trkpt lat="45.02877" lon="5.88625">
        <ele>2048</ele>
        <time>2000-01-01T05:48:27.000Z</time>
      </trkpt>
      <trkpt lat="45.02881" lon="5.88637">
        <ele>2059.6</ele>
        <time>2000-01-01T05:48:37.000Z</time>
      </trkpt>
      <trkpt lat="45.02881" lon="5.88665">
        <ele>2064</ele>
        <time>2000-01-01T05:48:47.000Z</time>
      </trkpt>
      <trkpt lat="45.02882" lon="5.88673">
        <ele>2069.7</ele>
        <time>2000-01-01T05:48:57.000Z</time>
      </trkpt>
      <trkpt lat="45.02878" lon="5.88681">
        <ele>2069.2</ele>
        <time>2000-01-01T05:49:07.000Z</time>
      </trkpt>
      <trkpt lat="45.02874" lon="5.88699">
        <ele>2065</ele>
        <time>2000-01-01T05:49:17.000Z</time>
      </trkpt>
      <trkpt lat="45.02876" lon="5.88711">
        <ele>2077.3</ele>
        <time>2000-01-01T05:49:27.000Z</time>
      </trkpt>
      <trkpt lat="45.02868" lon="5.88725">
        <ele>2068</ele>
        <time>2000-01-01T05:49:37.000Z</time>
      </trkpt>
      <trkpt lat="45.02863" lon="5.88744">
        <ele>2079.2</ele>
        <time>2000-01-01T05:49:47.000Z</time>
      </trkpt>
      <trkpt lat="45.02847" lon="5.88762">
        <ele>2076</ele>
        <time>2000-01-01T05:49:57.000Z</time>
      </trkpt>
      <trkpt lat="45.02835" lon="5.88773">
        <ele>2084.4</ele>
        <time>2000-01-01T05:50:07.000Z</time>
      </trkpt>
      <trkpt lat="45.02821" lon="5.88779">
        <ele>2079</ele>
        <time>2000-01-01T05:50:17.000Z</time>
      </trkpt>
      <trkpt lat="45.02806" lon="5.88781">
        <ele>2086.8</ele>
        <time>2000-01-01T05:50:27.000Z</time>
      </trkpt>
      <trkpt lat="45.02792" lon="5.88789">
        <ele>2084</ele>
        <time>2000-01-01T05:50:37.000Z</time>
      </trkpt>
      <trkpt lat="45.02785" lon="5.88796">
        <ele>2094.4</ele>
        <time>2000-01-01T05:50:47.000Z</time>
      </trkpt>
      <trkpt lat="45.02773" lon="5.88817">
        <ele>2096</ele>
        <time>2000-01-01T05:50:57.000Z</time>
      </trkpt>
      <trkpt lat="45.02776" lon="5.88824">
        <ele>2107.1</ele>
        <time>2000-01-01T05:51:07.000Z</time>
      </trkpt>
      <trkpt lat="45.02773" lon="5.88837">
        <ele>2113.3</ele>
        <time>2000-01-01T05:51:17.000Z</time>
      </trkpt>
      <trkpt lat="45.02766" lon="5.88844">
        <ele>2109</ele>
        <time>2000-01-01T05:51:27.000Z</time>
      </trkpt>
      <trkpt lat="45.02755" lon="5.88847">
        <ele>2116.3</ele>
        <time>2000-01-01T05:51:37.000Z</time>
      </trkpt>
      <trkpt lat="45.02742" lon="5.88854">
        <ele>2118</ele>
        <time>2000-01-01T05:51:47.000Z</time>
      </trkpt>
      <trkpt lat="45.02736" lon="5.88864">
        <ele>2124.1</ele>
        <time>2000-01-01T05:51:57.000Z</time>
      </trkpt>
      <trkpt lat="45.02727" lon="5.88872">
        <ele>2123</ele>
        <time>2000-01-01T05:52:07.000Z</time>
      </trkpt>
      <trkpt lat="45.02716" lon="5.88878">
        <ele>2124.5</ele>
        <time>2000-01-01T05:52:17.000Z</time>
      </trkpt>
      <trkpt lat="45.02714" lon="5.88892">
        <ele>2127</ele>
        <time>2000-01-01T05:52:27.000Z</time>
      </trkpt>
      <trkpt lat="45.02726" lon="5.88889">
        <ele>2135.3</ele>
        <time>2000-01-01T05:52:37.000Z</time>
      </trkpt>
      <trkpt lat="45.02734" lon="5.88889">
        <ele>2132</ele>
        <time>2000-01-01T05:52:47.000Z</time>
      </trkpt>
      <trkpt lat="45.02744" lon="5.8889">
        <ele>2141.6</ele>
        <time>2000-01-01T05:52:57.000Z</time>
      </trkpt>
      <trkpt lat="45.02753" lon="5.88893">
        <ele>2144</ele>
        <time>2000-01-01T05:53:07.000Z</time>
      </trkpt>
      <trkpt lat="45.02757" lon="5.88896">
        <ele>2148</ele>
        <time>2000-01-01T05:53:17.000Z</time>
      </trkpt>
      <trkpt lat="45.02737" lon="5.88925">
        <ele>2151</ele>
        <time>2000-01-01T05:53:27.000Z</time>
      </trkpt>
      <trkpt lat="45.02734" lon="5.88942">
        <ele>2160.1</ele>
        <time>2000-01-01T05:53:37.000Z</time>
      </trkpt>
      <trkpt lat="45.02733" lon="5.88954">
        <ele>2162</ele>
        <time>2000-01-01T05:53:47.000Z</time>
      </trkpt>
      <trkpt lat="45.02743" lon="5.88949">
        <ele>2169.1</ele>
        <time>2000-01-01T05:53:57.000Z</time>
      </trkpt>
      <trkpt lat="45.02756" lon="5.88941">
        <ele>2168</ele>
        <time>2000-01-01T05:54:07.000Z</time>
      </trkpt>
      <trkpt lat="45.02768" lon="5.88949">
        <ele>2179</ele>
        <time>2000-01-01T05:54:17.000Z</time>
      </trkpt>
      <trkpt lat="45.02776" lon="5.8895">
        <ele>2182</ele>
        <time>2000-01-01T05:54:27.000Z</time>
      </trkpt>
      <trkpt lat="45.02778" lon="5.88955">
        <ele>2185.5</ele>
        <time>2000-01-01T05:54:37.000Z</time>
      </trkpt>
      <trkpt lat="45.02768" lon="5.88961">
        <ele>2185.6</ele>
        <time>2000-01-01T05:54:47.000Z</time>
      </trkpt>
      <trkpt lat="45.02761" lon="5.88975">
        <ele>2188</ele>
        <time>2000-01-01T05:54:57.000Z</time>
      </trkpt>
      <trkpt lat="45.02755" lon="5.88989">
        <ele>2192.4</ele>
        <time>2000-01-01T05:55:07.000Z</time>
      </trkpt>
      <trkpt lat="45.0276" lon="5.88989">
        <ele>2195.3</ele>
        <time>2000-01-01T05:55:17.000Z</time>
      </trkpt>
      <trkpt lat="45.02768" lon="5.88983">
        <ele>2194</ele>
        <time>2000-01-01T05:55:27.000Z</time>
      </trkpt>
      <trkpt lat="45.0279" lon="5.88986">
        <ele>2202</ele>
        <time>2000-01-01T05:55:37.000Z</time>
      </trkpt>
      <trkpt lat="45.02805" lon="5.88985">
        <ele>2207.9</ele>
        <time>2000-01-01T05:55:47.000Z</time>
      </trkpt>
      <trkpt lat="45.02828" lon="5.88975">
        <ele>2208</ele>
        <time>2000-01-01T05:55:57.000Z</time>
      </trkpt>
      <trkpt lat="45.02841" lon="5.88975">
        <ele>2219.2</ele>
        <time>2000-01-01T05:56:07.000Z</time>
      </trkpt>
      <trkpt lat="45.02849" lon="5.88971">
        <ele>2215</ele>
        <time>2000-01-01T05:56:17.000Z</time>
      </trkpt>
      <trkpt lat="45.02863" lon="5.88974">
        <ele>2223.4</ele>
        <time>2000-01-01T05:56:27.000Z</time>
      </trkpt>
      <trkpt lat="45.02871" lon="5.88982">
        <ele>2226</ele>
        <time>2000-01-01T05:56:37.000Z</time>
      </trkpt>
      <trkpt lat="45.02863" lon="5.88991">
        <ele>2233.2</ele>
        <time>2000-01-01T05:56:47.000Z</time>
      </trkpt>
      <trkpt lat="45.02854" lon="5.88996">
        <ele>2230</ele>
        <time>2000-01-01T05:56:57.000Z</time>
      </trkpt>
      <trkpt lat="45.02843" lon="5.89006">
        <ele>2236.5</ele>
        <time>2000-01-01T05:57:07.000Z</time>
      </trkpt>
      <trkpt lat="45.02835" lon="5.89016">
        <ele>2234</ele>
        <time>2000-01-01T05:57:17.000Z</time>
      </trkpt>
      <trkpt lat="45.02843" lon="5.89019">
        <ele>2243</ele>
        <time>2000-01-01T05:57:27.000Z</time>
      </trkpt>
      <trkpt lat="45.02853" lon="5.89017">
        <ele>2245.2</ele>
        <time>2000-01-01T05:57:37.000Z</time>
      </trkpt>
      <trkpt lat="45.02864" lon="5.89019">
        <ele>2244</ele>
        <time>2000-01-01T05:57:47.000Z</time>
      </trkpt>
      <trkpt lat="45.02867" lon="5.89023">
        <ele>2252.5</ele>
        <time>2000-01-01T05:57:57.000Z</time>
      </trkpt>
      <trkpt lat="45.02863" lon="5.89029">
        <ele>2255.2</ele>
        <time>2000-01-01T05:58:07.000Z</time>
      </trkpt>
      <trkpt lat="45.02853" lon="5.89038">
        <ele>2252</ele>
        <time>2000-01-01T05:58:17.000Z</time>
      </trkpt>
      <trkpt lat="45.02845" lon="5.89049">
        <ele>2259.9</ele>
        <time>2000-01-01T05:58:27.000Z</time>
      </trkpt>
      <trkpt lat="45.02851" lon="5.89053">
        <ele>2264.8</ele>
        <time>2000-01-01T05:58:37.000Z</time>
      </trkpt>
      <trkpt lat="45.02858" lon="5.89051">
        <ele>2264</ele>
        <time>2000-01-01T05:58:47.000Z</time>
      </trkpt>
      <trkpt lat="45.02878" lon="5.89062">
        <ele>2274</ele>
        <time>2000-01-01T05:58:57.000Z</time>
      </trkpt>
      <trkpt lat="45.02867" lon="5.8907">
        <ele>2280.4</ele>
        <time>2000-01-01T05:59:07.000Z</time>
      </trkpt>
      <trkpt lat="45.02857" lon="5.89079">
        <ele>2275</ele>
        <time>2000-01-01T05:59:17.000Z</time>
      </trkpt>
      <trkpt lat="45.02867" lon="5.89083">
        <ele>2287.7</ele>
        <time>2000-01-01T05:59:27.000Z</time>
      </trkpt>
      <trkpt lat="45.02865" lon="5.89094">
        <ele>2293.6</ele>
        <time>2000-01-01T05:59:37.000Z</time>
      </trkpt>
      <trkpt lat="45.02874" lon="5.89097">
        <ele>2292</ele>
        <time>2000-01-01T05:59:47.000Z</time>
      </trkpt>
      <trkpt lat="45.02876" lon="5.89102">
        <ele>2302.7</ele>
        <time>2000-01-01T05:59:57.000Z</time>
      </trkpt>
      <trkpt lat="45.02874" lon="5.89105">
        <ele>2303.7</ele>
        <time>2000-01-01T06:00:07.000Z</time>
      </trkpt>
      <trkpt lat="45.02879" lon="5.89105">
        <ele>2305.8</ele>
        <time>2000-01-01T06:00:17.000Z</time>
      </trkpt>
      <trkpt lat="45.02879" lon="5.89111">
        <ele>2309.7</ele>
        <time>2000-01-01T06:00:27.000Z</time>
      </trkpt>
      <trkpt lat="45.02873" lon="5.89117">
        <ele>2305</ele>
        <time>2000-01-01T06:00:37.000Z</time>
      </trkpt>
      <trkpt lat="45.02885" lon="5.8912">
        <ele>2317.4</ele>
        <time>2000-01-01T06:00:47.000Z</time>
      </trkpt>
      <trkpt lat="45.02895" lon="5.89118">
        <ele>2313</ele>
        <time>2000-01-01T06:00:57.000Z</time>
      </trkpt>
      <trkpt lat="45.02899" lon="5.89125">
        <ele>2324.4</ele>
        <time>2000-01-01T06:01:07.000Z</time>
      </trkpt>
      <trkpt lat="45.02883" lon="5.89138">
        <ele>2322</ele>
        <time>2000-01-01T06:01:17.000Z</time>
      </trkpt>
      <trkpt lat="45.02883" lon="5.89145">
        <ele>2330.3</ele>
        <time>2000-01-01T06:01:27.000Z</time>
      </trkpt>
      <trkpt lat="45.02894" lon="5.89144">
        <ele>2333.4</ele>
        <time>2000-01-01T06:01:37.000Z</time>
      </trkpt>
      <trkpt lat="45.02906" lon="5.89149">
        <ele>2332</ele>
        <time>2000-01-01T06:01:47.000Z</time>
      </trkpt>
      <trkpt lat="45.0292" lon="5.89149">
        <ele>2340</ele>
        <time>2000-01-01T06:01:57.000Z</time>
      </trkpt>
      <trkpt lat="45.02939" lon="5.89147">
        <ele>2338</ele>
        <time>2000-01-01T06:02:07.000Z</time>
      </trkpt>
      <trkpt lat="45.0295" lon="5.89148">
        <ele>2342.2</ele>
        <time>2000-01-01T06:02:17.000Z</time>
      </trkpt>
      <trkpt lat="45.02959" lon="5.89143">
        <ele>2336</ele>
        <time>2000-01-01T06:02:27.000Z</time>
      </trkpt>
      <trkpt lat="45.02959" lon="5.89141">
        <ele>2340.5</ele>
        <time>2000-01-01T06:02:37.000Z</time>
      </trkpt>
      <trkpt lat="45.0296" lon="5.89143">
        <ele>2340.9</ele>
        <time>2000-01-01T06:02:47.000Z</time>
      </trkpt>
      <trkpt lat="45.02959" lon="5.89142">
        <ele>2340.7</ele>
        <time>2000-01-01T06:02:57.000Z</time>
      </trkpt>
      <trkpt lat="45.02987" lon="5.89123">
        <ele>2334</ele>
        <time>2000-01-01T06:03:07.000Z</time>
      </trkpt>
      <trkpt lat="45.02998" lon="5.89083">
        <ele>2325</ele>
        <time>2000-01-01T06:03:17.000Z</time>
      </trkpt>
      <trkpt lat="45.03009" lon="5.89051">
        <ele>2319</ele>
        <time>2000-01-01T06:03:27.000Z</time>
      </trkpt>
      <trkpt lat="45.0302" lon="5.89017">
        <ele>2308</ele>
        <time>2000-01-01T06:03:37.000Z</time>
      </trkpt>
      <trkpt lat="45.03032" lon="5.89">
        <ele>2299</ele>
        <time>2000-01-01T06:03:47.000Z</time>
      </trkpt>
      <trkpt lat="45.03041" lon="5.88983">
        <ele>2294</ele>
        <time>2000-01-01T06:03:57.000Z</time>
      </trkpt>
      <trkpt lat="45.03046" lon="5.88965">
        <ele>2289.1</ele>
        <time>2000-01-01T06:04:07.000Z</time>
      </trkpt>
      <trkpt lat="45.03065" lon="5.88905">
        <ele>2292</ele>
        <time>2000-01-01T06:04:17.000Z</time>
      </trkpt>
      <trkpt lat="45.03076" lon="5.88858">
        <ele>2285</ele>
        <time>2000-01-01T06:04:27.000Z</time>
      </trkpt>
      <trkpt lat="45.03093" lon="5.88811">
        <ele>2285</ele>
        <time>2000-01-01T06:04:37.000Z</time>
      </trkpt>
      <trkpt lat="45.03117" lon="5.88769">
        <ele>2274</ele>
        <time>2000-01-01T06:04:47.000Z</time>
      </trkpt>
      <trkpt lat="45.03121" lon="5.88744">
        <ele>2266.5</ele>
        <time>2000-01-01T06:04:57.000Z</time>
      </trkpt>
      <trkpt lat="45.0313" lon="5.88702">
        <ele>2257</ele>
        <time>2000-01-01T06:05:07.000Z</time>
      </trkpt>
      <trkpt lat="45.03136" lon="5.8866">
        <ele>2249</ele>
        <time>2000-01-01T06:05:17.000Z</time>
      </trkpt>
      <trkpt lat="45.03147" lon="5.88631">
        <ele>2240</ele>
        <time>2000-01-01T06:05:27.000Z</time>
      </trkpt>
      <trkpt lat="45.03159" lon="5.88617">
        <ele>2226.5</ele>
        <time>2000-01-01T06:05:37.000Z</time>
      </trkpt>
      <trkpt lat="45.03167" lon="5.88602">
        <ele>2222</ele>
        <time>2000-01-01T06:05:47.000Z</time>
      </trkpt>
      <trkpt lat="45.03169" lon="5.8857">
        <ele>2210</ele>
        <time>2000-01-01T06:05:57.000Z</time>
      </trkpt>
      <trkpt lat="45.03171" lon="5.88549">
        <ele>2201</ele>
        <time>2000-01-01T06:06:07.000Z</time>
      </trkpt>
      <trkpt lat="45.03191" lon="5.88568">
        <ele>2192</ele>
        <time>2000-01-01T06:06:17.000Z</time>
      </trkpt>
      <trkpt lat="45.032" lon="5.88618">
        <ele>2192</ele>
        <time>2000-01-01T06:06:27.000Z</time>
      </trkpt>
      <trkpt lat="45.03201" lon="5.88646">
        <ele>2192</ele>
        <time>2000-01-01T06:06:37.000Z</time>
      </trkpt>
      <trkpt lat="45.03206" lon="5.88662">
        <ele>2186.6</ele>
        <time>2000-01-01T06:06:47.000Z</time>
      </trkpt>
      <trkpt lat="45.03214" lon="5.88659">
        <ele>2184</ele>
        <time>2000-01-01T06:06:57.000Z</time>
      </trkpt>
      <trkpt lat="45.03221" lon="5.88654">
        <ele>2173.5</ele>
        <time>2000-01-01T06:07:07.000Z</time>
      </trkpt>
      <trkpt lat="45.0323" lon="5.88663">
        <ele>2167.2</ele>
        <time>2000-01-01T06:07:17.000Z</time>
      </trkpt>
      <trkpt lat="45.03246" lon="5.88687">
        <ele>2163</ele>
        <time>2000-01-01T06:07:27.000Z</time>
      </trkpt>
      <trkpt lat="45.03261" lon="5.88711">
        <ele>2158</ele>
        <time>2000-01-01T06:07:37.000Z</time>
      </trkpt>
      <trkpt lat="45.03277" lon="5.88717">
        <ele>2153.2</ele>
        <time>2000-01-01T06:07:47.000Z</time>
      </trkpt>
      <trkpt lat="45.03309" lon="5.88726">
        <ele>2147</ele>
        <time>2000-01-01T06:07:57.000Z</time>
      </trkpt>
      <trkpt lat="45.03328" lon="5.8875">
        <ele>2143</ele>
        <time>2000-01-01T06:08:07.000Z</time>
      </trkpt>
      <trkpt lat="45.03349" lon="5.88757">
        <ele>2133</ele>
        <time>2000-01-01T06:08:17.000Z</time>
      </trkpt>
      <trkpt lat="45.03381" lon="5.88762">
        <ele>2121</ele>
        <time>2000-01-01T06:08:27.000Z</time>
      </trkpt>
      <trkpt lat="45.03417" lon="5.88776">
        <ele>2116</ele>
        <time>2000-01-01T06:08:37.000Z</time>
      </trkpt>
      <trkpt lat="45.03424" lon="5.88795">
        <ele>2114.2</ele>
        <time>2000-01-01T06:08:47.000Z</time>
      </trkpt>
      <trkpt lat="45.03461" lon="5.88801">
        <ele>2114</ele>
        <time>2000-01-01T06:08:57.000Z</time>
      </trkpt>
      <trkpt lat="45.03485" lon="5.88818">
        <ele>2114</ele>
        <time>2000-01-01T06:09:07.000Z</time>
      </trkpt>
      <trkpt lat="45.0351" lon="5.88855">
        <ele>2115</ele>
        <time>2000-01-01T06:09:17.000Z</time>
      </trkpt>
      <trkpt lat="45.03515" lon="5.88872">
        <ele>2121.1</ele>
        <time>2000-01-01T06:09:27.000Z</time>
      </trkpt>
      <trkpt lat="45.03523" lon="5.8889">
        <ele>2124</ele>
        <time>2000-01-01T06:09:37.000Z</time>
      </trkpt>
      <trkpt lat="45.0354" lon="5.88925">
        <ele>2127</ele>
        <time>2000-01-01T06:09:47.000Z</time>
      </trkpt>
      <trkpt lat="45.03547" lon="5.88944">
        <ele>2132</ele>
        <time>2000-01-01T06:09:57.000Z</time>
      </trkpt>
      <trkpt lat="45.03566" lon="5.88942">
        <ele>2136</ele>
        <time>2000-01-01T06:10:07.000Z</time>
      </trkpt>
      <trkpt lat="45.03584" lon="5.88943">
        <ele>2138</ele>
        <time>2000-01-01T06:10:17.000Z</time>
      </trkpt>
      <trkpt lat="45.03605" lon="5.88934">
        <ele>2136</ele>
        <time>2000-01-01T06:10:27.000Z</time>
      </trkpt>
      <trkpt lat="45.03623" lon="5.8892">
        <ele>2132</ele>
        <time>2000-01-01T06:10:37.000Z</time>
      </trkpt>
      <trkpt lat="45.03652" lon="5.88908">
        <ele>2126</ele>
        <time>2000-01-01T06:10:47.000Z</time>
      </trkpt>
      <trkpt lat="45.0366" lon="5.88893">
        <ele>2126.5</ele>
        <time>2000-01-01T06:10:57.000Z</time>
      </trkpt>
      <trkpt lat="45.03702" lon="5.88819">
        <ele>2123</ele>
        <time>2000-01-01T06:11:07.000Z</time>
      </trkpt>
      <trkpt lat="45.03718" lon="5.88783">
        <ele>2125</ele>
        <time>2000-01-01T06:11:17.000Z</time>
      </trkpt>
      <trkpt lat="45.03744" lon="5.88723">
        <ele>2127</ele>
        <time>2000-01-01T06:11:27.000Z</time>
      </trkpt>
      <trkpt lat="45.03772" lon="5.88701">
        <ele>2129</ele>
        <time>2000-01-01T06:11:37.000Z</time>
      </trkpt>
      <trkpt lat="45.0377" lon="5.88681">
        <ele>2130.1</ele>
        <time>2000-01-01T06:11:47.000Z</time>
      </trkpt>
      <trkpt lat="45.03777" lon="5.8866">
        <ele>2128</ele>
        <time>2000-01-01T06:11:57.000Z</time>
      </trkpt>
      <trkpt lat="45.03779" lon="5.88626">
        <ele>2134</ele>
        <time>2000-01-01T06:12:07.000Z</time>
      </trkpt>
      <trkpt lat="45.03791" lon="5.88589">
        <ele>2141</ele>
        <time>2000-01-01T06:12:17.000Z</time>
      </trkpt>
      <trkpt lat="45.03794" lon="5.88569">
        <ele>2143.5</ele>
        <time>2000-01-01T06:12:27.000Z</time>
      </trkpt>
      <trkpt lat="45.03795" lon="5.88546">
        <ele>2145</ele>
        <time>2000-01-01T06:12:37.000Z</time>
      </trkpt>
      <trkpt lat="45.03795" lon="5.88493">
        <ele>2149</ele>
        <time>2000-01-01T06:12:47.000Z</time>
      </trkpt>
      <trkpt lat="45.03793" lon="5.88463">
        <ele>2147</ele>
        <time>2000-01-01T06:12:57.000Z</time>
      </trkpt>
      <trkpt lat="45.03787" lon="5.8843">
        <ele>2146</ele>
        <time>2000-01-01T06:13:07.000Z</time>
      </trkpt>
      <trkpt lat="45.03782" lon="5.88397">
        <ele>2145</ele>
        <time>2000-01-01T06:13:17.000Z</time>
      </trkpt>
      <trkpt lat="45.03781" lon="5.88384">
        <ele>2145.7</ele>
        <time>2000-01-01T06:13:27.000Z</time>
      </trkpt>
      <trkpt lat="45.03779" lon="5.88309">
        <ele>2138</ele>
        <time>2000-01-01T06:13:37.000Z</time>
      </trkpt>
      <trkpt lat="45.03776" lon="5.88257">
        <ele>2136</ele>
        <time>2000-01-01T06:13:47.000Z</time>
      </trkpt>
      <trkpt lat="45.03784" lon="5.88224">
        <ele>2135</ele>
        <time>2000-01-01T06:13:57.000Z</time>
      </trkpt>
      <trkpt lat="45.03793" lon="5.88188">
        <ele>2135</ele>
        <time>2000-01-01T06:14:07.000Z</time>
      </trkpt>
      <trkpt lat="45.03795" lon="5.88149">
        <ele>2130</ele>
        <time>2000-01-01T06:14:17.000Z</time>
      </trkpt>
      <trkpt lat="45.03801" lon="5.88091">
        <ele>2124</ele>
        <time>2000-01-01T06:14:27.000Z</time>
      </trkpt>
      <trkpt lat="45.03797" lon="5.88033">
        <ele>2112</ele>
        <time>2000-01-01T06:14:37.000Z</time>
      </trkpt>
      <trkpt lat="45.03798" lon="5.87981">
        <ele>2103</ele>
        <time>2000-01-01T06:14:47.000Z</time>
      </trkpt>
      <trkpt lat="45.03798" lon="5.8793">
        <ele>2092</ele>
        <time>2000-01-01T06:14:57.000Z</time>
      </trkpt>
      <trkpt lat="45.03795" lon="5.87887">
        <ele>2083</ele>
        <time>2000-01-01T06:15:07.000Z</time>
      </trkpt>
      <trkpt lat="45.03793" lon="5.87881">
        <ele>2083.6</ele>
        <time>2000-01-01T06:15:17.000Z</time>
      </trkpt>
      <trkpt lat="45.03805" lon="5.87818">
        <ele>2067</ele>
        <time>2000-01-01T06:15:27.000Z</time>
      </trkpt>
      <trkpt lat="45.03822" lon="5.8779">
        <ele>2064</ele>
        <time>2000-01-01T06:15:37.000Z</time>
      </trkpt>
      <trkpt lat="45.03843" lon="5.87757">
        <ele>2050</ele>
        <time>2000-01-01T06:15:47.000Z</time>
      </trkpt>
      <trkpt lat="45.03853" lon="5.87729">
        <ele>2041</ele>
        <time>2000-01-01T06:15:57.000Z</time>
      </trkpt>
      <trkpt lat="45.0384" lon="5.87706">
        <ele>2035</ele>
        <time>2000-01-01T06:16:07.000Z</time>
      </trkpt>
      <trkpt lat="45.03844" lon="5.87679">
        <ele>2024</ele>
        <time>2000-01-01T06:16:17.000Z</time>
      </trkpt>
      <trkpt lat="45.03844" lon="5.87655">
        <ele>2018.1</ele>
        <time>2000-01-01T06:16:27.000Z</time>
      </trkpt>
      <trkpt lat="45.03851" lon="5.87628">
        <ele>2008</ele>
        <time>2000-01-01T06:16:37.000Z</time>
      </trkpt>
      <trkpt lat="45.03853" lon="5.87597">
        <ele>2000</ele>
        <time>2000-01-01T06:16:47.000Z</time>
      </trkpt>
      <trkpt lat="45.0387" lon="5.87562">
        <ele>1992</ele>
        <time>2000-01-01T06:16:57.000Z</time>
      </trkpt>
      <trkpt lat="45.03856" lon="5.87538">
        <ele>1980</ele>
        <time>2000-01-01T06:17:07.000Z</time>
      </trkpt>
      <trkpt lat="45.03872" lon="5.87521">
        <ele>1979</ele>
        <time>2000-01-01T06:17:17.000Z</time>
      </trkpt>
      <trkpt lat="45.03895" lon="5.8751">
        <ele>1969</ele>
        <time>2000-01-01T06:17:27.000Z</time>
      </trkpt>
      <trkpt lat="45.03921" lon="5.87515">
        <ele>1963</ele>
        <time>2000-01-01T06:17:37.000Z</time>
      </trkpt>
      <trkpt lat="45.03942" lon="5.87509">
        <ele>1952</ele>
        <time>2000-01-01T06:17:47.000Z</time>
      </trkpt>
      <trkpt lat="45.03966" lon="5.87518">
        <ele>1949</ele>
        <time>2000-01-01T06:17:57.000Z</time>
      </trkpt>
      <trkpt lat="45.04003" lon="5.87534">
        <ele>1936</ele>
        <time>2000-01-01T06:18:07.000Z</time>
      </trkpt>
      <trkpt lat="45.04026" lon="5.87501">
        <ele>1928</ele>
        <time>2000-01-01T06:18:17.000Z</time>
      </trkpt>
      <trkpt lat="45.04041" lon="5.87472">
        <ele>1921</ele>
        <time>2000-01-01T06:18:27.000Z</time>
      </trkpt>
      <trkpt lat="45.04054" lon="5.87456">
        <ele>1916.7</ele>
        <time>2000-01-01T06:18:37.000Z</time>
      </trkpt>
      <trkpt lat="45.04081" lon="5.87434">
        <ele>1907</ele>
        <time>2000-01-01T06:18:47.000Z</time>
      </trkpt>
      <trkpt lat="45.0409" lon="5.87432">
        <ele>1906.8</ele>
        <time>2000-01-01T06:18:57.000Z</time>
      </trkpt>
      <trkpt lat="45.04129" lon="5.87413">
        <ele>1895</ele>
        <time>2000-01-01T06:19:07.000Z</time>
      </trkpt>
      <trkpt lat="45.04115" lon="5.87377">
        <ele>1884</ele>
        <time>2000-01-01T06:19:17.000Z</time>
      </trkpt>
      <trkpt lat="45.04114" lon="5.87351">
        <ele>1877.6</ele>
        <time>2000-01-01T06:19:27.000Z</time>
      </trkpt>
      <trkpt lat="45.0412" lon="5.87324">
        <ele>1868</ele>
        <time>2000-01-01T06:19:37.000Z</time>
      </trkpt>
      <trkpt lat="45.04135" lon="5.87314">
        <ele>1863.6</ele>
        <time>2000-01-01T06:19:47.000Z</time>
      </trkpt>
      <trkpt lat="45.04171" lon="5.87299">
        <ele>1851</ele>
        <time>2000-01-01T06:19:57.000Z</time>
      </trkpt>
      <trkpt lat="45.04176" lon="5.87288">
        <ele>1849.6</ele>
        <time>2000-01-01T06:20:07.000Z</time>
      </trkpt>
      <trkpt lat="45.04179" lon="5.87287">
        <ele>1848.6</ele>
        <time>2000-01-01T06:20:17.000Z</time>
      </trkpt>
      <trkpt lat="45.04179" lon="5.87264">
        <ele>1846</ele>
        <time>2000-01-01T06:20:27.000Z</time>
      </trkpt>
      <trkpt lat="45.04205" lon="5.87244">
        <ele>1836</ele>
        <time>2000-01-01T06:20:37.000Z</time>
      </trkpt>
      <trkpt lat="45.04227" lon="5.87248">
        <ele>1829</ele>
        <time>2000-01-01T06:20:47.000Z</time>
      </trkpt>
      <trkpt lat="45.04234" lon="5.87266">
        <ele>1826</ele>
        <time>2000-01-01T06:20:57.000Z</time>
      </trkpt>
      <trkpt lat="45.04251" lon="5.87305">
        <ele>1825</ele>
        <time>2000-01-01T06:21:07.000Z</time>
      </trkpt>
      <trkpt lat="45.04258" lon="5.87324">
        <ele>1821.4</ele>
        <time>2000-01-01T06:21:17.000Z</time>
      </trkpt>
      <trkpt lat="45.04266" lon="5.87338">
        <ele>1821</ele>
        <time>2000-01-01T06:21:27.000Z</time>
      </trkpt>
      <trkpt lat="45.04277" lon="5.87337">
        <ele>1815.4</ele>
        <time>2000-01-01T06:21:37.000Z</time>
      </trkpt>
      <trkpt lat="45.0429" lon="5.87322">
        <ele>1804</ele>
        <time>2000-01-01T06:21:47.000Z</time>
      </trkpt>
      <trkpt lat="45.04302" lon="5.8732">
        <ele>1798.9</ele>
        <time>2000-01-01T06:21:57.000Z</time>
      </trkpt>
      <trkpt lat="45.04316" lon="5.87305">
        <ele>1788</ele>
        <time>2000-01-01T06:22:07.000Z</time>
      </trkpt>
      <trkpt lat="45.04321" lon="5.87306">
        <ele>1785.9</ele>
        <time>2000-01-01T06:22:17.000Z</time>
      </trkpt>
      <trkpt lat="45.04328" lon="5.87289">
        <ele>1778.6</ele>
        <time>2000-01-01T06:22:27.000Z</time>
      </trkpt>
      <trkpt lat="45.04337" lon="5.87273">
        <ele>1774</ele>
        <time>2000-01-01T06:22:37.000Z</time>
      </trkpt>
      <trkpt lat="45.04357" lon="5.8726">
        <ele>1761</ele>
        <time>2000-01-01T06:22:47.000Z</time>
      </trkpt>
      <trkpt lat="45.04373" lon="5.87247">
        <ele>1750.6</ele>
        <time>2000-01-01T06:22:57.000Z</time>
      </trkpt>
      <trkpt lat="45.04387" lon="5.87238">
        <ele>1745</ele>
        <time>2000-01-01T06:23:07.000Z</time>
      </trkpt>
      <trkpt lat="45.0441" lon="5.87229">
        <ele>1735</ele>
        <time>2000-01-01T06:23:17.000Z</time>
      </trkpt>
      <trkpt lat="45.04431" lon="5.87218">
        <ele>1722</ele>
        <time>2000-01-01T06:23:27.000Z</time>
      </trkpt>
      <trkpt lat="45.04448" lon="5.87203">
        <ele>1719</ele>
        <time>2000-01-01T06:23:37.000Z</time>
      </trkpt>
      <trkpt lat="45.04468" lon="5.87197">
        <ele>1712</ele>
        <time>2000-01-01T06:23:47.000Z</time>
      </trkpt>
      <trkpt lat="45.0449" lon="5.87204">
        <ele>1704</ele>
        <time>2000-01-01T06:23:57.000Z</time>
      </trkpt>
      <trkpt lat="45.04515" lon="5.87205">
        <ele>1699</ele>
        <time>2000-01-01T06:24:07.000Z</time>
      </trkpt>
      <trkpt lat="45.0455" lon="5.87221">
        <ele>1694</ele>
        <time>2000-01-01T06:24:17.000Z</time>
      </trkpt>
      <trkpt lat="45.04581" lon="5.87254">
        <ele>1688</ele>
        <time>2000-01-01T06:24:27.000Z</time>
      </trkpt>
      <trkpt lat="45.04622" lon="5.87267">
        <ele>1682</ele>
        <time>2000-01-01T06:24:37.000Z</time>
      </trkpt>
      <trkpt lat="45.04665" lon="5.87266">
        <ele>1679</ele>
        <time>2000-01-01T06:24:47.000Z</time>
      </trkpt>
      <trkpt lat="45.04695" lon="5.87296">
        <ele>1677</ele>
        <time>2000-01-01T06:24:57.000Z</time>
      </trkpt>
      <trkpt lat="45.04713" lon="5.87337">
        <ele>1677</ele>
        <time>2000-01-01T06:25:07.000Z</time>
      </trkpt>
      <trkpt lat="45.04716" lon="5.87371">
        <ele>1677</ele>
        <time>2000-01-01T06:25:17.000Z</time>
      </trkpt>
      <trkpt lat="45.0472" lon="5.87405">
        <ele>1677</ele>
        <time>2000-01-01T06:25:27.000Z</time>
      </trkpt>
      <trkpt lat="45.04733" lon="5.87432">
        <ele>1676</ele>
        <time>2000-01-01T06:25:37.000Z</time>
      </trkpt>
      <trkpt lat="45.04744" lon="5.8746">
        <ele>1676</ele>
        <time>2000-01-01T06:25:47.000Z</time>
      </trkpt>
      <trkpt lat="45.04745" lon="5.87486">
        <ele>1675.5</ele>
        <time>2000-01-01T06:25:57.000Z</time>
      </trkpt>
      <trkpt lat="45.04756" lon="5.87527">
        <ele>1677</ele>
        <time>2000-01-01T06:26:07.000Z</time>
      </trkpt>
      <trkpt lat="45.0476" lon="5.87564">
        <ele>1677</ele>
        <time>2000-01-01T06:26:17.000Z</time>
      </trkpt>
      <trkpt lat="45.04767" lon="5.87594">
        <ele>1678</ele>
        <time>2000-01-01T06:26:27.000Z</time>
      </trkpt>
      <trkpt lat="45.0477" lon="5.87624">
        <ele>1679</ele>
        <time>2000-01-01T06:26:37.000Z</time>
      </trkpt>
      <trkpt lat="45.04775" lon="5.87653">
        <ele>1681</ele>
        <time>2000-01-01T06:26:47.000Z</time>
      </trkpt>
      <trkpt lat="45.04778" lon="5.87679">
        <ele>1680.5</ele>
        <time>2000-01-01T06:26:57.000Z</time>
      </trkpt>
      <trkpt lat="45.0478" lon="5.87705">
        <ele>1685</ele>
        <time>2000-01-01T06:27:07.000Z</time>
      </trkpt>
      <trkpt lat="45.04783" lon="5.8773">
        <ele>1684.9</ele>
        <time>2000-01-01T06:27:17.000Z</time>
      </trkpt>
      <trkpt lat="45.04787" lon="5.8775">
        <ele>1689</ele>
        <time>2000-01-01T06:27:27.000Z</time>
      </trkpt>
      <trkpt lat="45.04788" lon="5.87774">
        <ele>1685</ele>
        <time>2000-01-01T06:27:37.000Z</time>
      </trkpt>
      <trkpt lat="45.04784" lon="5.87797">
        <ele>1693</ele>
        <time>2000-01-01T06:27:47.000Z</time>
      </trkpt>
      <trkpt lat="45.04786" lon="5.87819">
        <ele>1690.7</ele>
        <time>2000-01-01T06:27:57.000Z</time>
      </trkpt>
      <trkpt lat="45.04784" lon="5.87846">
        <ele>1697</ele>
        <time>2000-01-01T06:28:07.000Z</time>
      </trkpt>
      <trkpt lat="45.0479" lon="5.87868">
        <ele>1693.7</ele>
        <time>2000-01-01T06:28:17.000Z</time>
      </trkpt>
      <trkpt lat="45.04793" lon="5.87893">
        <ele>1698</ele>
        <time>2000-01-01T06:28:27.000Z</time>
      </trkpt>
      <trkpt lat="45.048" lon="5.87919">
        <ele>1699</ele>
        <time>2000-01-01T06:28:37.000Z</time>
      </trkpt>
      <trkpt lat="45.04803" lon="5.87964">
        <ele>1699</ele>
        <time>2000-01-01T06:28:47.000Z</time>
      </trkpt>
      <trkpt lat="45.04816" lon="5.88001">
        <ele>1698</ele>
        <time>2000-01-01T06:28:57.000Z</time>
      </trkpt>
      <trkpt lat="45.04832" lon="5.88038">
        <ele>1698</ele>
        <time>2000-01-01T06:29:07.000Z</time>
      </trkpt>
      <trkpt lat="45.04864" lon="5.88066">
        <ele>1688</ele>
        <time>2000-01-01T06:29:17.000Z</time>
      </trkpt>
      <trkpt lat="45.04883" lon="5.88085">
        <ele>1681</ele>
        <time>2000-01-01T06:29:27.000Z</time>
      </trkpt>
      <trkpt lat="45.04905" lon="5.88139">
        <ele>1681</ele>
        <time>2000-01-01T06:29:37.000Z</time>
      </trkpt>
      <trkpt lat="45.04918" lon="5.88168">
        <ele>1684</ele>
        <time>2000-01-01T06:29:47.000Z</time>
      </trkpt>
      <trkpt lat="45.04931" lon="5.88197">
        <ele>1686</ele>
        <time>2000-01-01T06:29:57.000Z</time>
      </trkpt>
      <trkpt lat="45.04938" lon="5.88217">
        <ele>1689.1</ele>
        <time>2000-01-01T06:30:07.000Z</time>
      </trkpt>
      <trkpt lat="45.0495" lon="5.88239">
        <ele>1690</ele>
        <time>2000-01-01T06:30:17.000Z</time>
      </trkpt>
      <trkpt lat="45.04966" lon="5.88293">
        <ele>1689</ele>
        <time>2000-01-01T06:30:27.000Z</time>
      </trkpt>
      <trkpt lat="45.04989" lon="5.88329">
        <ele>1689</ele>
        <time>2000-01-01T06:30:37.000Z</time>
      </trkpt>
      <trkpt lat="45.04997" lon="5.88357">
        <ele>1695</ele>
        <time>2000-01-01T06:30:47.000Z</time>
      </trkpt>
      <trkpt lat="45.05008" lon="5.88371">
        <ele>1696.9</ele>
        <time>2000-01-01T06:30:57.000Z</time>
      </trkpt>
      <trkpt lat="45.05022" lon="5.88394">
        <ele>1699</ele>
        <time>2000-01-01T06:31:07.000Z</time>
      </trkpt>
      <trkpt lat="45.05035" lon="5.88411">
        <ele>1702</ele>
        <time>2000-01-01T06:31:17.000Z</time>
      </trkpt>
      <trkpt lat="45.05053" lon="5.88429">
        <ele>1700</ele>
        <time>2000-01-01T06:31:27.000Z</time>
      </trkpt>
      <trkpt lat="45.05075" lon="5.88457">
        <ele>1704</ele>
        <time>2000-01-01T06:31:37.000Z</time>
      </trkpt>
      <trkpt lat="45.05095" lon="5.88477">
        <ele>1705</ele>
        <time>2000-01-01T06:31:47.000Z</time>
      </trkpt>
      <trkpt lat="45.05115" lon="5.88498">
        <ele>1708</ele>
        <time>2000-01-01T06:31:57.000Z</time>
      </trkpt>
      <trkpt lat="45.0512" lon="5.88516">
        <ele>1714.8</ele>
        <time>2000-01-01T06:32:07.000Z</time>
      </trkpt>
      <trkpt lat="45.05122" lon="5.88521">
        <ele>1716</ele>
        <time>2000-01-01T06:32:17.000Z</time>
      </trkpt>
      <trkpt lat="45.05141" lon="5.88563">
        <ele>1714</ele>
        <time>2000-01-01T06:32:27.000Z</time>
      </trkpt>
      <trkpt lat="45.05149" lon="5.88582">
        <ele>1721</ele>
        <time>2000-01-01T06:32:37.000Z</time>
      </trkpt>
      <trkpt lat="45.05153" lon="5.88589">
        <ele>1720</ele>
        <time>2000-01-01T06:32:47.000Z</time>
      </trkpt>
      <trkpt lat="45.05165" lon="5.88628">
        <ele>1717</ele>
        <time>2000-01-01T06:32:57.000Z</time>
      </trkpt>
      <trkpt lat="45.05187" lon="5.88698">
        <ele>1714</ele>
        <time>2000-01-01T06:33:07.000Z</time>
      </trkpt>
      <trkpt lat="45.05187" lon="5.88727">
        <ele>1713</ele>
        <time>2000-01-01T06:33:17.000Z</time>
      </trkpt>
      <trkpt lat="45.05185" lon="5.88764">
        <ele>1706</ele>
        <time>2000-01-01T06:33:27.000Z</time>
      </trkpt>
      <trkpt lat="45.05185" lon="5.88798">
        <ele>1703</ele>
        <time>2000-01-01T06:33:37.000Z</time>
      </trkpt>
      <trkpt lat="45.05186" lon="5.88838">
        <ele>1703</ele>
        <time>2000-01-01T06:33:47.000Z</time>
      </trkpt>
      <trkpt lat="45.05188" lon="5.88897">
        <ele>1703</ele>
        <time>2000-01-01T06:33:57.000Z</time>
      </trkpt>
      <trkpt lat="45.05206" lon="5.88924">
        <ele>1695</ele>
        <time>2000-01-01T06:34:07.000Z</time>
      </trkpt>
      <trkpt lat="45.05215" lon="5.88962">
        <ele>1691</ele>
        <time>2000-01-01T06:34:17.000Z</time>
      </trkpt>
      <trkpt lat="45.0522" lon="5.88993">
        <ele>1691</ele>
        <time>2000-01-01T06:34:27.000Z</time>
      </trkpt>
      <trkpt lat="45.05214" lon="5.89024">
        <ele>1691</ele>
        <time>2000-01-01T06:34:37.000Z</time>
      </trkpt>
      <trkpt lat="45.05212" lon="5.89071">
        <ele>1691</ele>
        <time>2000-01-01T06:34:47.000Z</time>
      </trkpt>
      <trkpt lat="45.05203" lon="5.89096">
        <ele>1691</ele>
        <time>2000-01-01T06:34:57.000Z</time>
      </trkpt>
      <trkpt lat="45.05203" lon="5.89098">
        <ele>1691.5</ele>
        <time>2000-01-01T06:35:07.000Z</time>
      </trkpt>
      <trkpt lat="45.05186" lon="5.89173">
        <ele>1687</ele>
        <time>2000-01-01T06:35:17.000Z</time>
      </trkpt>
      <trkpt lat="45.05186" lon="5.89207">
        <ele>1686</ele>
        <time>2000-01-01T06:35:27.000Z</time>
      </trkpt>
      <trkpt lat="45.05186" lon="5.89241">
        <ele>1685</ele>
        <time>2000-01-01T06:35:37.000Z</time>
      </trkpt>
      <trkpt lat="45.05175" lon="5.89301">
        <ele>1684</ele>
        <time>2000-01-01T06:35:47.000Z</time>
      </trkpt>
      <trkpt lat="45.05178" lon="5.89362">
        <ele>1684</ele>
        <time>2000-01-01T06:35:57.000Z</time>
      </trkpt>
      <trkpt lat="45.05189" lon="5.89422">
        <ele>1683</ele>
        <time>2000-01-01T06:36:07.000Z</time>
      </trkpt>
      <trkpt lat="45.05205" lon="5.89456">
        <ele>1682</ele>
        <time>2000-01-01T06:36:17.000Z</time>
      </trkpt>
      <trkpt lat="45.05194" lon="5.89488">
        <ele>1681</ele>
        <time>2000-01-01T06:36:27.000Z</time>
      </trkpt>
      <trkpt lat="45.05182" lon="5.89523">
        <ele>1678</ele>
        <time>2000-01-01T06:36:37.000Z</time>
      </trkpt>
      <trkpt lat="45.05193" lon="5.89563">
        <ele>1678</ele>
        <time>2000-01-01T06:36:47.000Z</time>
      </trkpt>
      <trkpt lat="45.05203" lon="5.89605">
        <ele>1674</ele>
        <time>2000-01-01T06:36:57.000Z</time>
      </trkpt>
      <trkpt lat="45.05206" lon="5.89623">
        <ele>1676.8</ele>
        <time>2000-01-01T06:37:07.000Z</time>
      </trkpt>
      <trkpt lat="45.05226" lon="5.89685">
        <ele>1671</ele>
        <time>2000-01-01T06:37:17.000Z</time>
      </trkpt>
      <trkpt lat="45.05233" lon="5.89739">
        <ele>1667</ele>
        <time>2000-01-01T06:37:27.000Z</time>
      </trkpt>
      <trkpt lat="45.05233" lon="5.89787">
        <ele>1664</ele>
        <time>2000-01-01T06:37:37.000Z</time>
      </trkpt>
      <trkpt lat="45.05229" lon="5.89832">
        <ele>1663</ele>
        <time>2000-01-01T06:37:47.000Z</time>
      </trkpt>
      <trkpt lat="45.05259" lon="5.89814">
        <ele>1662</ele>
        <time>2000-01-01T06:37:57.000Z</time>
      </trkpt>
      <trkpt lat="45.05295" lon="5.89828">
        <ele>1659</ele>
        <time>2000-01-01T06:38:07.000Z</time>
      </trkpt>
      <trkpt lat="45.05306" lon="5.89881">
        <ele>1657</ele>
        <time>2000-01-01T06:38:17.000Z</time>
      </trkpt>
      <trkpt lat="45.05305" lon="5.89899">
        <ele>1655.7</ele>
        <time>2000-01-01T06:38:27.000Z</time>
      </trkpt>
      <trkpt lat="45.05308" lon="5.89897">
        <ele>1655.2</ele>
        <time>2000-01-01T06:38:37.000Z</time>
      </trkpt>
      <trkpt lat="45.05309" lon="5.89898">
        <ele>1654.9</ele>
        <time>2000-01-01T06:38:47.000Z</time>
      </trkpt>
      <trkpt lat="45.05307" lon="5.89898">
        <ele>1657</ele>
        <time>2000-01-01T06:38:57.000Z</time>
      </trkpt>
      <trkpt lat="45.0531" lon="5.89895">
        <ele>1654.8</ele>
        <time>2000-01-01T06:39:07.000Z</time>
      </trkpt>
      <trkpt lat="45.05308" lon="5.89896">
        <ele>1655.2</ele>
        <time>2000-01-01T06:39:17.000Z</time>
      </trkpt>
      <trkpt lat="45.05307" lon="5.89894">
        <ele>1655.5</ele>
        <time>2000-01-01T06:39:27.000Z</time>
      </trkpt>
      <trkpt lat="45.05308" lon="5.8989">
        <ele>1655.4</ele>
        <time>2000-01-01T06:39:37.000Z</time>
      </trkpt>
      <trkpt lat="45.05309" lon="5.89894">
        <ele>1655</ele>
        <time>2000-01-01T06:39:47.000Z</time>
      </trkpt>
      <trkpt lat="45.05311" lon="5.89895">
        <ele>1654.6</ele>
        <time>2000-01-01T06:39:57.000Z</time>
      </trkpt>
      <trkpt lat="45.05309" lon="5.89897">
        <ele>1654.9</ele>
        <time>2000-01-01T06:40:07.000Z</time>
      </trkpt>
      <trkpt lat="45.05306" lon="5.89894">
        <ele>1657</ele>
        <time>2000-01-01T06:40:17.000Z</time>
      </trkpt>
      <trkpt lat="45.05302" lon="5.89893">
        <ele>1656.2</ele>
        <time>2000-01-01T06:40:27.000Z</time>
      </trkpt>
      <trkpt lat="45.05305" lon="5.89897">
        <ele>1655.8</ele>
        <time>2000-01-01T06:40:37.000Z</time>
      </trkpt>
      <trkpt lat="45.05306" lon="5.89894">
        <ele>1655.7</ele>
        <time>2000-01-01T06:40:47.000Z</time>
      </trkpt>
      <trkpt lat="45.05306" lon="5.89897">
        <ele>1655.6</ele>
        <time>2000-01-01T06:40:57.000Z</time>
      </trkpt>
      <trkpt lat="45.05304" lon="5.89896">
        <ele>1655.9</ele>
        <time>2000-01-01T06:41:07.000Z</time>
      </trkpt>
      <trkpt lat="45.05307" lon="5.89896">
        <ele>1655.4</ele>
        <time>2000-01-01T06:41:17.000Z</time>
      </trkpt>
      <trkpt lat="45.05306" lon="5.89895">
        <ele>1655.7</ele>
        <time>2000-01-01T06:41:27.000Z</time>
      </trkpt>
      <trkpt lat="45.05308" lon="5.89895">
        <ele>1657</ele>
        <time>2000-01-01T06:41:37.000Z</time>
      </trkpt>
      <trkpt lat="45.05306" lon="5.89897">
        <ele>1655.6</ele>
        <time>2000-01-01T06:41:47.000Z</time>
      </trkpt>
      <trkpt lat="45.05308" lon="5.89898">
        <ele>1655.1</ele>
        <time>2000-01-01T06:41:57.000Z</time>
      </trkpt>
      <trkpt lat="45.0531" lon="5.89908">
        <ele>1654.2</ele>
        <time>2000-01-01T06:42:07.000Z</time>
      </trkpt>
      <trkpt lat="45.05304" lon="5.89927">
        <ele>1657</ele>
        <time>2000-01-01T06:42:17.000Z</time>
      </trkpt>
      <trkpt lat="45.05297" lon="5.89946">
        <ele>1655.8</ele>
        <time>2000-01-01T06:42:27.000Z</time>
      </trkpt>
      <trkpt lat="45.05293" lon="5.89962">
        <ele>1657</ele>
        <time>2000-01-01T06:42:37.000Z</time>
      </trkpt>
      <trkpt lat="45.05267" lon="5.89998">
        <ele>1652</ele>
        <time>2000-01-01T06:42:47.000Z</time>
      </trkpt>
      <trkpt lat="45.05241" lon="5.90034">
        <ele>1648</ele>
        <time>2000-01-01T06:42:57.000Z</time>
      </trkpt>
      <trkpt lat="45.05215" lon="5.90069">
        <ele>1648</ele>
        <time>2000-01-01T06:43:07.000Z</time>
      </trkpt>
      <trkpt lat="45.05182" lon="5.90114">
        <ele>1652</ele>
        <time>2000-01-01T06:43:17.000Z</time>
      </trkpt>
      <trkpt lat="45.0519" lon="5.90141">
        <ele>1655</ele>
        <time>2000-01-01T06:43:27.000Z</time>
      </trkpt>
      <trkpt lat="45.05188" lon="5.90152">
        <ele>1655.8</ele>
        <time>2000-01-01T06:43:37.000Z</time>
      </trkpt>
      <trkpt lat="45.05181" lon="5.90161">
        <ele>1658.1</ele>
        <time>2000-01-01T06:43:47.000Z</time>
      </trkpt>
      <trkpt lat="45.05174" lon="5.9018">
        <ele>1661</ele>
        <time>2000-01-01T06:43:57.000Z</time>
      </trkpt>
      <trkpt lat="45.05152" lon="5.90232">
        <ele>1661</ele>
        <time>2000-01-01T06:44:07.000Z</time>
      </trkpt>
      <trkpt lat="45.05154" lon="5.9026">
        <ele>1662</ele>
        <time>2000-01-01T06:44:17.000Z</time>
      </trkpt>
      <trkpt lat="45.05163" lon="5.90293">
        <ele>1663</ele>
        <time>2000-01-01T06:44:27.000Z</time>
      </trkpt>
      <trkpt lat="45.05172" lon="5.9033">
        <ele>1664</ele>
        <time>2000-01-01T06:44:37.000Z</time>
      </trkpt>
      <trkpt lat="45.05172" lon="5.90348">
        <ele>1665.5</ele>
        <time>2000-01-01T06:44:47.000Z</time>
      </trkpt>
      <trkpt lat="45.05147" lon="5.90472">
        <ele>1673</ele>
        <time>2000-01-01T06:44:57.000Z</time>
      </trkpt>
      <trkpt lat="45.0515" lon="5.90467">
        <ele>1674</ele>
        <time>2000-01-01T06:45:07.000Z</time>
      </trkpt>
      <trkpt lat="45.05149" lon="5.90466">
        <ele>1673.9</ele>
        <time>2000-01-01T06:45:17.000Z</time>
      </trkpt>
      <trkpt lat="45.05148" lon="5.90468">
        <ele>1674</ele>
        <time>2000-01-01T06:45:27.000Z</time>
      </trkpt>
      <trkpt lat="45.05142" lon="5.9049">
        <ele>1674</ele>
        <time>2000-01-01T06:45:37.000Z</time>
      </trkpt>
      <trkpt lat="45.05135" lon="5.90547">
        <ele>1678</ele>
        <time>2000-01-01T06:45:47.000Z</time>
      </trkpt>
      <trkpt lat="45.05127" lon="5.90576">
        <ele>1680</ele>
        <time>2000-01-01T06:45:57.000Z</time>
      </trkpt>
      <trkpt lat="45.05123" lon="5.906">
        <ele>1683.9</ele>
        <time>2000-01-01T06:46:07.000Z</time>
      </trkpt>
      <trkpt lat="45.05121" lon="5.90627">
        <ele>1685</ele>
        <time>2000-01-01T06:46:17.000Z</time>
      </trkpt>
      <trkpt lat="45.05131" lon="5.9069">
        <ele>1689</ele>
        <time>2000-01-01T06:46:27.000Z</time>
      </trkpt>
      <trkpt lat="45.05127" lon="5.90721">
        <ele>1693</ele>
        <time>2000-01-01T06:46:37.000Z</time>
      </trkpt>
      <trkpt lat="45.05115" lon="5.90774">
        <ele>1697</ele>
        <time>2000-01-01T06:46:47.000Z</time>
      </trkpt>
      <trkpt lat="45.05101" lon="5.90812">
        <ele>1700</ele>
        <time>2000-01-01T06:46:57.000Z</time>
      </trkpt>
      <trkpt lat="45.05103" lon="5.90828">
        <ele>1702</ele>
        <time>2000-01-01T06:47:07.000Z</time>
      </trkpt>
      <trkpt lat="45.05099" lon="5.9086">
        <ele>1707</ele>
        <time>2000-01-01T06:47:17.000Z</time>
      </trkpt>
      <trkpt lat="45.05082" lon="5.90914">
        <ele>1715</ele>
        <time>2000-01-01T06:47:27.000Z</time>
      </trkpt>
      <trkpt lat="45.05071" lon="5.90931">
        <ele>1718.6</ele>
        <time>2000-01-01T06:47:37.000Z</time>
      </trkpt>
      <trkpt lat="45.05067" lon="5.90957">
        <ele>1722</ele>
        <time>2000-01-01T06:47:47.000Z</time>
      </trkpt>
      <trkpt lat="45.05061" lon="5.90974">
        <ele>1723.5</ele>
        <time>2000-01-01T06:47:57.000Z</time>
      </trkpt>
      <trkpt lat="45.05055" lon="5.91002">
        <ele>1727</ele>
        <time>2000-01-01T06:48:07.000Z</time>
      </trkpt>
      <trkpt lat="45.05056" lon="5.91029">
        <ele>1728</ele>
        <time>2000-01-01T06:48:17.000Z</time>
      </trkpt>
      <trkpt lat="45.05054" lon="5.91053">
        <ele>1729.2</ele>
        <time>2000-01-01T06:48:27.000Z</time>
      </trkpt>
      <trkpt lat="45.05044" lon="5.91089">
        <ele>1733</ele>
        <time>2000-01-01T06:48:37.000Z</time>
      </trkpt>
      <trkpt lat="45.05029" lon="5.91103">
        <ele>1740.3</ele>
        <time>2000-01-01T06:48:47.000Z</time>
      </trkpt>
      <trkpt lat="45.05028" lon="5.91124">
        <ele>1737</ele>
        <time>2000-01-01T06:48:57.000Z</time>
      </trkpt>
      <trkpt lat="45.05032" lon="5.91141">
        <ele>1743.9</ele>
        <time>2000-01-01T06:49:07.000Z</time>
      </trkpt>
      <trkpt lat="45.05041" lon="5.91166">
        <ele>1741</ele>
        <time>2000-01-01T06:49:17.000Z</time>
      </trkpt>
      <trkpt lat="45.05044" lon="5.91179">
        <ele>1746.1</ele>
        <time>2000-01-01T06:49:27.000Z</time>
      </trkpt>
      <trkpt lat="45.05044" lon="5.91205">
        <ele>1750</ele>
        <time>2000-01-01T06:49:37.000Z</time>
      </trkpt>
      <trkpt lat="45.05043" lon="5.91219">
        <ele>1756.3</ele>
        <time>2000-01-01T06:49:47.000Z</time>
      </trkpt>
      <trkpt lat="45.05045" lon="5.91235">
        <ele>1759</ele>
        <time>2000-01-01T06:49:57.000Z</time>
      </trkpt>
      <trkpt lat="45.05054" lon="5.91249">
        <ele>1761.2</ele>
        <time>2000-01-01T06:50:07.000Z</time>
      </trkpt>
      <trkpt lat="45.05054" lon="5.91261">
        <ele>1765</ele>
        <time>2000-01-01T06:50:17.000Z</time>
      </trkpt>
      <trkpt lat="45.05056" lon="5.91275">
        <ele>1769</ele>
        <time>2000-01-01T06:50:27.000Z</time>
      </trkpt>
      <trkpt lat="45.05072" lon="5.91319">
        <ele>1776</ele>
        <time>2000-01-01T06:50:37.000Z</time>
      </trkpt>
      <trkpt lat="45.05084" lon="5.91345">
        <ele>1778</ele>
        <time>2000-01-01T06:50:47.000Z</time>
      </trkpt>
      <trkpt lat="45.05098" lon="5.91353">
        <ele>1782.3</ele>
        <time>2000-01-01T06:50:57.000Z</time>
      </trkpt>
      <trkpt lat="45.0511" lon="5.91364">
        <ele>1781</ele>
        <time>2000-01-01T06:51:07.000Z</time>
      </trkpt>
      <trkpt lat="45.05124" lon="5.91382">
        <ele>1786.9</ele>
        <time>2000-01-01T06:51:17.000Z</time>
      </trkpt>
      <trkpt lat="45.05132" lon="5.91395">
        <ele>1787</ele>
        <time>2000-01-01T06:51:27.000Z</time>
      </trkpt>
      <trkpt lat="45.05145" lon="5.91406">
        <ele>1791</ele>
        <time>2000-01-01T06:51:37.000Z</time>
      </trkpt>
      <trkpt lat="45.05155" lon="5.91427">
        <ele>1792</ele>
        <time>2000-01-01T06:51:47.000Z</time>
      </trkpt>
      <trkpt lat="45.05157" lon="5.91451">
        <ele>1794.9</ele>
        <time>2000-01-01T06:51:57.000Z</time>
      </trkpt>
      <trkpt lat="45.05158" lon="5.91487">
        <ele>1801</ele>
        <time>2000-01-01T06:52:07.000Z</time>
      </trkpt>
      <trkpt lat="45.05164" lon="5.91507">
        <ele>1802</ele>
        <time>2000-01-01T06:52:17.000Z</time>
      </trkpt>
      <trkpt lat="45.05165" lon="5.9153">
        <ele>1813</ele>
        <time>2000-01-01T06:52:27.000Z</time>
      </trkpt>
      <trkpt lat="45.05165" lon="5.91548">
        <ele>1816.5</ele>
        <time>2000-01-01T06:52:37.000Z</time>
      </trkpt>
      <trkpt lat="45.05169" lon="5.91581">
        <ele>1831</ele>
        <time>2000-01-01T06:52:47.000Z</time>
      </trkpt>
      <trkpt lat="45.05173" lon="5.91592">
        <ele>1827</ele>
        <time>2000-01-01T06:52:57.000Z</time>
      </trkpt>
      <trkpt lat="45.05175" lon="5.91603">
        <ele>1829.8</ele>
        <time>2000-01-01T06:53:07.000Z</time>
      </trkpt>
      <trkpt lat="45.05176" lon="5.91621">
        <ele>1837</ele>
        <time>2000-01-01T06:53:17.000Z</time>
      </trkpt>
      <trkpt lat="45.05178" lon="5.9164">
        <ele>1838.9</ele>
        <time>2000-01-01T06:53:27.000Z</time>
      </trkpt>
      <trkpt lat="45.05177" lon="5.91658">
        <ele>1846</ele>
        <time>2000-01-01T06:53:37.000Z</time>
      </trkpt>
      <trkpt lat="45.05174" lon="5.9167">
        <ele>1847.6</ele>
        <time>2000-01-01T06:53:47.000Z</time>
      </trkpt>
      <trkpt lat="45.05177" lon="5.91687">
        <ele>1850</ele>
        <time>2000-01-01T06:53:57.000Z</time>
      </trkpt>
      <trkpt lat="45.05173" lon="5.91703">
        <ele>1854.9</ele>
        <time>2000-01-01T06:54:07.000Z</time>
      </trkpt>
      <trkpt lat="45.05182" lon="5.91718">
        <ele>1851</ele>
        <time>2000-01-01T06:54:17.000Z</time>
      </trkpt>
      <trkpt lat="45.05188" lon="5.91725">
        <ele>1856.3</ele>
        <time>2000-01-01T06:54:27.000Z</time>
      </trkpt>
      <trkpt lat="45.05192" lon="5.91734">
        <ele>1858</ele>
        <time>2000-01-01T06:54:37.000Z</time>
      </trkpt>
      <trkpt lat="45.05186" lon="5.91755">
        <ele>1864</ele>
        <time>2000-01-01T06:54:47.000Z</time>
      </trkpt>
      <trkpt lat="45.05191" lon="5.91775">
        <ele>1872.2</ele>
        <time>2000-01-01T06:54:57.000Z</time>
      </trkpt>
      <trkpt lat="45.05192" lon="5.91787">
        <ele>1873</ele>
        <time>2000-01-01T06:55:07.000Z</time>
      </trkpt>
      <trkpt lat="45.0519" lon="5.91795">
        <ele>1879.1</ele>
        <time>2000-01-01T06:55:17.000Z</time>
      </trkpt>
      <trkpt lat="45.05193" lon="5.91829">
        <ele>1887</ele>
        <time>2000-01-01T06:55:27.000Z</time>
      </trkpt>
      <trkpt lat="45.05192" lon="5.91841">
        <ele>1892.1</ele>
        <time>2000-01-01T06:55:37.000Z</time>
      </trkpt>
      <trkpt lat="45.05196" lon="5.9186">
        <ele>1895</ele>
        <time>2000-01-01T06:55:47.000Z</time>
      </trkpt>
      <trkpt lat="45.05197" lon="5.91879">
        <ele>1899.5</ele>
        <time>2000-01-01T06:55:57.000Z</time>
      </trkpt>
      <trkpt lat="45.05195" lon="5.91895">
        <ele>1904</ele>
        <time>2000-01-01T06:56:07.000Z</time>
      </trkpt>
      <trkpt lat="45.05202" lon="5.91914">
        <ele>1910.9</ele>
        <time>2000-01-01T06:56:17.000Z</time>
      </trkpt>
      <trkpt lat="45.05203" lon="5.91922">
        <ele>1912</ele>
        <time>2000-01-01T06:56:27.000Z</time>
      </trkpt>
      <trkpt lat="45.05212" lon="5.91943">
        <ele>1922.7</ele>
        <time>2000-01-01T06:56:37.000Z</time>
      </trkpt>
      <trkpt lat="45.05221" lon="5.91953">
        <ele>1920</ele>
        <time>2000-01-01T06:56:47.000Z</time>
      </trkpt>
      <trkpt lat="45.05228" lon="5.91965">
        <ele>1928.5</ele>
        <time>2000-01-01T06:56:57.000Z</time>
      </trkpt>
      <trkpt lat="45.05235" lon="5.9197">
        <ele>1929.9</ele>
        <time>2000-01-01T06:57:07.000Z</time>
      </trkpt>
      <trkpt lat="45.05238" lon="5.91974">
        <ele>1932</ele>
        <time>2000-01-01T06:57:17.000Z</time>
      </trkpt>
      <trkpt lat="45.05242" lon="5.91987">
        <ele>1936.4</ele>
        <time>2000-01-01T06:57:27.000Z</time>
      </trkpt>
      <trkpt lat="45.05244" lon="5.92021">
        <ele>1950</ele>
        <time>2000-01-01T06:57:37.000Z</time>
      </trkpt>
      <trkpt lat="45.05248" lon="5.92035">
        <ele>1953.5</ele>
        <time>2000-01-01T06:57:47.000Z</time>
      </trkpt>
      <trkpt lat="45.05254" lon="5.92039">
        <ele>1953</ele>
        <time>2000-01-01T06:57:57.000Z</time>
      </trkpt>
      <trkpt lat="45.05269" lon="5.92058">
        <ele>1955</ele>
        <time>2000-01-01T06:58:07.000Z</time>
      </trkpt>
      <trkpt lat="45.05274" lon="5.92066">
        <ele>1961.2</ele>
        <time>2000-01-01T06:58:17.000Z</time>
      </trkpt>
      <trkpt lat="45.05287" lon="5.92071">
        <ele>1963</ele>
        <time>2000-01-01T06:58:27.000Z</time>
      </trkpt>
      <trkpt lat="45.05297" lon="5.92082">
        <ele>1966</ele>
        <time>2000-01-01T06:58:37.000Z</time>
      </trkpt>
      <trkpt lat="45.05301" lon="5.92096">
        <ele>1969</ele>
        <time>2000-01-01T06:58:47.000Z</time>
      </trkpt>
      <trkpt lat="45.05324" lon="5.92126">
        <ele>1976</ele>
        <time>2000-01-01T06:58:57.000Z</time>
      </trkpt>
      <trkpt lat="45.05331" lon="5.92137">
        <ele>1982.8</ele>
        <time>2000-01-01T06:59:07.000Z</time>
      </trkpt>
      <trkpt lat="45.05336" lon="5.92147">
        <ele>1983</ele>
        <time>2000-01-01T06:59:17.000Z</time>
      </trkpt>
      <trkpt lat="45.05351" lon="5.92162">
        <ele>1990.6</ele>
        <time>2000-01-01T06:59:27.000Z</time>
      </trkpt>
      <trkpt lat="45.05354" lon="5.9217">
        <ele>1994</ele>
        <time>2000-01-01T06:59:37.000Z</time>
      </trkpt>
      <trkpt lat="45.05361" lon="5.92182">
        <ele>1998.1</ele>
        <time>2000-01-01T06:59:47.000Z</time>
      </trkpt>
      <trkpt lat="45.05327" lon="5.9218">
        <ele>2003</ele>
        <time>2000-01-01T06:59:57.000Z</time>
      </trkpt>
      <trkpt lat="45.05301" lon="5.92187">
        <ele>2010</ele>
        <time>2000-01-01T07:00:07.000Z</time>
      </trkpt>
      <trkpt lat="45.05275" lon="5.92192">
        <ele>2023</ele>
        <time>2000-01-01T07:00:17.000Z</time>
      </trkpt>
      <trkpt lat="45.05259" lon="5.92193">
        <ele>2025.8</ele>
        <time>2000-01-01T07:00:27.000Z</time>
      </trkpt>
      <trkpt lat="45.05247" lon="5.92205">
        <ele>2031</ele>
        <time>2000-01-01T07:00:37.000Z</time>
      </trkpt>
      <trkpt lat="45.05239" lon="5.92232">
        <ele>2037</ele>
        <time>2000-01-01T07:00:47.000Z</time>
      </trkpt>
      <trkpt lat="45.0526" lon="5.92239">
        <ele>2043</ele>
        <time>2000-01-01T07:00:57.000Z</time>
      </trkpt>
      <trkpt lat="45.0525" lon="5.92267">
        <ele>2052</ele>
        <time>2000-01-01T07:01:07.000Z</time>
      </trkpt>
      <trkpt lat="45.05253" lon="5.92287">
        <ele>2055.8</ele>
        <time>2000-01-01T07:01:17.000Z</time>
      </trkpt>
      <trkpt lat="45.05259" lon="5.92302">
        <ele>2056</ele>
        <time>2000-01-01T07:01:27.000Z</time>
      </trkpt>
      <trkpt lat="45.05249" lon="5.92322">
        <ele>2058.9</ele>
        <time>2000-01-01T07:01:37.000Z</time>
      </trkpt>
      <trkpt lat="45.05249" lon="5.9232">
        <ele>2058.7</ele>
        <time>2000-01-01T07:01:47.000Z</time>
      </trkpt>
      <trkpt lat="45.05242" lon="5.92329">
        <ele>2058</ele>
        <time>2000-01-01T07:01:57.000Z</time>
      </trkpt>
      <trkpt lat="45.05237" lon="5.9233">
        <ele>2061.5</ele>
        <time>2000-01-01T07:02:07.000Z</time>
      </trkpt>
      <trkpt lat="45.05232" lon="5.92333">
        <ele>2062.6</ele>
        <time>2000-01-01T07:02:17.000Z</time>
      </trkpt>
      <trkpt lat="45.05227" lon="5.92339">
        <ele>2063.3</ele>
        <time>2000-01-01T07:02:27.000Z</time>
      </trkpt>
      <trkpt lat="45.05226" lon="5.92342">
        <ele>2064</ele>
        <time>2000-01-01T07:02:37.000Z</time>
      </trkpt>
      <trkpt lat="45.05219" lon="5.92369">
        <ele>2064</ele>
        <time>2000-01-01T07:02:47.000Z</time>
      </trkpt>
      <trkpt lat="45.05218" lon="5.92399">
        <ele>2065</ele>
        <time>2000-01-01T07:02:57.000Z</time>
      </trkpt>
      <trkpt lat="45.05219" lon="5.92416">
        <ele>2063.3</ele>
        <time>2000-01-01T07:03:07.000Z</time>
      </trkpt>
      <trkpt lat="45.05219" lon="5.92445">
        <ele>2065</ele>
        <time>2000-01-01T07:03:17.000Z</time>
      </trkpt>
      <trkpt lat="45.05213" lon="5.92459">
        <ele>2063.4</ele>
        <time>2000-01-01T07:03:27.000Z</time>
      </trkpt>
      <trkpt lat="45.05205" lon="5.92469">
        <ele>2066</ele>
        <time>2000-01-01T07:03:37.000Z</time>
      </trkpt>
      <trkpt lat="45.052" lon="5.9248">
        <ele>2066.6</ele>
        <time>2000-01-01T07:03:47.000Z</time>
      </trkpt>
      <trkpt lat="45.052" lon="5.92485">
        <ele>2067.3</ele>
        <time>2000-01-01T07:03:57.000Z</time>
      </trkpt>
      <trkpt lat="45.05207" lon="5.92511">
        <ele>2065</ele>
        <time>2000-01-01T07:04:07.000Z</time>
      </trkpt>
      <trkpt lat="45.05211" lon="5.92538">
        <ele>2065</ele>
        <time>2000-01-01T07:04:17.000Z</time>
      </trkpt>
      <trkpt lat="45.05211" lon="5.92541">
        <ele>2076.7</ele>
        <time>2000-01-01T07:04:27.000Z</time>
      </trkpt>
      <trkpt lat="45.05218" lon="5.9257">
        <ele>2069</ele>
        <time>2000-01-01T07:04:37.000Z</time>
      </trkpt>
      <trkpt lat="45.05219" lon="5.92592">
        <ele>2075</ele>
        <time>2000-01-01T07:04:47.000Z</time>
      </trkpt>
      <trkpt lat="45.05222" lon="5.92601">
        <ele>2073</ele>
        <time>2000-01-01T07:04:57.000Z</time>
      </trkpt>
      <trkpt lat="45.05222" lon="5.92605">
        <ele>2074.3</ele>
        <time>2000-01-01T07:05:07.000Z</time>
      </trkpt>
      <trkpt lat="45.05225" lon="5.92612">
        <ele>2074.2</ele>
        <time>2000-01-01T07:05:17.000Z</time>
      </trkpt>
      <trkpt lat="45.05225" lon="5.92615">
        <ele>2074.1</ele>
        <time>2000-01-01T07:05:27.000Z</time>
      </trkpt>
      <trkpt lat="45.05222" lon="5.92624">
        <ele>2074.2</ele>
        <time>2000-01-01T07:05:37.000Z</time>
      </trkpt>
      <trkpt lat="45.05213" lon="5.92637">
        <ele>2081</ele>
        <time>2000-01-01T07:05:47.000Z</time>
      </trkpt>
      <trkpt lat="45.05209" lon="5.92648">
        <ele>2085</ele>
        <time>2000-01-01T07:05:57.000Z</time>
      </trkpt>
      <trkpt lat="45.052" lon="5.92669">
        <ele>2088</ele>
        <time>2000-01-01T07:06:07.000Z</time>
      </trkpt>
      <trkpt lat="45.05195" lon="5.92676">
        <ele>2096.7</ele>
        <time>2000-01-01T07:06:17.000Z</time>
      </trkpt>
      <trkpt lat="45.05207" lon="5.92691">
        <ele>2086</ele>
        <time>2000-01-01T07:06:27.000Z</time>
      </trkpt>
      <trkpt lat="45.05211" lon="5.92699">
        <ele>2089.1</ele>
        <time>2000-01-01T07:06:37.000Z</time>
      </trkpt>
      <trkpt lat="45.05217" lon="5.92709">
        <ele>2085.5</ele>
        <time>2000-01-01T07:06:47.000Z</time>
      </trkpt>
      <trkpt lat="45.05216" lon="5.92717">
        <ele>2084</ele>
        <time>2000-01-01T07:06:57.000Z</time>
      </trkpt>
      <trkpt lat="45.05224" lon="5.92748">
        <ele>2082</ele>
        <time>2000-01-01T07:07:07.000Z</time>
      </trkpt>
      <trkpt lat="45.05223" lon="5.92765">
        <ele>2080.4</ele>
        <time>2000-01-01T07:07:17.000Z</time>
      </trkpt>
      <trkpt lat="45.05227" lon="5.92776">
        <ele>2081</ele>
        <time>2000-01-01T07:07:27.000Z</time>
      </trkpt>
      <trkpt lat="45.05228" lon="5.9278">
        <ele>2079.6</ele>
        <time>2000-01-01T07:07:37.000Z</time>
      </trkpt>
      <trkpt lat="45.05228" lon="5.92783">
        <ele>2079.6</ele>
        <time>2000-01-01T07:07:47.000Z</time>
      </trkpt>
      <trkpt lat="45.05231" lon="5.92792">
        <ele>2079.5</ele>
        <time>2000-01-01T07:07:57.000Z</time>
      </trkpt>
      <trkpt lat="45.05233" lon="5.92796">
        <ele>2079.5</ele>
        <time>2000-01-01T07:08:07.000Z</time>
      </trkpt>
      <trkpt lat="45.0524" lon="5.92815">
        <ele>2078</ele>
        <time>2000-01-01T07:08:17.000Z</time>
      </trkpt>
      <trkpt lat="45.0524" lon="5.92819">
        <ele>2078.7</ele>
        <time>2000-01-01T07:08:27.000Z</time>
      </trkpt>
      <trkpt lat="45.05244" lon="5.92826">
        <ele>2078.3</ele>
        <time>2000-01-01T07:08:37.000Z</time>
      </trkpt>
      <trkpt lat="45.05245" lon="5.9283">
        <ele>2078.1</ele>
        <time>2000-01-01T07:08:47.000Z</time>
      </trkpt>
      <trkpt lat="45.05246" lon="5.92837">
        <ele>2078.1</ele>
        <time>2000-01-01T07:08:57.000Z</time>
      </trkpt>
      <trkpt lat="45.05246" lon="5.92845">
        <ele>2077</ele>
        <time>2000-01-01T07:09:07.000Z</time>
      </trkpt>
      <trkpt lat="45.05247" lon="5.92848">
        <ele>2078.2</ele>
        <time>2000-01-01T07:09:17.000Z</time>
      </trkpt>
      <trkpt lat="45.0525" lon="5.92866">
        <ele>2078</ele>
        <time>2000-01-01T07:09:27.000Z</time>
      </trkpt>
      <trkpt lat="45.05251" lon="5.92869">
        <ele>2078</ele>
        <time>2000-01-01T07:09:37.000Z</time>
      </trkpt>
      <trkpt lat="45.05251" lon="5.92887">
        <ele>2077</ele>
        <time>2000-01-01T07:09:47.000Z</time>
      </trkpt>
      <trkpt lat="45.05253" lon="5.92899">
        <ele>2078.3</ele>
        <time>2000-01-01T07:09:57.000Z</time>
      </trkpt>
      <trkpt lat="45.05253" lon="5.92917">
        <ele>2076</ele>
        <time>2000-01-01T07:10:07.000Z</time>
      </trkpt>
      <trkpt lat="45.05256" lon="5.92928">
        <ele>2076.9</ele>
        <time>2000-01-01T07:10:17.000Z</time>
      </trkpt>
      <trkpt lat="45.0526" lon="5.92932">
        <ele>2076.3</ele>
        <time>2000-01-01T07:10:27.000Z</time>
      </trkpt>
      <trkpt lat="45.05278" lon="5.92944">
        <ele>2075</ele>
        <time>2000-01-01T07:10:37.000Z</time>
      </trkpt>
      <trkpt lat="45.05281" lon="5.92944">
        <ele>2075.8</ele>
        <time>2000-01-01T07:10:47.000Z</time>
      </trkpt>
      <trkpt lat="45.05289" lon="5.9294">
        <ele>2075.4</ele>
        <time>2000-01-01T07:10:57.000Z</time>
      </trkpt>
      <trkpt lat="45.05291" lon="5.9294">
        <ele>2075.3</ele>
        <time>2000-01-01T07:11:07.000Z</time>
      </trkpt>
      <trkpt lat="45.05295" lon="5.92942">
        <ele>2074.9</ele>
        <time>2000-01-01T07:11:17.000Z</time>
      </trkpt>
      <trkpt lat="45.05303" lon="5.92942">
        <ele>2075</ele>
        <time>2000-01-01T07:11:27.000Z</time>
      </trkpt>
      <trkpt lat="45.05305" lon="5.92944">
        <ele>2074.1</ele>
        <time>2000-01-01T07:11:37.000Z</time>
      </trkpt>
      <trkpt lat="45.05307" lon="5.92951">
        <ele>2073.2</ele>
        <time>2000-01-01T07:11:47.000Z</time>
      </trkpt>
      <trkpt lat="45.05309" lon="5.92954">
        <ele>2072.7</ele>
        <time>2000-01-01T07:11:57.000Z</time>
      </trkpt>
      <trkpt lat="45.05311" lon="5.92962">
        <ele>2071.7</ele>
        <time>2000-01-01T07:12:07.000Z</time>
      </trkpt>
      <trkpt lat="45.05312" lon="5.92987">
        <ele>2069</ele>
        <time>2000-01-01T07:12:17.000Z</time>
      </trkpt>
      <trkpt lat="45.05314" lon="5.92991">
        <ele>2068.9</ele>
        <time>2000-01-01T07:12:27.000Z</time>
      </trkpt>
      <trkpt lat="45.05303" lon="5.93073">
        <ele>2064</ele>
        <time>2000-01-01T07:12:37.000Z</time>
      </trkpt>
      <trkpt lat="45.05322" lon="5.93118">
        <ele>2060</ele>
        <time>2000-01-01T07:12:47.000Z</time>
      </trkpt>
      <trkpt lat="45.05342" lon="5.93162">
        <ele>2053</ele>
        <time>2000-01-01T07:12:57.000Z</time>
      </trkpt>
      <trkpt lat="45.05361" lon="5.93207">
        <ele>2049</ele>
        <time>2000-01-01T07:13:07.000Z</time>
      </trkpt>
      <trkpt lat="45.05391" lon="5.93274">
        <ele>2048</ele>
        <time>2000-01-01T07:13:17.000Z</time>
      </trkpt>
      <trkpt lat="45.05407" lon="5.93321">
        <ele>2042</ele>
        <time>2000-01-01T07:13:27.000Z</time>
      </trkpt>
      <trkpt lat="45.05424" lon="5.93367">
        <ele>2042</ele>
        <time>2000-01-01T07:13:37.000Z</time>
      </trkpt>
      <trkpt lat="45.0544" lon="5.93414">
        <ele>2040</ele>
        <time>2000-01-01T07:13:47.000Z</time>
      </trkpt>
      <trkpt lat="45.05464" lon="5.9348">
        <ele>2039</ele>
        <time>2000-01-01T07:13:57.000Z</time>
      </trkpt>
      <trkpt lat="45.05469" lon="5.93527">
        <ele>2039</ele>
        <time>2000-01-01T07:14:07.000Z</time>
      </trkpt>
      <trkpt lat="45.05475" lon="5.93574">
        <ele>2039</ele>
        <time>2000-01-01T07:14:17.000Z</time>
      </trkpt>
      <trkpt lat="45.05482" lon="5.93641">
        <ele>2037</ele>
        <time>2000-01-01T07:14:27.000Z</time>
      </trkpt>
      <trkpt lat="45.05495" lon="5.93694">
        <ele>2036</ele>
        <time>2000-01-01T07:14:37.000Z</time>
      </trkpt>
      <trkpt lat="45.05502" lon="5.93739">
        <ele>2035</ele>
        <time>2000-01-01T07:14:47.000Z</time>
      </trkpt>
      <trkpt lat="45.05509" lon="5.93785">
        <ele>2032</ele>
        <time>2000-01-01T07:14:57.000Z</time>
      </trkpt>
      <trkpt lat="45.05518" lon="5.9384">
        <ele>2030</ele>
        <time>2000-01-01T07:15:07.000Z</time>
      </trkpt>
      <trkpt lat="45.05541" lon="5.93869">
        <ele>2030</ele>
        <time>2000-01-01T07:15:17.000Z</time>
      </trkpt>
      <trkpt lat="45.05583" lon="5.93924">
        <ele>2023</ele>
        <time>2000-01-01T07:15:27.000Z</time>
      </trkpt>
      <trkpt lat="45.05606" lon="5.93944">
        <ele>2022</ele>
        <time>2000-01-01T07:15:37.000Z</time>
      </trkpt>
      <trkpt lat="45.05635" lon="5.9397">
        <ele>2021</ele>
        <time>2000-01-01T07:15:47.000Z</time>
      </trkpt>
      <trkpt lat="45.05644" lon="5.94002">
        <ele>2019</ele>
        <time>2000-01-01T07:15:57.000Z</time>
      </trkpt>
      <trkpt lat="45.05653" lon="5.94037">
        <ele>2017</ele>
        <time>2000-01-01T07:16:07.000Z</time>
      </trkpt>
      <trkpt lat="45.05674" lon="5.94066">
        <ele>2017</ele>
        <time>2000-01-01T07:16:17.000Z</time>
      </trkpt>
      <trkpt lat="45.0571" lon="5.94115">
        <ele>2013</ele>
        <time>2000-01-01T07:16:27.000Z</time>
      </trkpt>
      <trkpt lat="45.0573" lon="5.94144">
        <ele>2005</ele>
        <time>2000-01-01T07:16:37.000Z</time>
      </trkpt>
      <trkpt lat="45.05759" lon="5.94188">
        <ele>2002</ele>
        <time>2000-01-01T07:16:47.000Z</time>
      </trkpt>
      <trkpt lat="45.05784" lon="5.94207">
        <ele>2002</ele>
        <time>2000-01-01T07:16:57.000Z</time>
      </trkpt>
      <trkpt lat="45.05817" lon="5.9421">
        <ele>2009</ele>
        <time>2000-01-01T07:17:07.000Z</time>
      </trkpt>
      <trkpt lat="45.05859" lon="5.94221">
        <ele>2017</ele>
        <time>2000-01-01T07:17:17.000Z</time>
      </trkpt>
      <trkpt lat="45.0588" lon="5.94202">
        <ele>2025</ele>
        <time>2000-01-01T07:17:27.000Z</time>
      </trkpt>
      <trkpt lat="45.05903" lon="5.94181">
        <ele>2040</ele>
        <time>2000-01-01T07:17:37.000Z</time>
      </trkpt>
      <trkpt lat="45.05925" lon="5.94165">
        <ele>2052</ele>
        <time>2000-01-01T07:17:47.000Z</time>
      </trkpt>
      <trkpt lat="45.05948" lon="5.94149">
        <ele>2065</ele>
        <time>2000-01-01T07:17:57.000Z</time>
      </trkpt>
      <trkpt lat="45.05969" lon="5.94128">
        <ele>2070</ele>
        <time>2000-01-01T07:18:07.000Z</time>
      </trkpt>
      <trkpt lat="45.05992" lon="5.94104">
        <ele>2071</ele>
        <time>2000-01-01T07:18:17.000Z</time>
      </trkpt>
      <trkpt lat="45.05995" lon="5.94068">
        <ele>2070</ele>
        <time>2000-01-01T07:18:27.000Z</time>
      </trkpt>
      <trkpt lat="45.05998" lon="5.94026">
        <ele>2070</ele>
        <time>2000-01-01T07:18:37.000Z</time>
      </trkpt>
      <trkpt lat="45.06037" lon="5.93994">
        <ele>2069</ele>
        <time>2000-01-01T07:18:47.000Z</time>
      </trkpt>
      <trkpt lat="45.06061" lon="5.93977">
        <ele>2067</ele>
        <time>2000-01-01T07:18:57.000Z</time>
      </trkpt>
      <trkpt lat="45.06092" lon="5.93955">
        <ele>2066</ele>
        <time>2000-01-01T07:19:07.000Z</time>
      </trkpt>
      <trkpt lat="45.06111" lon="5.93928">
        <ele>2063</ele>
        <time>2000-01-01T07:19:17.000Z</time>
      </trkpt>
      <trkpt lat="45.06137" lon="5.93891">
        <ele>2059</ele>
        <time>2000-01-01T07:19:27.000Z</time>
      </trkpt>
      <trkpt lat="45.06167" lon="5.93885">
        <ele>2058</ele>
        <time>2000-01-01T07:19:37.000Z</time>
      </trkpt>
      <trkpt lat="45.06218" lon="5.93874">
        <ele>2054</ele>
        <time>2000-01-01T07:19:47.000Z</time>
      </trkpt>
      <trkpt lat="45.0624" lon="5.93847">
        <ele>2050</ele>
        <time>2000-01-01T07:19:57.000Z</time>
      </trkpt>
      <trkpt lat="45.06275" lon="5.93803">
        <ele>2046</ele>
        <time>2000-01-01T07:20:07.000Z</time>
      </trkpt>
      <trkpt lat="45.06305" lon="5.93781">
        <ele>2044</ele>
        <time>2000-01-01T07:20:17.000Z</time>
      </trkpt>
      <trkpt lat="45.06335" lon="5.93759">
        <ele>2038</ele>
        <time>2000-01-01T07:20:27.000Z</time>
      </trkpt>
      <trkpt lat="45.0638" lon="5.93726">
        <ele>2036</ele>
        <time>2000-01-01T07:20:37.000Z</time>
      </trkpt>
      <trkpt lat="45.06409" lon="5.93719">
        <ele>2037</ele>
        <time>2000-01-01T07:20:47.000Z</time>
      </trkpt>
      <trkpt lat="45.06455" lon="5.93708">
        <ele>2036</ele>
        <time>2000-01-01T07:20:57.000Z</time>
      </trkpt>
      <trkpt lat="45.0646" lon="5.93661">
        <ele>2036</ele>
        <time>2000-01-01T07:21:07.000Z</time>
      </trkpt>
      <trkpt lat="45.06464" lon="5.93614">
        <ele>2033</ele>
        <time>2000-01-01T07:21:17.000Z</time>
      </trkpt>
      <trkpt lat="45.06471" lon="5.93547">
        <ele>2033</ele>
        <time>2000-01-01T07:21:27.000Z</time>
      </trkpt>
      <trkpt lat="45.06466" lon="5.93499">
        <ele>2031</ele>
        <time>2000-01-01T07:21:37.000Z</time>
      </trkpt>
      <trkpt lat="45.06461" lon="5.9345">
        <ele>2031</ele>
        <time>2000-01-01T07:21:47.000Z</time>
      </trkpt>
      <trkpt lat="45.06452" lon="5.93371">
        <ele>2023</ele>
        <time>2000-01-01T07:21:57.000Z</time>
      </trkpt>
      <trkpt lat="45.06457" lon="5.93326">
        <ele>2021</ele>
        <time>2000-01-01T07:22:07.000Z</time>
      </trkpt>
      <trkpt lat="45.06463" lon="5.93281">
        <ele>2018</ele>
        <time>2000-01-01T07:22:17.000Z</time>
      </trkpt>
      <trkpt lat="45.06469" lon="5.93232">
        <ele>2012</ele>
        <time>2000-01-01T07:22:27.000Z</time>
      </trkpt>
      <trkpt lat="45.06503" lon="5.93226">
        <ele>2008</ele>
        <time>2000-01-01T07:22:37.000Z</time>
      </trkpt>
      <trkpt lat="45.06536" lon="5.9322">
        <ele>1996</ele>
        <time>2000-01-01T07:22:47.000Z</time>
      </trkpt>
      <trkpt lat="45.06587" lon="5.93211">
        <ele>1989</ele>
        <time>2000-01-01T07:22:57.000Z</time>
      </trkpt>
      <trkpt lat="45.06572" lon="5.93185">
        <ele>1981</ele>
        <time>2000-01-01T07:23:07.000Z</time>
      </trkpt>
      <trkpt lat="45.06556" lon="5.93158">
        <ele>1977</ele>
        <time>2000-01-01T07:23:17.000Z</time>
      </trkpt>
      <trkpt lat="45.06577" lon="5.93122">
        <ele>1970</ele>
        <time>2000-01-01T07:23:27.000Z</time>
      </trkpt>
      <trkpt lat="45.06581" lon="5.93078">
        <ele>1966</ele>
        <time>2000-01-01T07:23:37.000Z</time>
      </trkpt>
      <trkpt lat="45.06592" lon="5.93037">
        <ele>1965</ele>
        <time>2000-01-01T07:23:47.000Z</time>
      </trkpt>
      <trkpt lat="45.06614" lon="5.92962">
        <ele>1961</ele>
        <time>2000-01-01T07:23:57.000Z</time>
      </trkpt>
      <trkpt lat="45.06605" lon="5.92917">
        <ele>1958</ele>
        <time>2000-01-01T07:24:07.000Z</time>
      </trkpt>
      <trkpt lat="45.06595" lon="5.92872">
        <ele>1956</ele>
        <time>2000-01-01T07:24:17.000Z</time>
      </trkpt>
      <trkpt lat="45.06583" lon="5.92812">
        <ele>1950</ele>
        <time>2000-01-01T07:24:27.000Z</time>
      </trkpt>
      <trkpt lat="45.06581" lon="5.92774">
        <ele>1947</ele>
        <time>2000-01-01T07:24:37.000Z</time>
      </trkpt>
      <trkpt lat="45.06579" lon="5.92723">
        <ele>1942</ele>
        <time>2000-01-01T07:24:47.000Z</time>
      </trkpt>
      <trkpt lat="45.06593" lon="5.92687">
        <ele>1937</ele>
        <time>2000-01-01T07:24:57.000Z</time>
      </trkpt>
      <trkpt lat="45.06616" lon="5.92631">
        <ele>1935</ele>
        <time>2000-01-01T07:25:07.000Z</time>
      </trkpt>
      <trkpt lat="45.0664" lon="5.92602">
        <ele>1935</ele>
        <time>2000-01-01T07:25:17.000Z</time>
      </trkpt>
      <trkpt lat="45.06687" lon="5.92544">
        <ele>1930</ele>
        <time>2000-01-01T07:25:27.000Z</time>
      </trkpt>
      <trkpt lat="45.067" lon="5.92499">
        <ele>1922</ele>
        <time>2000-01-01T07:25:37.000Z</time>
      </trkpt>
      <trkpt lat="45.06712" lon="5.92454">
        <ele>1920</ele>
        <time>2000-01-01T07:25:47.000Z</time>
      </trkpt>
      <trkpt lat="45.06731" lon="5.92387">
        <ele>1914</ele>
        <time>2000-01-01T07:25:57.000Z</time>
      </trkpt>
      <trkpt lat="45.06751" lon="5.92362">
        <ele>1910</ele>
        <time>2000-01-01T07:26:07.000Z</time>
      </trkpt>
      <trkpt lat="45.06776" lon="5.92332">
        <ele>1902</ele>
        <time>2000-01-01T07:26:17.000Z</time>
      </trkpt>
      <trkpt lat="45.06779" lon="5.92267">
        <ele>1898</ele>
        <time>2000-01-01T07:26:27.000Z</time>
      </trkpt>
      <trkpt lat="45.06768" lon="5.92234">
        <ele>1894</ele>
        <time>2000-01-01T07:26:37.000Z</time>
      </trkpt>
      <trkpt lat="45.06754" lon="5.92194">
        <ele>1891</ele>
        <time>2000-01-01T07:26:47.000Z</time>
      </trkpt>
      <trkpt lat="45.06749" lon="5.92159">
        <ele>1883</ele>
        <time>2000-01-01T07:26:57.000Z</time>
      </trkpt>
      <trkpt lat="45.06744" lon="5.9212">
        <ele>1875</ele>
        <time>2000-01-01T07:27:07.000Z</time>
      </trkpt>
      <trkpt lat="45.06711" lon="5.92101">
        <ele>1866</ele>
        <time>2000-01-01T07:27:17.000Z</time>
      </trkpt>
      <trkpt lat="45.06701" lon="5.92076">
        <ele>1866</ele>
        <time>2000-01-01T07:27:27.000Z</time>
      </trkpt>
      <trkpt lat="45.0671" lon="5.92045">
        <ele>1866</ele>
        <time>2000-01-01T07:27:37.000Z</time>
      </trkpt>
      <trkpt lat="45.06719" lon="5.92013">
        <ele>1859</ele>
        <time>2000-01-01T07:27:47.000Z</time>
      </trkpt>
      <trkpt lat="45.0673" lon="5.9198">
        <ele>1847</ele>
        <time>2000-01-01T07:27:57.000Z</time>
      </trkpt>
      <trkpt lat="45.06742" lon="5.91943">
        <ele>1825</ele>
        <time>2000-01-01T07:28:07.000Z</time>
      </trkpt>
      <trkpt lat="45.06766" lon="5.9194">
        <ele>1817</ele>
        <time>2000-01-01T07:28:17.000Z</time>
      </trkpt>
      <trkpt lat="45.0679" lon="5.91937">
        <ele>1799</ele>
        <time>2000-01-01T07:28:27.000Z</time>
      </trkpt>
      <trkpt lat="45.06822" lon="5.91936">
        <ele>1788</ele>
        <time>2000-01-01T07:28:37.000Z</time>
      </trkpt>
      <trkpt lat="45.06854" lon="5.91936">
        <ele>1771</ele>
        <time>2000-01-01T07:28:47.000Z</time>
      </trkpt>
      <trkpt lat="45.06886" lon="5.91935">
        <ele>1749</ele>
        <time>2000-01-01T07:28:57.000Z</time>
      </trkpt>
      <trkpt lat="45.0692" lon="5.91959">
        <ele>1728</ele>
        <time>2000-01-01T07:29:07.000Z</time>
      </trkpt>
      <trkpt lat="45.06954" lon="5.91982">
        <ele>1728</ele>
        <time>2000-01-01T07:29:17.000Z</time>
      </trkpt>
      <trkpt lat="45.06988" lon="5.92006">
        <ele>1714</ele>
        <time>2000-01-01T07:29:27.000Z</time>
      </trkpt>
      <trkpt lat="45.07053" lon="5.92051">
        <ele>1701</ele>
        <time>2000-01-01T07:29:37.000Z</time>
      </trkpt>
      <trkpt lat="45.0709" lon="5.92056">
        <ele>1697</ele>
        <time>2000-01-01T07:29:47.000Z</time>
      </trkpt>
      <trkpt lat="45.07111" lon="5.92022">
        <ele>1691</ele>
        <time>2000-01-01T07:29:57.000Z</time>
      </trkpt>
      <trkpt lat="45.07132" lon="5.91988">
        <ele>1677</ele>
        <time>2000-01-01T07:30:07.000Z</time>
      </trkpt>
      <trkpt lat="45.07154" lon="5.91952">
        <ele>1663</ele>
        <time>2000-01-01T07:30:17.000Z</time>
      </trkpt>
      <trkpt lat="45.07156" lon="5.91937">
        <ele>1656.4</ele>
        <time>2000-01-01T07:30:27.000Z</time>
      </trkpt>
      <trkpt lat="45.07168" lon="5.91952">
        <ele>1663</ele>
        <time>2000-01-01T07:30:37.000Z</time>
      </trkpt>
      <trkpt lat="45.07167" lon="5.91915">
        <ele>1645</ele>
        <time>2000-01-01T07:30:47.000Z</time>
      </trkpt>
      <trkpt lat="45.07167" lon="5.91872">
        <ele>1629</ele>
        <time>2000-01-01T07:30:57.000Z</time>
      </trkpt>
      <trkpt lat="45.07161" lon="5.91833">
        <ele>1617</ele>
        <time>2000-01-01T07:31:07.000Z</time>
      </trkpt>
      <trkpt lat="45.07152" lon="5.91778">
        <ele>1591</ele>
        <time>2000-01-01T07:31:17.000Z</time>
      </trkpt>
      <trkpt lat="45.0714" lon="5.91732">
        <ele>1580</ele>
        <time>2000-01-01T07:31:27.000Z</time>
      </trkpt>
      <trkpt lat="45.07164" lon="5.91716">
        <ele>1570</ele>
        <time>2000-01-01T07:31:37.000Z</time>
      </trkpt>
      <trkpt lat="45.0713" lon="5.91682">
        <ele>1557</ele>
        <time>2000-01-01T07:31:47.000Z</time>
      </trkpt>
      <trkpt lat="45.07156" lon="5.9165">
        <ele>1545</ele>
        <time>2000-01-01T07:31:57.000Z</time>
      </trkpt>
      <trkpt lat="45.07198" lon="5.91662">
        <ele>1540</ele>
        <time>2000-01-01T07:32:07.000Z</time>
      </trkpt>
      <trkpt lat="45.07211" lon="5.91643">
        <ele>1525.8</ele>
        <time>2000-01-01T07:32:17.000Z</time>
      </trkpt>
      <trkpt lat="45.07217" lon="5.91603">
        <ele>1512</ele>
        <time>2000-01-01T07:32:27.000Z</time>
      </trkpt>
      <trkpt lat="45.07232" lon="5.91592">
        <ele>1507.5</ele>
        <time>2000-01-01T07:32:37.000Z</time>
      </trkpt>
      <trkpt lat="45.07243" lon="5.91571">
        <ele>1500</ele>
        <time>2000-01-01T07:32:47.000Z</time>
      </trkpt>
      <trkpt lat="45.07275" lon="5.91581">
        <ele>1499</ele>
        <time>2000-01-01T07:32:57.000Z</time>
      </trkpt>
      <trkpt lat="45.07278" lon="5.91552">
        <ele>1492</ele>
        <time>2000-01-01T07:33:07.000Z</time>
      </trkpt>
      <trkpt lat="45.07297" lon="5.91529">
        <ele>1479</ele>
        <time>2000-01-01T07:33:17.000Z</time>
      </trkpt>
      <trkpt lat="45.07319" lon="5.91503">
        <ele>1467</ele>
        <time>2000-01-01T07:33:27.000Z</time>
      </trkpt>
      <trkpt lat="45.07347" lon="5.9149">
        <ele>1466</ele>
        <time>2000-01-01T07:33:37.000Z</time>
      </trkpt>
      <trkpt lat="45.0734" lon="5.9147">
        <ele>1460.7</ele>
        <time>2000-01-01T07:33:47.000Z</time>
      </trkpt>
      <trkpt lat="45.07348" lon="5.91442">
        <ele>1451</ele>
        <time>2000-01-01T07:33:57.000Z</time>
      </trkpt>
      <trkpt lat="45.07348" lon="5.91405">
        <ele>1438</ele>
        <time>2000-01-01T07:34:07.000Z</time>
      </trkpt>
      <trkpt lat="45.07345" lon="5.91386">
        <ele>1434.6</ele>
        <time>2000-01-01T07:34:17.000Z</time>
      </trkpt>
      <trkpt lat="45.07361" lon="5.91362">
        <ele>1425</ele>
        <time>2000-01-01T07:34:27.000Z</time>
      </trkpt>
      <trkpt lat="45.07376" lon="5.91328">
        <ele>1408</ele>
        <time>2000-01-01T07:34:37.000Z</time>
      </trkpt>
      <trkpt lat="45.07386" lon="5.91309">
        <ele>1409.7</ele>
        <time>2000-01-01T07:34:47.000Z</time>
      </trkpt>
      <trkpt lat="45.07395" lon="5.91295">
        <ele>1400</ele>
        <time>2000-01-01T07:34:57.000Z</time>
      </trkpt>
      <trkpt lat="45.07407" lon="5.91271">
        <ele>1388</ele>
        <time>2000-01-01T07:35:07.000Z</time>
      </trkpt>
      <trkpt lat="45.07425" lon="5.91257">
        <ele>1379</ele>
        <time>2000-01-01T07:35:17.000Z</time>
      </trkpt>
      <trkpt lat="45.07439" lon="5.91242">
        <ele>1375.5</ele>
        <time>2000-01-01T07:35:27.000Z</time>
      </trkpt>
      <trkpt lat="45.07459" lon="5.91227">
        <ele>1370</ele>
        <time>2000-01-01T07:35:37.000Z</time>
      </trkpt>
      <trkpt lat="45.0748" lon="5.91238">
        <ele>1361</ele>
        <time>2000-01-01T07:35:47.000Z</time>
      </trkpt>
      <trkpt lat="45.07491" lon="5.91239">
        <ele>1363.4</ele>
        <time>2000-01-01T07:35:57.000Z</time>
      </trkpt>
      <trkpt lat="45.07529" lon="5.91259">
        <ele>1354</ele>
        <time>2000-01-01T07:36:07.000Z</time>
      </trkpt>
      <trkpt lat="45.07542" lon="5.91264">
        <ele>1348.9</ele>
        <time>2000-01-01T07:36:17.000Z</time>
      </trkpt>
      <trkpt lat="45.07561" lon="5.91274">
        <ele>1341</ele>
        <time>2000-01-01T07:36:27.000Z</time>
      </trkpt>
      <trkpt lat="45.07583" lon="5.91293">
        <ele>1338</ele>
        <time>2000-01-01T07:36:37.000Z</time>
      </trkpt>
      <trkpt lat="45.07607" lon="5.91314">
        <ele>1336</ele>
        <time>2000-01-01T07:36:47.000Z</time>
      </trkpt>
      <trkpt lat="45.07651" lon="5.91331">
        <ele>1312</ele>
        <time>2000-01-01T07:36:57.000Z</time>
      </trkpt>
      <trkpt lat="45.07675" lon="5.91338">
        <ele>1300</ele>
        <time>2000-01-01T07:37:07.000Z</time>
      </trkpt>
      <trkpt lat="45.07701" lon="5.91345">
        <ele>1289</ele>
        <time>2000-01-01T07:37:17.000Z</time>
      </trkpt>
      <trkpt lat="45.07728" lon="5.9134">
        <ele>1282</ele>
        <time>2000-01-01T07:37:27.000Z</time>
      </trkpt>
      <trkpt lat="45.07762" lon="5.91334">
        <ele>1275</ele>
        <time>2000-01-01T07:37:37.000Z</time>
      </trkpt>
      <trkpt lat="45.07799" lon="5.91367">
        <ele>1268</ele>
        <time>2000-01-01T07:37:47.000Z</time>
      </trkpt>
      <trkpt lat="45.07825" lon="5.91365">
        <ele>1259</ele>
        <time>2000-01-01T07:37:57.000Z</time>
      </trkpt>
      <trkpt lat="45.07857" lon="5.91363">
        <ele>1244</ele>
        <time>2000-01-01T07:38:07.000Z</time>
      </trkpt>
      <trkpt lat="45.07879" lon="5.91383">
        <ele>1243</ele>
        <time>2000-01-01T07:38:17.000Z</time>
      </trkpt>
      <trkpt lat="45.07907" lon="5.91407">
        <ele>1232</ele>
        <time>2000-01-01T07:38:27.000Z</time>
      </trkpt>
      <trkpt lat="45.0795" lon="5.91397">
        <ele>1214</ele>
        <time>2000-01-01T07:38:37.000Z</time>
      </trkpt>
      <trkpt lat="45.07937" lon="5.91368">
        <ele>1206</ele>
        <time>2000-01-01T07:38:47.000Z</time>
      </trkpt>
      <trkpt lat="45.07923" lon="5.91337">
        <ele>1199</ele>
        <time>2000-01-01T07:38:57.000Z</time>
      </trkpt>
      <trkpt lat="45.07955" lon="5.91299">
        <ele>1173</ele>
        <time>2000-01-01T07:39:07.000Z</time>
      </trkpt>
      <trkpt lat="45.07981" lon="5.91314">
        <ele>1154</ele>
        <time>2000-01-01T07:39:17.000Z</time>
      </trkpt>
      <trkpt lat="45.08018" lon="5.91336">
        <ele>1138</ele>
        <time>2000-01-01T07:39:27.000Z</time>
      </trkpt>
      <trkpt lat="45.08014" lon="5.91292">
        <ele>1127</ele>
        <time>2000-01-01T07:39:37.000Z</time>
      </trkpt>
      <trkpt lat="45.08034" lon="5.9131">
        <ele>1120</ele>
        <time>2000-01-01T07:39:47.000Z</time>
      </trkpt>
      <trkpt lat="45.08055" lon="5.91329">
        <ele>1110</ele>
        <time>2000-01-01T07:39:57.000Z</time>
      </trkpt>
      <trkpt lat="45.08045" lon="5.91285">
        <ele>1104</ele>
        <time>2000-01-01T07:40:07.000Z</time>
      </trkpt>
      <trkpt lat="45.0809" lon="5.91271">
        <ele>1074</ele>
        <time>2000-01-01T07:40:17.000Z</time>
      </trkpt>
      <trkpt lat="45.08098" lon="5.91228">
        <ele>1056</ele>
        <time>2000-01-01T07:40:27.000Z</time>
      </trkpt>
      <trkpt lat="45.08136" lon="5.91217">
        <ele>1034</ele>
        <time>2000-01-01T07:40:37.000Z</time>
      </trkpt>
      <trkpt lat="45.08138" lon="5.91188">
        <ele>1024</ele>
        <time>2000-01-01T07:40:47.000Z</time>
      </trkpt>
      <trkpt lat="45.08165" lon="5.91182">
        <ele>1012</ele>
        <time>2000-01-01T07:40:57.000Z</time>
      </trkpt>
      <trkpt lat="45.08201" lon="5.91173">
        <ele>991</ele>
        <time>2000-01-01T07:41:07.000Z</time>
      </trkpt>
      <trkpt lat="45.08206" lon="5.91152">
        <ele>982.4</ele>
        <time>2000-01-01T07:41:17.000Z</time>
      </trkpt>
      <trkpt lat="45.08246" lon="5.91105">
        <ele>950</ele>
        <time>2000-01-01T07:41:27.000Z</time>
      </trkpt>
      <trkpt lat="45.08285" lon="5.91128">
        <ele>928</ele>
        <time>2000-01-01T07:41:37.000Z</time>
      </trkpt>
      <trkpt lat="45.08318" lon="5.91094">
        <ele>900</ele>
        <time>2000-01-01T07:41:47.000Z</time>
      </trkpt>
      <trkpt lat="45.08344" lon="5.91077">
        <ele>890</ele>
        <time>2000-01-01T07:41:57.000Z</time>
      </trkpt>
      <trkpt lat="45.08386" lon="5.9105">
        <ele>886</ele>
        <time>2000-01-01T07:42:07.000Z</time>
      </trkpt>
      <trkpt lat="45.08424" lon="5.91013">
        <ele>863</ele>
        <time>2000-01-01T07:42:17.000Z</time>
      </trkpt>
      <trkpt lat="45.08449" lon="5.90975">
        <ele>850</ele>
        <time>2000-01-01T07:42:27.000Z</time>
      </trkpt>
      <trkpt lat="45.08474" lon="5.90937">
        <ele>832</ele>
        <time>2000-01-01T07:42:37.000Z</time>
      </trkpt>
      <trkpt lat="45.085" lon="5.90899">
        <ele>817</ele>
        <time>2000-01-01T07:42:47.000Z</time>
      </trkpt>
      <trkpt lat="45.08535" lon="5.90846">
        <ele>798</ele>
        <time>2000-01-01T07:42:57.000Z</time>
      </trkpt>
      <trkpt lat="45.08559" lon="5.90844">
        <ele>794</ele>
        <time>2000-01-01T07:43:07.000Z</time>
      </trkpt>
      <trkpt lat="45.08584" lon="5.90841">
        <ele>785</ele>
        <time>2000-01-01T07:43:17.000Z</time>
      </trkpt>
      <trkpt lat="45.08613" lon="5.9086">
        <ele>781</ele>
        <time>2000-01-01T07:43:27.000Z</time>
      </trkpt>
      <trkpt lat="45.08642" lon="5.90879">
        <ele>775</ele>
        <time>2000-01-01T07:43:37.000Z</time>
      </trkpt>
      <trkpt lat="45.08672" lon="5.90899">
        <ele>774</ele>
        <time>2000-01-01T07:43:47.000Z</time>
      </trkpt>
      <trkpt lat="45.0871" lon="5.909">
        <ele>765</ele>
        <time>2000-01-01T07:43:57.000Z</time>
      </trkpt>
      <trkpt lat="45.08748" lon="5.90902">
        <ele>754</ele>
        <time>2000-01-01T07:44:07.000Z</time>
      </trkpt>
      <trkpt lat="45.08787" lon="5.90903">
        <ele>743</ele>
        <time>2000-01-01T07:44:17.000Z</time>
      </trkpt>
      <trkpt lat="45.08825" lon="5.90904">
        <ele>732</ele>
        <time>2000-01-01T07:44:27.000Z</time>
      </trkpt>
      <trkpt lat="45.08866" lon="5.90906">
        <ele>722</ele>
        <time>2000-01-01T07:44:37.000Z</time>
      </trkpt>
      <trkpt lat="45.08902" lon="5.90892">
        <ele>710</ele>
        <time>2000-01-01T07:44:47.000Z</time>
      </trkpt>
      <trkpt lat="45.08938" lon="5.90878">
        <ele>700</ele>
        <time>2000-01-01T07:44:57.000Z</time>
      </trkpt>
      <trkpt lat="45.08974" lon="5.90864">
        <ele>689</ele>
        <time>2000-01-01T07:45:07.000Z</time>
      </trkpt>
      <trkpt lat="45.09031" lon="5.90841">
        <ele>676</ele>
        <time>2000-01-01T07:45:17.000Z</time>
      </trkpt>
      <trkpt lat="45.09058" lon="5.90862">
        <ele>675</ele>
        <time>2000-01-01T07:45:27.000Z</time>
      </trkpt>
      <trkpt lat="45.0908" lon="5.90838">
        <ele>678</ele>
        <time>2000-01-01T07:45:37.000Z</time>
      </trkpt>
      <trkpt lat="45.0911" lon="5.90805">
        <ele>679</ele>
        <time>2000-01-01T07:45:47.000Z</time>
      </trkpt>
      <trkpt lat="45.09114" lon="5.90773">
        <ele>676</ele>
        <time>2000-01-01T07:45:57.000Z</time>
      </trkpt>
      <trkpt lat="45.09099" lon="5.90729">
        <ele>674</ele>
        <time>2000-01-01T07:46:07.000Z</time>
      </trkpt>
      <trkpt lat="45.09105" lon="5.90664">
        <ele>672</ele>
        <time>2000-01-01T07:46:17.000Z</time>
      </trkpt>
      <trkpt lat="45.09091" lon="5.90618">
        <ele>667</ele>
        <time>2000-01-01T07:46:27.000Z</time>
      </trkpt>
      <trkpt lat="45.09076" lon="5.90571">
        <ele>660</ele>
        <time>2000-01-01T07:46:37.000Z</time>
      </trkpt>
      <trkpt lat="45.09062" lon="5.90525">
        <ele>648</ele>
        <time>2000-01-01T07:46:47.000Z</time>
      </trkpt>
      <trkpt lat="45.09047" lon="5.90478">
        <ele>631</ele>
        <time>2000-01-01T07:46:57.000Z</time>
      </trkpt>
      <trkpt lat="45.09025" lon="5.90439">
        <ele>614</ele>
        <time>2000-01-01T07:47:07.000Z</time>
      </trkpt>
      <trkpt lat="45.09003" lon="5.90401">
        <ele>609</ele>
        <time>2000-01-01T07:47:17.000Z</time>
      </trkpt>
      <trkpt lat="45.08963" lon="5.90332">
        <ele>591</ele>
        <time>2000-01-01T07:47:27.000Z</time>
      </trkpt>
      <trkpt lat="45.08937" lon="5.90299">
        <ele>583</ele>
        <time>2000-01-01T07:47:37.000Z</time>
      </trkpt>
      <trkpt lat="45.08912" lon="5.90265">
        <ele>574</ele>
        <time>2000-01-01T07:47:47.000Z</time>
      </trkpt>
      <trkpt lat="45.08867" lon="5.90208">
        <ele>561</ele>
        <time>2000-01-01T07:47:57.000Z</time>
      </trkpt>
      <trkpt lat="45.08881" lon="5.90145">
        <ele>541</ele>
        <time>2000-01-01T07:48:07.000Z</time>
      </trkpt>
      <trkpt lat="45.08846" lon="5.90124">
        <ele>536</ele>
        <time>2000-01-01T07:48:17.000Z</time>
      </trkpt>
      <trkpt lat="45.08869" lon="5.90102">
        <ele>535</ele>
        <time>2000-01-01T07:48:27.000Z</time>
      </trkpt>
      <trkpt lat="45.08886" lon="5.90057">
        <ele>535</ele>
        <time>2000-01-01T07:48:37.000Z</time>
      </trkpt>
      <trkpt lat="45.08903" lon="5.90012">
        <ele>528</ele>
        <time>2000-01-01T07:48:47.000Z</time>
      </trkpt>
      <trkpt lat="45.0892" lon="5.89967">
        <ele>530</ele>
        <time>2000-01-01T07:48:57.000Z</time>
      </trkpt>
      <trkpt lat="45.08939" lon="5.89917">
        <ele>533</ele>
        <time>2000-01-01T07:49:07.000Z</time>
      </trkpt>
      <trkpt lat="45.08914" lon="5.89895">
        <ele>538</ele>
        <time>2000-01-01T07:49:17.000Z</time>
      </trkpt>
      <trkpt lat="45.08871" lon="5.89857">
        <ele>544</ele>
        <time>2000-01-01T07:49:27.000Z</time>
      </trkpt>
      <trkpt lat="45.08836" lon="5.89832">
        <ele>544</ele>
        <time>2000-01-01T07:49:37.000Z</time>
      </trkpt>
      <trkpt lat="45.08801" lon="5.89806">
        <ele>544</ele>
        <time>2000-01-01T07:49:47.000Z</time>
      </trkpt>
      <trkpt lat="45.08766" lon="5.89781">
        <ele>545</ele>
        <time>2000-01-01T07:49:57.000Z</time>
      </trkpt>
      <trkpt lat="45.08731" lon="5.89756">
        <ele>544</ele>
        <time>2000-01-01T07:50:07.000Z</time>
      </trkpt>
      <trkpt lat="45.08666" lon="5.89709">
        <ele>544</ele>
        <time>2000-01-01T07:50:17.000Z</time>
      </trkpt>
    </trkseg>
  </trk>
</gpx>